[[{"header":{"parameterUnit":"m.s-1","parameterCategory":1,"la1":30.6,"la2":29.2853,"lo1":-89.7004,"lo2":-87.6739,"dy":0.0162,"dx":0.0183,"nx":112,"ny":82,"refTime":"2024-03-23T12:00:00:Z","depth":0,"parameterNumber":2,"parameterNumberName":"U-component_of_WINDS"},"data":[0.0,0.0,0.0,0.0,0.0,0.0,0.0,0.0,0.0,0.0,0.0,0.0,0.0,0.0,0.0,0.0,0.0,0.0,0.0,0.0,0.0,0.0,0.0,0.0,0.0,0.0,0.0,0.0,0.0,0.0,0.0,0.0,0.0,0.0,0.0,0.0,0.0,0.0,0.0,0.0,0.0,0.0,0.0,0.0,0.0,0.0,0.0,0.0,0.0,0.0,0.0,0.0,0.0,0.0,0.0,0.0,0.0,0.0,0.0,0.0,0.0,0.0,0.0,0.0,0.0,0.0,0.0,0.0,0.0,0.0,0.0,0.0,0.0,0.0,0.0,0.0,0.0,0.0,0.0,0.0,0.0,0.0,0.0,0.0,0.0,0.0,0.0,0.0,0.0,0.0,-0.1766,-0.1774,-0.0486,0.0152,-0.0354,-0.0453,-0.0842,-0.1765,0.0,0.0,0.0,0.0,0.0,0.0,0.0,0.0,0.0,0.0,0.0,0.0,0.0,0.0,0.0,0.0,0.0,0.0,0.0,0.0,0.0,0.0,0.0,0.0,0.0,0.0,0.0,0.0,0.0,0.0,0.0,0.0,0.0,0.0,0.0,0.0,0.0,0.0,0.0,0.0,0.0,0.0,0.0,0.0,0.0,0.0,0.0,0.0,0.0,0.0,0.0,0.0,0.0,0.0,0.0,0.0,0.0,0.0,0.0,0.0,0.0,0.0,0.0,0.0,0.0,0.0,0.0,0.0,0.0,0.0,0.0,0.0,0.0,0.0,0.0,0.0,0.0,0.0,0.0,0.0,0.0,0.0,0.0,0.0,0.0,0.0,0.0,0.0,0.0,0.0,0.0,0.0,0.0,0.0,0.0,0.0,0.0,0.0,0.0,0.0,0.0,0.0,0.0,0.0,-0.1834,-0.0443,-0.01,-0.0051,-0.0354,-0.0597,-0.1221,-0.2384,0.0,0.0,0.0,0.0,0.0,0.0,0.0,0.0,0.0,0.0,0.0,0.0,0.0,0.0,0.0,0.0,0.0,0.0,0.0,0.0,0.0,0.0,0.0,0.0,0.0,0.0,0.0,0.0,0.0,0.0,0.0,0.0,0.0,0.0,0.0,0.0,0.0,0.0,0.0,0.0,0.0,0.0,0.0,0.0,0.0,0.0,0.0,0.0,0.0,0.0,0.0,0.0,0.0,0.0,0.0,0.0,0.0,0.0,0.0,0.0,0.0,0.0,0.0,0.0,0.0,0.0,0.0,0.0,0.0,0.0,0.0,0.0,0.0,0.0,0.0,0.0,0.0,0.0,0.0,0.0,0.0,0.0,0.0,0.0,0.0,0.0,0.0,0.0,0.0,0.0,0.0,0.0,0.0,0.0,0.0,0.0,0.0,0.0,0.0,0.0,0.0,0.0,0.0,-0.2782,-0.1374,-0.0151,0.0,-0.0051,-0.0152,-0.0451,-0.0988,-0.1888,-0.2892,0.0,0.0,0.0,0.0,0.0,0.0,0.0,0.0,0.0,0.0,0.0,0.0,0.0,0.0,0.0,0.0,0.0,0.0,0.0,0.0,0.0,0.0,0.0,0.0,0.0,0.0,0.0,0.0,0.0,0.0,0.0,0.0,0.0,0.0,0.0,0.0,0.0,0.0,0.0,0.0,0.0,0.0,0.0,0.0,0.0,0.0,0.0,0.0,0.0,0.0,0.0,0.0,0.0,0.0,0.0,0.0,0.0,0.0,0.0,0.0,0.0,0.0,0.0,0.0,0.0,0.0,0.0,0.0,0.0,0.0,0.0,0.0,0.0,0.0,0.0,0.0,0.0,0.0,0.0,0.0,0.0,0.0,0.0,0.0,0.0,0.0,0.0,0.0,0.0,0.0,0.0,0.0,0.0,0.0,0.0,0.0,0.0,0.0,0.0,0.0,0.0,0.0,-0.1881,-0.0828,-0.0101,0.0,0.0,0.0,-0.0353,-0.0895,-0.1608,-0.2804,0.0,0.0,0.0,0.0,0.0,0.0,0.0,0.0,0.0,0.0,0.0,0.0,0.0,0.0,0.0,0.0,0.0,0.0,0.0,0.0,0.0,0.0,0.0,0.0,0.0,0.0,0.0,0.0,0.0,0.0,0.0,0.0,0.0,0.0,0.0,0.0,0.0,0.0,0.0,0.0,0.0,0.0,0.0,0.0,0.0,0.0,0.0,0.0,0.0,0.0,0.0,0.0,0.0,0.0,0.0,0.0,0.0,0.0,0.0,0.0,0.0,0.0,0.0,0.0,0.0,0.0,0.0,0.0,0.0,0.0,0.0,0.0,0.0,0.0,0.0,0.0,0.0,0.0,0.0,0.0,0.0,0.0,0.0,0.0,0.0,0.0,0.0,0.0,0.0,0.0,0.0,0.0,0.0,0.0,0.0,0.0,0.0,0.0,0.0,0.0,0.0,0.0,-0.1558,-0.0497,-0.0052,0.0,0.0,0.0,-0.0653,-0.1462,-0.2384,-0.3307,0.0,0.0,0.0,0.0,0.0,0.0,0.0,0.0,0.0,0.0,0.0,0.0,0.0,0.0,0.0,0.0,0.0,0.0,0.0,0.0,0.0,0.0,0.0,0.0,0.0,0.0,0.0,0.0,0.0,0.0,0.0,0.0,0.0,0.0,0.0,0.0,0.0,0.0,0.0,0.0,0.0,0.0,0.0,0.0,0.0,0.0,0.0,0.0,0.0,0.0,0.0,0.0,0.0,0.0,0.0,0.0,0.0,0.0,0.0,0.0,0.0,0.0,0.0,0.0,0.0,0.0,0.0,0.0,0.0,0.0,0.0,0.0,0.0,0.0,0.0,0.0,0.0,0.0,0.0,0.0,0.0,0.0,0.0,0.0,0.0,0.0,0.0,0.0,0.0,0.0,0.0,0.0,0.0,0.0,0.0,0.0,0.0,0.0,0.0,0.0,0.0,0.0,-0.0987,0.0411,0.0,0.0368,0.0262,0.026,-0.0152,-0.0936,-0.2192,0.0,0.0,0.0,0.0,0.0,0.0,0.0,0.0,0.0,0.0,0.0,0.0,0.0,0.0,0.0,0.0,0.0,0.0,0.0,0.0,0.0,0.0,0.0,0.0,0.0,0.0,0.0,0.0,0.0,0.0,0.0,0.0,0.0,0.0,0.0,0.0,0.0,0.0,0.0,0.0,0.0,0.0,0.0,0.0,0.0,0.0,0.0,0.0,0.0,0.0,0.0,0.0,0.0,0.0,0.0,0.0,0.0,0.0,0.0,0.0,0.0,0.0,0.0,0.0,0.0,0.0,0.0,0.0,0.0,0.0,0.0,0.0,0.0,0.0,0.0,0.0,0.0,0.0,0.0,0.0,0.0,0.0,0.0,0.0,0.0,0.0,0.0,0.0,0.0,0.0,0.0,0.0,0.0,0.0,0.0,0.0,0.0,0.0,0.0,0.0,0.0,0.0,-0.2653,-0.0456,0.0949,0.0,0.0529,0.0367,0.0264,-0.0051,-0.0797,-0.2166,0.0,0.0,0.0,0.0,0.0,0.0,0.0,0.0,0.0,0.0,0.0,0.0,0.0,0.0,0.0,0.0,0.0,0.0,0.0,0.0,0.0,0.0,0.0,0.0,0.0,0.0,0.0,0.0,0.0,0.0,0.0,0.0,0.0,0.0,0.0,0.0,0.0,0.0,0.0,0.0,0.0,0.0,0.0,0.0,0.0,0.0,0.0,0.0,0.0,0.0,0.0,0.0,0.0,0.0,0.0,0.0,0.0,0.0,0.0,0.0,0.0,0.0,0.0,0.0,0.0,0.0,0.0,0.0,0.0,0.0,0.0,0.0,0.0,0.0,0.0,0.0,0.0,0.0,0.0,0.0,0.0,0.0,0.0,0.0,0.0,0.0,0.0,0.0,0.0,0.0,0.0,0.0,0.0,0.0,0.0,0.0,0.0,0.0,0.0,0.0,0.0,0.0,-0.2233,-0.0153,0.1073,0.0492,0.0431,0.0322,0.0055,-0.0417,-0.1202,0.0,0.0,0.0,0.0,0.0,0.0,0.0,0.0,0.0,0.0,0.0,0.0,0.0,0.0,0.0,0.0,0.0,0.0,0.0,0.0,0.0,0.0,0.0,0.0,0.0,0.0,0.0,0.0,0.0,0.0,0.0,0.0,0.0,0.0,0.0,0.0,0.0,0.0,0.0,0.0,0.0,0.0,0.0,0.0,0.0,0.0,0.0,0.0,0.0,0.0,0.0,0.0,0.0,0.0,0.0,0.0,0.0,0.0,0.0,0.0,0.0,0.0,0.0,0.0,0.0,0.0,0.0,0.0,0.0,0.0,0.0,0.0,0.0,0.0,0.0,0.0,0.0,0.0,0.0,0.0,0.0,0.0,0.0,0.0,0.0,0.0,0.0,0.0,0.0,0.0,0.0,0.0,0.0,0.0,0.0,0.0,0.0,0.0,0.0,0.0,0.0,0.0,0.0,-0.2074,0.0261,0.1694,0.1112,0.0877,0.0599,0.0328,0.0,-0.0518,-0.1203,0.0,0.0,0.0,0.0,0.0,0.0,0.0,0.0,0.0,0.0,0.0,0.0,0.0,0.0,0.0,0.0,0.0,0.0,0.0,0.0,0.0,0.0,0.0,0.0,0.0,0.0,0.0,0.0,0.0,0.0,0.0,0.0,0.0,0.0,0.0,0.0,0.0,0.0,0.0,0.0,0.0,0.0,0.0,0.0,0.0,0.0,0.0,0.0,0.0,0.0,0.0,0.0,0.0,0.0,0.0,0.0,0.0,0.0,0.0,0.0,0.0,0.0,0.0,0.0,0.0,0.0,0.0,0.0,0.0,0.0,0.0,0.0,0.0,0.0,0.0,0.0,0.0,0.0,0.0,0.0,0.0,0.0,0.0,0.0,0.0,0.0,0.0,0.0,0.0,0.0,0.0,0.0,0.0,0.0,0.0,0.0,0.0,0.0,0.0,0.0,0.0,0.0,-0.2211,-0.0159,0.1156,0.0672,0.0384,0.0054,-0.0276,-0.0433,-0.0792,-0.1395,0.0,0.0,0.0,0.0,0.0,0.0,0.0,0.0,0.0,0.0,0.0,0.0,0.0,0.0,0.0,0.0,0.0,0.0,0.0,0.0,0.0,0.0,0.0,0.0,0.0,0.0,0.0,0.0,0.0,0.0,0.0,0.0,0.0,0.0,0.0,0.0,0.0,0.0,0.0,0.0,0.0,0.0,0.0,0.0,0.0,0.0,0.0,0.0,0.0,0.0,0.0,0.0,0.0,0.0,0.0,0.0,0.0,0.0,0.0,0.0,0.0,0.0,0.0,0.0,0.0,0.0,0.0,0.0,0.0,0.0,0.0,0.0,0.0,0.0,0.0,0.0,0.0,0.0,0.0,0.0,0.0,0.0,0.0,0.0,0.0,0.0,0.0,0.0,0.0,0.0,0.0,0.0,0.0,0.0,0.0,0.0,0.0,0.0,0.0,0.0,0.0,0.0,-0.2516,-0.1058,-0.011,-0.0392,-0.0763,-0.103,-0.1343,-0.1362,-0.1658,-0.2404,0.0,0.0,0.0,0.0,0.0,0.0,0.0,0.0,0.0,0.0,0.0,0.0,0.0,0.0,0.0,0.0,0.0,0.0,0.0,0.0,0.0,0.0,0.0,0.0,0.0,0.0,0.0,0.0,0.0,0.0,0.0,0.0,0.0,0.0,0.0,0.0,0.0,0.0,0.0,0.0,0.0,0.0,0.0,0.0,0.0,0.0,0.0,0.0,0.0,0.0,0.0,0.0,0.0,0.0,0.0,0.0,0.0,0.0,0.0,0.0,-1.0193,-0.9953,0.0,0.0,0.0,0.0,0.0,0.0,0.0,0.0,0.0,0.0,0.0,0.0,0.0,0.0,0.0,0.0,0.0,0.0,0.0,0.0,0.0,0.0,0.0,0.0,0.0,0.0,0.0,0.0,0.0,0.0,0.0,0.0,0.0,0.0,0.0,0.0,0.0,0.0,0.0,0.0,-0.2819,-0.1177,-0.0223,-0.0729,-0.1058,-0.1335,-0.1682,-0.1672,-0.1765,-0.1959,-0.2221,0.0,0.0,0.0,0.0,0.0,0.0,0.0,0.0,0.0,0.0,0.0,0.0,0.0,0.0,0.0,0.0,0.0,0.0,0.0,0.0,0.0,0.0,0.0,0.0,0.0,0.0,0.0,0.0,0.0,0.0,0.0,0.0,0.0,0.0,0.0,0.0,0.0,0.0,0.0,0.0,0.0,0.0,0.0,0.0,0.0,0.0,0.0,0.0,0.0,0.0,0.0,0.0,0.0,0.0,0.0,0.0,0.0,0.0,0.0,-0.9006,-0.8833,0.0,0.0,0.0,0.0,0.0,0.0,0.0,0.0,0.0,0.0,0.0,0.0,0.0,0.0,0.0,0.0,0.0,0.0,0.0,0.0,0.0,0.0,0.0,0.0,0.0,0.0,0.0,0.0,0.0,0.0,0.0,0.0,0.0,0.0,0.0,0.0,0.0,0.0,0.0,0.0,-0.3315,-0.1889,-0.1009,-0.129,-0.1739,-0.202,-0.2244,-0.2355,-0.2514,-0.2658,-0.2656,0.0,0.0,0.0,0.0,0.0,0.0,0.0,0.0,0.0,0.0,0.0,0.0,0.0,0.0,0.0,0.0,0.0,0.0,0.0,0.0,0.0,0.0,0.0,0.0,0.0,0.0,0.0,0.0,0.0,0.0,0.0,0.0,0.0,0.0,0.0,0.0,0.0,0.0,0.0,0.0,0.0,0.0,0.0,0.0,0.0,0.0,0.0,0.0,0.0,0.0,0.0,0.0,0.0,-0.889,-0.8684,-0.8574,-0.8396,-0.8338,-0.8363,-0.7855,-0.7716,-0.7713,-0.7409,0.0,0.0,0.0,0.0,0.0,0.0,0.0,0.0,0.0,0.0,0.0,0.0,0.0,0.0,0.0,0.0,0.0,0.0,0.0,0.0,0.0,0.0,0.0,0.0,-0.3846,-0.3829,-0.4351,0.0,0.0,0.0,0.0,0.0,0.0,0.0,0.0,0.0,0.0,0.0,-0.3742,-0.2626,-0.181,-0.1867,-0.2377,-0.2717,-0.2717,-0.2941,-0.3161,-0.3435,-0.3153,-0.2794,0.0,0.0,0.0,0.0,0.0,0.0,0.0,0.0,0.0,0.0,0.0,0.0,0.0,0.0,0.0,0.0,0.0,0.0,0.0,0.0,0.0,0.0,0.0,0.0,0.0,0.0,0.0,0.0,0.0,0.0,0.0,0.0,-1.2368,-1.2052,0.0,0.0,0.0,0.0,0.0,0.0,0.0,0.0,0.0,0.0,0.0,0.0,0.0,-0.9229,-0.9047,-0.8705,-0.8635,-0.8919,-0.863,-0.8765,-0.9265,-0.8448,-0.8154,-0.8381,-0.7778,0.0,-0.7895,-0.7393,0.0,0.0,0.0,0.0,0.0,0.0,0.0,0.0,0.0,0.0,0.0,0.0,0.0,0.0,0.0,0.0,0.0,0.0,0.0,0.0,0.0,0.0,-0.2856,-0.3219,-0.2918,-0.2526,0.0,-0.3571,-0.432,-0.4056,-0.4216,0.0,0.0,0.0,0.0,0.0,0.0,0.0,-0.3606,-0.2588,-0.1932,-0.2226,-0.2575,-0.2807,-0.2807,-0.2807,-0.285,-0.2812,-0.258,-0.2105,-0.151,-0.112,0.0,0.0,0.0,0.0,0.0,0.0,0.0,0.0,0.0,0.0,0.0,0.0,0.0,0.0,0.0,0.0,0.0,0.0,0.0,0.0,0.0,0.0,0.0,0.0,0.0,0.0,0.0,0.0,0.0,-1.2409,-1.1767,-1.0647,-1.0863,-1.0969,0.0,0.0,0.0,0.0,0.0,0.0,0.0,0.0,0.0,-0.9642,-0.9049,-0.8856,-0.9049,-0.8465,-0.8371,-0.8738,-0.8213,-0.8189,-0.8555,-0.8133,-0.8014,-0.813,-0.7834,-0.7837,-0.7934,-0.7514,-0.7033,-0.6559,0.0,0.0,0.0,0.0,-0.6896,-0.6409,-0.6404,-0.6081,-0.5699,-0.5431,0.0,0.0,0.0,0.0,0.0,0.0,0.0,-0.3794,0.0,0.0,-0.2672,-0.299,-0.2815,-0.2575,-0.2617,-0.2914,-0.3079,0.0,-0.2891,-0.3245,-0.382,0.0,0.0,0.0,0.0,-0.2861,-0.3221,-0.2301,-0.1709,-0.2063,-0.2356,-0.2533,-0.2533,-0.2885,-0.2993,-0.2799,-0.2622,-0.2207,-0.1385,-0.1257,-0.1076,0.0,0.0,0.0,0.0,0.0,0.0,0.0,0.0,0.0,0.0,0.0,0.0,0.0,0.0,0.0,0.0,0.0,0.0,0.0,0.0,0.0,0.0,0.0,0.0,0.0,0.0,0.0,0.0,-1.1786,-1.0981,-0.9481,-0.9772,-0.9879,0.0,0.0,0.0,0.0,0.0,0.0,-0.9457,-0.8692,-0.848,-0.8913,-0.8533,-0.8455,-0.8755,-0.823,-0.8186,-0.8522,-0.7985,-0.7911,-0.8177,-0.7994,-0.7933,-0.7994,-0.7933,-0.7872,-0.7856,-0.7649,-0.7161,-0.6551,-0.7069,-0.6642,-0.5832,-0.6557,-0.6421,-0.5899,-0.6008,-0.5543,-0.4971,-0.4913,-0.4586,-0.418,-0.4022,0.0,0.0,0.0,0.0,-0.3177,-0.2869,-0.2684,-0.2601,-0.2643,-0.2628,-0.2559,-0.2659,-0.2405,-0.2202,0.0,-0.1945,-0.211,-0.288,0.0,0.0,0.0,0.0,-0.2396,-0.2885,-0.2061,-0.1551,-0.1909,-0.2088,-0.2207,-0.2207,-0.2683,-0.2915,-0.2724,-0.2723,-0.2306,-0.1414,-0.1398,-0.1153,-0.0629,0.0,0.0,0.0,0.0,0.0,0.0,0.0,0.0,0.0,0.0,0.0,0.0,0.0,0.0,0.0,0.0,0.0,0.0,0.0,0.0,0.0,0.0,0.0,0.0,0.0,0.0,0.0,0.0,0.0,-0.9821,-0.9341,0.0,0.0,0.0,0.0,-0.8484,-0.8011,-0.7756,-0.7723,-0.7689,-0.7526,-0.731,-0.7834,-0.7971,-0.7569,-0.7799,-0.8102,-0.8421,-0.805,-0.8233,-0.8854,-0.8177,-0.8058,-0.8369,-0.8058,-0.7872,-0.7861,-0.7741,-0.7329,-0.6774,-0.6666,-0.6208,-0.5616,-0.5668,-0.5673,-0.5566,-0.5334,-0.5048,-0.47,-0.4405,-0.3876,-0.3346,-0.3341,-0.307,0.0,0.0,-0.2322,-0.2247,-0.1992,-0.1944,-0.1952,-0.1924,-0.193,-0.1937,-0.2029,-0.2035,-0.2077,0.0,-0.2063,-0.211,-0.288,0.0,-0.314,-0.3709,-0.3108,-0.2584,-0.2704,-0.1994,-0.1602,-0.1972,-0.2034,-0.2034,-0.2034,-0.2034,-0.2142,-0.2409,-0.2407,-0.2093,-0.1415,-0.1413,-0.0948,-0.006,-0.0361,0.0,0.0,0.0,0.0,0.0,0.0,0.0,0.0,0.0,0.0,0.0,0.0,0.0,0.0,0.0,0.0,0.0,0.0,0.0,0.0,0.0,0.0,0.0,0.0,0.0,0.0,0.0,0.0,-0.9716,-0.9423,0.0,-0.8249,-0.8456,-0.8565,-0.8373,-0.7894,-0.7705,-0.8076,-0.8133,-0.8187,-0.8304,-0.8351,-0.8447,-0.8517,-0.8093,-0.818,-0.8735,-0.8366,-0.8488,-0.8915,-0.8427,-0.8305,-0.8369,-0.8058,-0.7872,-0.7867,-0.7585,-0.7226,-0.6798,-0.676,-0.6287,-0.5584,-0.5584,-0.568,-0.5673,-0.5374,-0.5016,-0.4652,-0.3897,-0.3472,-0.3238,-0.2769,-0.2583,-0.2404,-0.2145,-0.2026,-0.2029,-0.1958,-0.1958,-0.1952,-0.198,-0.1973,-0.1963,-0.1974,-0.1977,-0.2037,-0.2095,-0.2018,-0.2062,-0.2291,-0.2348,-0.2344,-0.2331,-0.2248,-0.2148,-0.1945,-0.1855,-0.1872,-0.1979,-0.1977,-0.1977,-0.1977,-0.2222,-0.2329,-0.2413,-0.2616,-0.2552,-0.2093,-0.1854,-0.1552,-0.1248,-0.1106,-0.1036,0.0,0.0,0.0,0.0,0.0,0.0,0.0,0.0,0.0,0.0,0.0,0.0,0.0,0.0,0.0,0.0,0.0,0.0,0.0,0.0,0.0,0.0,0.0,0.0,0.0,-1.0109,-0.9438,-0.9186,-0.9072,-0.8692,-0.7886,-0.8145,-0.8311,-0.816,-0.7777,-0.7713,-0.8169,-0.8281,-0.8435,-0.8567,-0.8579,-0.8706,-0.8941,-0.8193,-0.8138,-0.8915,-0.8427,-0.8488,-0.8915,-0.8552,-0.8247,-0.8061,-0.7689,-0.7441,-0.7197,-0.7116,-0.6888,-0.6489,-0.6695,-0.6458,-0.5981,-0.6064,-0.6035,-0.5977,-0.5348,-0.4957,-0.4547,-0.3781,-0.3351,-0.3114,-0.2651,-0.2353,-0.2179,-0.2029,-0.1976,-0.1985,-0.2024,-0.202,-0.2011,-0.2029,-0.2011,-0.1988,-0.1979,-0.1977,-0.1982,-0.2001,-0.1989,-0.1983,-0.2003,-0.1997,-0.1931,-0.1754,-0.1895,-0.1964,-0.1757,-0.1887,-0.2011,-0.1992,-0.1982,-0.1977,-0.1977,-0.2272,-0.2437,-0.2412,-0.2738,-0.2735,-0.2274,-0.2045,-0.1857,-0.1709,-0.1442,-0.1376,-0.1449,0.0,0.0,0.0,0.0,0.0,0.0,0.0,0.0,0.0,0.0,0.0,0.0,0.0,0.0,0.0,0.0,0.0,0.0,0.0,0.0,0.0,0.0,0.0,-0.9805,-0.9257,-0.8757,-0.8358,-0.8226,-0.7964,-0.7571,-0.7816,-0.7928,-0.7698,-0.7597,-0.7581,-0.7701,-0.8005,-0.8183,-0.8055,-0.8408,-0.8653,-0.8715,-0.7943,-0.8004,-0.8861,-0.818,-0.8244,-0.8867,-0.85,-0.8008,-0.7396,-0.7023,-0.653,-0.5923,-0.6326,-0.6249,-0.5974,-0.6489,-0.6688,-0.6672,-0.686,-0.6703,-0.6253,-0.5159,-0.463,-0.4316,-0.4011,-0.3455,-0.2969,-0.3015,-0.2523,-0.2023,-0.2054,-0.2126,-0.2126,-0.2126,-0.2127,-0.2127,-0.2128,-0.2042,-0.2014,-0.1987,-0.1981,-0.1982,-0.1983,-0.1983,-0.2,-0.2119,-0.2039,-0.203,-0.2059,-0.2063,0.0,-0.2061,-0.2036,-0.1955,-0.1955,-0.1993,-0.1977,-0.1977,-0.2252,-0.2412,-0.2412,-0.2714,-0.2577,-0.1948,-0.1917,-0.1738,-0.1298,-0.1415,-0.1534,-0.1829,0.0,0.0,0.0,0.0,0.0,0.0,0.0,0.0,0.0,0.0,0.0,0.0,0.0,0.0,0.0,0.0,0.0,0.0,0.0,0.0,0.0,-0.9816,-0.9043,-0.8733,-0.8027,-0.7601,-0.7877,-0.7617,-0.7455,-0.7641,-0.7845,-0.7909,-0.782,-0.7793,-0.7911,-0.8193,-0.8317,-0.8539,-0.8919,-0.8597,-0.8557,-0.8857,-0.7702,-0.7454,-0.8251,-0.7541,-0.7591,-0.8322,-0.7666,-0.7298,-0.7122,-0.655,-0.6231,-0.6043,-0.588,-0.5902,-0.6006,-0.6418,-0.6368,-0.6119,-0.5908,-0.5473,-0.4939,-0.4646,-0.4343,-0.4011,-0.3702,-0.3332,-0.2969,-0.2701,-0.2318,-0.1994,-0.2023,-0.2016,-0.2005,-0.2026,-0.2031,-0.2037,-0.2059,-0.2074,-0.2082,-0.2074,-0.209,-0.2112,-0.2134,-0.2121,-0.2162,-0.2133,-0.2057,-0.1983,-0.1715,-0.173,0.0,-0.1316,-0.1508,-0.1633,-0.1617,-0.1857,-0.1977,-0.1977,-0.2092,-0.2208,-0.239,-0.2512,-0.263,-0.262,-0.2201,-0.1887,-0.1679,-0.1977,-0.2108,0.0,0.0,0.0,0.0,0.0,0.0,0.0,0.0,0.0,0.0,0.0,0.0,0.0,0.0,0.0,0.0,0.0,0.0,0.0,0.0,0.0,0.0,-0.9161,-0.8432,-0.7923,-0.7388,-0.7199,-0.7612,-0.7414,-0.7405,-0.7755,-0.7834,-0.7872,-0.7872,-0.7872,-0.7994,-0.8183,-0.8183,-0.8485,-0.9095,-0.8311,-0.8213,-0.8934,-0.7278,-0.69,-0.7807,-0.7111,-0.7147,-0.7845,-0.7331,-0.6894,-0.6629,-0.5987,-0.5666,-0.5733,-0.5706,-0.5863,-0.6092,0.0,0.0,0.0,0.0,-0.538,-0.4798,-0.4589,-0.4283,-0.3962,-0.3772,-0.3458,-0.3027,-0.2816,-0.2429,-0.2038,-0.2067,-0.2064,-0.2054,-0.2071,-0.2076,-0.2083,-0.2114,-0.2125,-0.2128,-0.2128,-0.2142,-0.2228,-0.2178,-0.2177,0.0,-0.2127,-0.1988,-0.1854,-0.1784,-0.1588,-0.1383,-0.1297,-0.1417,-0.1537,-0.1525,-0.1831,-0.2014,-0.2014,-0.2126,0.0,0.0,0.0,-0.249,-0.2552,-0.2179,0.0,0.0,0.0,-0.1886,-0.1649,-0.175,0.0,0.0,-0.2738,-0.244,0.0,0.0,0.0,0.0,0.0,0.0,0.0,0.0,0.0,0.0,0.0,0.0,0.0,0.0,0.0,0.0,-0.8706,-0.8202,-0.7318,-0.7221,-0.726,-0.7491,-0.7471,-0.7568,-0.785,-0.7872,-0.7872,-0.7872,-0.7872,-0.7869,-0.7872,-0.7808,0.0,0.0,0.0,-0.7583,-0.8709,-0.6696,-0.6256,-0.7392,-0.6677,-0.669,-0.7367,-0.697,-0.6522,-0.6017,-0.5372,-0.5114,-0.5183,-0.5641,-0.5948,-0.618,-0.5948,-0.6194,-0.6628,-0.6324,-0.5815,-0.5245,-0.4687,0.0,0.0,-0.4125,-0.3676,-0.3105,-0.3086,-0.2634,-0.211,-0.2141,-0.2216,-0.2216,-0.2216,-0.2222,-0.2166,-0.2193,-0.2185,-0.2238,-0.2238,-0.224,-0.2243,-0.2243,-0.2194,-0.221,-0.221,-0.1931,-0.1796,-0.2158,-0.1588,-0.1233,-0.1639,-0.1603,-0.1578,-0.1578,0.0,0.0,-0.2128,-0.2294,-0.2341,-0.2029,-0.2287,-0.235,-0.2029,-0.1905,-0.1717,-0.1401,-0.1373,-0.1194,-0.0865,-0.1296,-0.1451,-0.1453,-0.1431,-0.1295,0.0,0.0,0.0,0.0,0.0,0.0,0.0,0.0,0.0,0.0,0.0,0.0,0.0,0.0,0.0,-0.8682,-0.8002,-0.7432,-0.721,-0.7239,-0.7353,-0.7502,-0.7426,-0.7475,-0.7858,-0.7872,-0.7872,-0.7872,-0.7872,-0.7811,-0.7508,-0.7258,-0.7133,-0.7255,-0.6582,-0.6469,-0.6922,-0.5741,-0.5441,-0.5989,-0.5284,0.0,-0.5798,-0.5341,-0.528,-0.5536,-0.5067,-0.4868,-0.4936,-0.5615,-0.6039,-0.628,-0.6172,-0.6067,-0.5886,-0.5567,-0.5173,-0.4759,-0.436,-0.4157,-0.4125,-0.4125,-0.3676,-0.3105,-0.3086,-0.2615,0.0,-0.211,-0.2118,-0.2118,-0.2118,-0.2154,-0.2193,-0.2199,-0.2233,-0.2264,-0.2264,-0.2282,-0.2298,-0.2298,-0.2285,-0.2273,-0.2273,-0.2182,-0.2075,-0.2146,-0.1546,-0.1206,-0.1572,-0.13,-0.123,-0.1554,-0.1874,-0.2128,-0.2128,-0.2123,-0.213,-0.209,-0.2181,-0.2183,-0.2093,-0.1785,-0.1605,-0.1555,-0.1224,-0.0896,-0.0564,-0.0638,-0.0714,-0.0793,-0.1408,-0.1472,0.0,0.0,0.0,0.0,0.0,0.0,0.0,0.0,0.0,0.0,0.0,-0.8977,-0.864,0.0,-0.8314,-0.7935,-0.7776,-0.7584,-0.7303,-0.7404,-0.7519,-0.7519,-0.7506,-0.7624,-0.7858,-0.7872,-0.7872,-0.7872,-0.7564,-0.7319,-0.7138,-0.6523,-0.6276,-0.6646,-0.5706,-0.5564,-0.6233,-0.5141,-0.4769,-0.5201,-0.4836,-0.481,-0.5109,-0.5075,-0.5147,-0.5381,-0.5377,-0.5376,-0.5376,-0.6113,-0.6423,-0.638,-0.653,-0.6225,-0.5743,-0.5624,-0.5233,-0.4746,-0.4581,-0.4374,-0.4217,-0.4217,-0.3888,-0.3431,-0.319,-0.2798,-0.2336,-0.2218,-0.2166,-0.2177,-0.2177,-0.2189,-0.2208,-0.2238,-0.2257,-0.2276,-0.2305,-0.2323,-0.2333,-0.2333,-0.2322,-0.2303,-0.2273,-0.2268,-0.2247,-0.2187,-0.136,-0.1015,-0.1601,-0.1324,-0.1186,-0.1582,-0.1911,-0.2175,-0.2175,-0.2175,-0.2182,-0.2131,-0.2161,-0.2171,-0.2155,-0.1649,-0.1324,-0.1333,-0.0777,-0.0428,-0.0217,-0.0434,-0.0582,-0.0589,-0.0945,-0.1016,0.0,0.0,0.0,0.0,0.0,0.0,0.0,0.0,-0.8513,-0.8951,-0.8298,-0.7548,-0.7097,-0.7463,-0.7718,-0.7299,-0.7669,-0.786,-0.7426,-0.7562,-0.7665,-0.7568,-0.766,-0.7771,-0.7861,-0.7808,-0.7686,-0.7686,-0.7072,-0.6644,-0.6521,-0.5724,-0.5483,-0.5912,-0.4882,-0.476,-0.5704,-0.4632,-0.431,-0.4822,-0.4687,-0.4693,-0.4839,-0.5044,-0.5247,-0.5312,-0.5579,-0.5778,-0.5912,-0.6449,-0.6585,-0.652,-0.6786,-0.6475,-0.596,-0.5889,-0.551,-0.4973,-0.4841,-0.4641,-0.4374,-0.4308,-0.4105,-0.3702,-0.3307,-0.2997,-0.2613,-0.2269,-0.2222,-0.2174,-0.2168,-0.2227,-0.223,-0.2279,-0.2276,-0.2204,-0.2322,-0.2333,-0.2333,-0.2333,-0.2328,-0.2307,-0.2184,-0.2261,-0.2263,-0.2232,-0.1382,-0.0961,-0.1712,-0.1424,-0.1346,-0.1683,-0.202,-0.2222,-0.2222,-0.216,-0.2096,-0.2096,-0.1992,-0.201,-0.201,-0.1348,-0.1006,-0.1006,-0.0363,0.0,0.0,-0.0293,-0.0516,-0.0446,-0.0374,-0.0374,-1.1797,-1.122,-1.0149,-0.9916,-0.9636,-0.9455,0.0,0.0,-0.827,-0.8453,-0.784,-0.7213,-0.7059,-0.7133,-0.7301,-0.7298,-0.7326,-0.7432,-0.7483,-0.7616,-0.7695,-0.7684,-0.7782,-0.7856,-0.7869,-0.7378,-0.7011,-0.7011,-0.6396,-0.5722,-0.517,-0.4986,-0.4744,-0.4196,-0.4123,-0.4094,-0.4233,-0.4162,-0.4354,-0.4822,-0.4424,-0.4453,-0.4772,-0.4507,-0.4575,-0.4841,-0.4906,-0.5309,-0.5912,-0.5647,-0.5917,-0.652,-0.652,-0.6514,-0.6372,-0.6044,-0.5845,-0.5711,-0.5041,-0.4772,-0.4707,-0.4374,-0.4105,-0.3709,-0.3414,-0.302,-0.2613,-0.2269,-0.2222,-0.2169,-0.2212,-0.2243,-0.2282,-0.2289,-0.2307,-0.2324,-0.2331,-0.2333,-0.2333,-0.2333,-0.2313,-0.2285,-0.2181,-0.2226,-0.22,-0.217,-0.1843,-0.1711,-0.2096,-0.1819,-0.1683,-0.2087,-0.2155,-0.2222,-0.2222,-0.1907,-0.1646,-0.1646,-0.1405,-0.1211,-0.1211,-0.0867,-0.0655,-0.0655,-0.0219,0.0,0.0,-0.0074,-0.0074,-0.0074,0.0304,0.0306,-1.1643,-1.1176,-1.0522,-1.0204,-0.9858,-0.9475,-0.9074,-0.8526,-0.8078,-0.8039,-0.7575,-0.7271,-0.7404,-0.762,-0.7754,-0.7709,-0.7844,-0.7887,-0.7665,-0.7668,-0.7725,-0.7793,-0.8027,-0.7936,-0.7378,-0.7258,-0.6952,-0.6337,-0.5722,-0.517,-0.4926,-0.4559,-0.4195,-0.3889,-0.3912,-0.4082,-0.4407,-0.4435,-0.4697,-0.5135,-0.5002,-0.5015,-0.5111,-0.4978,-0.5111,-0.5443,-0.4973,-0.5109,-0.5647,-0.585,-0.5781,-0.5646,-0.6654,-0.6721,-0.6182,-0.625,-0.6115,-0.5845,-0.5577,-0.5175,-0.4772,-0.464,-0.4372,-0.4042,-0.3726,-0.3345,-0.2955,-0.2613,-0.2361,-0.2173,-0.223,-0.2245,-0.2268,-0.2287,-0.23,-0.2313,-0.2329,-0.2464,-0.2523,-0.2308,-0.2426,-0.2535,-0.2224,-0.2208,-0.2189,-0.2227,-0.1894,-0.1762,-0.2157,-0.1818,-0.1683,-0.1818,-0.1818,-0.1756,-0.1566,-0.1439,-0.1311,-0.1321,-0.1204,-0.1073,-0.1073,-0.0797,-0.0584,-0.0584,-0.0219,0.0,0.0,0.0223,0.0375,0.038,0.0768,0.1081,-1.145,-1.1088,-1.0762,-1.0331,-0.9887,-0.9418,-0.8838,-0.8339,-0.8015,-0.7825,-0.7489,-0.7343,-0.7715,-0.7959,-0.8076,-0.8067,-0.8207,-0.8184,-0.7747,-0.776,-0.7837,-0.7947,-0.8349,-0.819,-0.7089,-0.7179,-0.6891,-0.5968,-0.5172,-0.475,-0.4646,-0.4219,-0.3981,-0.4123,-0.4125,-0.4365,-0.4863,-0.4865,-0.5122,-0.5513,-0.5448,-0.5448,-0.5513,-0.5312,-0.5312,-0.5444,-0.4908,-0.4842,-0.5112,-0.5649,-0.5444,-0.4906,-0.6248,-0.6382,-0.5912,-0.625,-0.625,-0.6048,-0.5912,-0.5577,-0.5041,-0.4839,-0.464,-0.4377,-0.3921,-0.3611,-0.3366,-0.2955,-0.2631,-0.237,-0.2362,-0.2372,-0.2321,-0.2273,-0.2362,-0.245,-0.2462,-0.2592,-0.2644,-0.2492,-0.2541,-0.2514,-0.2274,-0.2207,-0.2202,-0.2172,-0.1964,-0.1893,-0.2156,-0.1953,-0.175,-0.1616,-0.1621,-0.1496,-0.1099,-0.0969,-0.0908,-0.0916,-0.0857,-0.0791,-0.0791,-0.0581,-0.0438,-0.0438,-0.0146,0.0074,0.0149,0.0449,0.0682,0.0771,0.1238,0.1558,-1.1496,-1.0899,-1.0574,-0.997,-0.9375,-0.8866,-0.8728,-0.8417,-0.813,-0.7843,-0.7559,-0.7388,-0.7729,-0.7786,-0.787,-0.8127,-0.823,-0.8113,-0.776,-0.7937,-0.807,-0.8008,-0.8632,-0.859,-0.7339,-0.7011,-0.6644,-0.5968,-0.4989,-0.4281,-0.4029,-0.4031,-0.4187,-0.4636,-0.4701,-0.4863,-0.5263,-0.5263,-0.5499,-0.5912,-0.558,-0.558,-0.5845,-0.5175,-0.464,-0.4374,-0.4308,-0.4308,-0.4308,-0.4374,-0.4507,-0.4772,-0.4841,-0.5309,-0.5912,-0.5912,-0.6182,-0.6453,-0.6048,-0.5912,-0.5778,-0.5041,-0.4772,-0.4651,-0.4033,-0.3777,-0.3709,-0.3365,-0.3025,-0.2675,-0.2707,-0.275,-0.2664,-0.2316,-0.2576,-0.2833,-0.2798,-0.2505,-0.2424,-0.2742,-0.2455,-0.2236,-0.2205,-0.2224,-0.2234,-0.2203,-0.2199,-0.2188,-0.2226,-0.2222,-0.202,-0.1616,-0.1567,-0.1443,-0.11,-0.0775,-0.05,-0.0501,-0.0217,0.0,0.0,0.0,0.0,0.0,0.0,0.0223,0.0595,0.0609,0.0848,0.1311,0.1718,0.1649,-1.1623,-1.0802,-1.0033,-0.9871,-0.9286,-0.8725,-0.8517,-0.8193,-0.7872,-0.7671,-0.7559,-0.7581,-0.7772,-0.8199,-0.8433,-0.8206,-0.8425,-0.8392,-0.7771,-0.7826,-0.801,-0.8127,-0.8642,-0.86,-0.7752,-0.7784,-0.7439,-0.634,-0.5534,-0.5077,-0.4978,-0.4645,-0.4555,-0.4708,-0.4899,-0.5257,-0.5597,-0.5664,-0.5835,-0.6317,-0.6185,-0.5917,-0.558,-0.5312,-0.4844,-0.4308,-0.4308,-0.4308,-0.4308,-0.4844,-0.4777,-0.4507,-0.5243,-0.5376,-0.5242,-0.5711,-0.5981,-0.6115,-0.5979,-0.578,-0.5513,-0.4975,-0.464,-0.4445,-0.4196,-0.3998,-0.3794,-0.3659,-0.332,-0.3052,-0.3067,-0.2974,-0.281,-0.2694,-0.2576,-0.2518,-0.2507,-0.2541,-0.2513,-0.2453,-0.2438,-0.2427,-0.2228,-0.2169,-0.2172,-0.2232,-0.2213,-0.2189,-0.2226,-0.1953,-0.1689,-0.1296,-0.1028,-0.0762,-0.0423,-0.0214,-0.0144,-0.0145,-0.0073,0.0,0.0,0.0,0.0,0.0,0.0,0.0225,0.061,0.0922,0.1317,0.1718,0.1803,0.1807,-1.1482,-1.063,-0.9761,-0.9541,-0.906,-0.8549,-0.8402,-0.8076,-0.7755,-0.761,-0.7764,-0.7989,-0.8298,-0.8714,-0.8912,-0.8639,-0.8615,-0.8505,-0.7957,-0.7944,-0.8064,-0.842,-0.8639,-0.8597,0.0,-0.821,-0.7822,-0.639,-0.5888,-0.5634,-0.544,-0.5105,-0.4949,-0.5106,-0.5365,-0.5652,-0.6037,-0.6039,-0.6199,-0.652,-0.652,-0.6185,-0.558,-0.5448,-0.5044,-0.4441,-0.4374,-0.4308,-0.4308,-0.4844,-0.471,-0.4374,-0.5044,-0.5243,-0.5245,-0.561,-0.6005,-0.6246,-0.5979,-0.578,-0.5513,-0.4975,-0.464,-0.4441,-0.4307,-0.4172,-0.3969,-0.3969,-0.3701,-0.3442,-0.349,-0.3261,-0.3024,-0.2922,-0.28,-0.2663,-0.2507,-0.2612,-0.2723,-0.2453,-0.2439,-0.2431,-0.2242,-0.2254,-0.2262,-0.2262,-0.2245,-0.2221,-0.2191,-0.1837,-0.15,-0.1106,-0.0765,-0.0351,0.0,0.0,0.0,0.0,0.0,0.0,0.0,0.0,0.0,0.0,0.015,0.0456,0.0848,0.1162,0.1481,0.1886,0.1728,0.1571,-1.1059,-1.0373,-0.9596,-0.9047,-0.8716,-0.8477,-0.8228,-0.8028,-0.7798,-0.7806,-0.8187,-0.8678,0.0,0.0,-0.9287,-0.9243,-0.8787,-0.8384,-0.8196,-0.8119,-0.8254,0.0,0.0,0.0,0.0,0.0,-0.7734,-0.6168,-0.6049,-0.5872,-0.5457,-0.5336,-0.5503,-0.591,-0.5912,-0.6115,-0.652,-0.652,-0.652,-0.652,-0.652,-0.6317,-0.5912,-0.558,-0.5178,-0.4772,-0.4441,-0.4308,-0.4308,-0.4308,-0.4308,-0.4308,-0.4308,-0.491,-0.5789,-0.5602,-0.6122,-0.6851,-0.6118,-0.5915,-0.5778,-0.5041,-0.4774,-0.4707,-0.4374,-0.4308,-0.4308,-0.4308,-0.4038,-0.3848,-0.3905,-0.368,-0.3306,-0.2996,-0.3179,-0.3341,-0.2868,-0.2858,-0.2847,-0.2812,-0.2458,-0.218,-0.218,-0.2274,-0.2293,-0.2293,-0.2292,-0.228,-0.2179,-0.1804,-0.1453,-0.1122,-0.071,-0.0358,0.0,0.0,0.0,0.0,0.0,-0.0073,-0.0073,-0.0074,0.0,0.0,0.0381,0.0771,0.1235,0.125,0.1492,0.1886,0.1414,0.1021,-1.0248,-0.9625,-0.9103,-0.8937,-0.8795,-0.8571,-0.8372,-0.8168,-0.7901,-0.7766,-0.8315,-0.8791,-0.8736,-0.9559,-0.9912,-0.8995,-0.8966,-0.8806,-0.7957,-0.7895,0.0,-0.8319,0.0,-0.8317,-0.8008,-0.8221,-0.79,-0.6646,-0.6462,-0.6578,-0.6769,-0.6113,-0.5824,-0.5912,-0.6183,-0.6386,-0.652,-0.652,-0.652,-0.652,-0.652,-0.6317,-0.5912,-0.558,-0.5178,-0.4772,-0.4441,-0.4308,-0.4308,-0.4308,-0.4308,-0.4308,-0.4308,-0.4441,-0.4784,-0.533,-0.5649,-0.5858,-0.5985,-0.5831,-0.5379,-0.4641,-0.4441,-0.4441,-0.4307,-0.4308,-0.4308,-0.4308,-0.4239,-0.4128,-0.3952,-0.3636,-0.3244,-0.2958,-0.2745,-0.2658,-0.2863,-0.2626,-0.2472,-0.2842,-0.2582,-0.231,-0.231,-0.2317,-0.2322,-0.2322,-0.2304,-0.228,-0.2179,-0.1609,-0.1193,-0.1138,-0.05,-0.0072,0.0,0.0,-0.0146,-0.0438,-0.0438,-0.0586,-0.0887,-0.0594,-0.045,-0.0458,-0.0077,0.0387,0.0782,0.0784,0.1021,0.1414,0.1021,0.0707,-0.9957,-0.9429,-0.8885,-0.8885,-0.8775,-0.8573,-0.8483,-0.8145,-0.7933,-0.801,-0.8476,-0.8857,-0.886,-0.9453,-0.9654,-0.8868,-0.8739,-0.8581,-0.8271,-0.8013,-0.8091,0.0,-0.8555,0.0,-0.8119,-0.8403,-0.8152,-0.7198,-0.6949,-0.6884,-0.6964,-0.6423,-0.6182,-0.6182,-0.6386,-0.652,-0.652,-0.652,-0.652,-0.652,-0.652,-0.6386,-0.6115,-0.5647,-0.5245,-0.5042,-0.4508,-0.4308,-0.4308,-0.4308,-0.4308,-0.4309,-0.4741,-0.4801,-0.4859,-0.5815,-0.6004,-0.5917,-0.6065,-0.5971,-0.5626,-0.4988,-0.4642,-0.4507,-0.4507,-0.4459,-0.4348,-0.4348,-0.423,-0.4064,-0.3941,-0.3536,-0.3056,-0.2903,-0.2829,-0.2814,-0.2668,-0.2726,-0.2718,-0.2664,-0.2467,-0.2333,-0.2333,-0.2333,-0.2333,-0.2333,-0.232,-0.2231,-0.2071,-0.1491,-0.1138,-0.1153,-0.0433,-0.0072,-0.0219,-0.0292,-0.0438,-0.0803,-0.088,-0.0885,-0.0966,-0.0751,-0.0533,-0.0308,0.0078,0.039,0.0628,0.0628,0.0707,0.1021,0.055,0.0314,-0.9928,-0.9478,-0.8885,-0.8885,-0.8712,-0.8546,-0.851,-0.8173,-0.797,-0.83,-0.8645,-0.8943,-0.9203,-0.9165,-0.9013,-0.886,-0.8337,-0.8203,-0.8757,-0.8325,-0.8258,-0.9095,-0.8844,-0.8561,-0.843,-0.8654,-0.855,-0.7778,-0.7476,-0.7055,-0.6579,-0.651,-0.6508,-0.652,-0.652,-0.652,-0.652,-0.652,-0.6453,-0.6453,-0.6453,-0.6453,-0.6386,-0.5716,-0.5381,-0.5381,-0.4642,-0.4374,-0.4374,-0.4308,-0.4307,-0.4447,-0.5255,-0.5517,-0.5489,-0.6549,-0.6749,-0.655,-0.6349,-0.6247,-0.6094,-0.5539,-0.5117,-0.4786,-0.4786,-0.4632,-0.441,-0.441,-0.4169,-0.3868,-0.3921,-0.3361,-0.2798,-0.2834,-0.3136,-0.3209,-0.2552,-0.2916,-0.3209,-0.2478,-0.2333,-0.2333,-0.2333,-0.226,-0.226,-0.226,-0.2187,-0.2041,-0.1822,-0.1372,-0.1081,-0.1094,-0.0511,-0.0219,-0.0584,-0.0657,-0.0876,-0.1244,-0.1256,-0.1117,-0.0747,-0.0687,-0.0463,-0.0077,0.0312,0.055,0.055,0.055,0.055,0.055,0.0157,0.0,-0.9577,-0.9234,-0.8885,-0.8885,-0.8881,-0.8801,-0.8696,-0.8492,0.0,-0.8314,-0.8661,-0.9044,-0.916,-0.9296,-0.9331,-0.9166,-0.8711,-0.8454,-0.8578,-0.827,-0.8172,0.0,-0.86,-0.8564,-0.8439,-0.8908,-0.8802,-0.7778,-0.7739,-0.7522,-0.6913,-0.6512,-0.6376,-0.6518,-0.652,-0.652,-0.652,-0.652,-0.6317,-0.5981,-0.5981,-0.5981,-0.5981,-0.558,-0.5381,-0.5381,-0.4908,0.0,-0.4707,-0.4441,-0.4441,-0.478,-0.5389,-0.5411,-0.5218,-0.6428,-0.6647,-0.6283,-0.651,-0.6597,-0.6369,-0.5674,-0.5151,-0.4855,-0.4855,-0.4695,-0.4467,-0.4467,-0.4198,-0.3868,-0.3564,-0.3146,-0.2726,-0.2471,-0.2698,-0.299,-0.2843,-0.2916,-0.2843,-0.2405,-0.2333,-0.2333,-0.2333,-0.2041,-0.1968,-0.226,-0.1751,-0.1459,-0.175,-0.1456,-0.1092,-0.0729,-0.0584,-0.0511,-0.0584,-0.0876,-0.1246,-0.1703,-0.1707,-0.165,-0.1609,-0.1309,-0.093,-0.047,-0.0078,0.0079,0.0079,0.0079,0.0079,0.0079,0.0,0.0,-0.9828,-0.9495,-0.9103,-0.8937,-0.8885,-0.8866,-0.8728,0.0,0.0,0.0,-0.8554,-0.8704,-0.8767,-0.8861,-0.8881,-0.8681,-0.8499,-0.844,-0.875,-0.8367,-0.8321,-0.8809,-0.8907,-0.8949,-0.8873,-0.9602,-0.9564,-0.846,-0.8301,-0.7802,-0.6782,-0.6546,-0.6408,-0.652,-0.652,-0.652,-0.652,-0.652,-0.6386,-0.6183,-0.6183,-0.6183,-0.6183,-0.5847,-0.558,-0.5381,-0.4975,-0.4707,-0.4507,-0.4374,-0.4662,-0.5305,-0.593,-0.6099,-0.6052,-0.7142,-0.7121,-0.651,-0.6655,-0.6698,-0.6568,-0.6094,-0.5635,-0.5218,-0.5218,-0.4877,-0.453,-0.453,-0.4127,-0.3655,-0.3463,-0.3034,-0.2532,-0.2329,-0.2467,-0.2672,-0.2887,-0.2728,-0.2507,-0.2308,-0.2311,-0.2239,-0.2094,-0.1878,-0.1878,-0.2022,-0.1589,-0.1303,-0.1458,-0.1305,-0.1087,-0.0948,-0.073,-0.0803,-0.1167,-0.1394,-0.1699,-0.208,-0.2182,-0.1981,-0.1542,-0.1319,-0.0937,-0.0314,-0.0079,0.0,0.0,0.0,0.0,0.0,0.0,0.0,-1.0337,-0.9883,-0.9434,-0.9103,-0.8992,-0.8977,-0.8728,-0.8629,0.0,-0.8496,-0.8436,-0.8424,-0.8451,-0.8369,-0.8261,-0.8259,-0.8205,-0.8267,-0.8863,-0.8472,-0.835,-0.9053,-0.924,0.0,-0.929,-1.0128,-1.0231,-0.9157,-0.8579,-0.7751,-0.6554,-0.651,-0.652,-0.652,-0.652,-0.652,-0.652,-0.6386,-0.6386,-0.6386,-0.6183,-0.625,-0.6384,-0.5914,-0.5579,-0.5513,-0.4975,-0.4708,-0.4508,-0.4374,-0.4882,-0.5769,-0.6543,-0.6869,-0.7047,-0.7794,-0.7616,-0.6983,-0.6828,-0.6754,-0.6723,-0.6541,-0.6081,-0.5537,-0.5524,-0.513,-0.4593,-0.4593,-0.405,-0.3501,-0.3501,-0.2916,-0.2331,-0.2398,-0.2379,-0.2431,-0.2779,-0.2543,-0.2182,-0.2277,-0.2209,-0.2067,-0.1853,-0.1639,-0.1568,-0.1782,-0.1286,-0.1005,-0.1301,-0.1079,-0.1078,-0.1307,-0.1017,-0.1091,-0.1749,-0.1844,-0.2008,-0.2238,-0.2286,-0.1931,-0.1084,-0.1094,-0.0786,0.0,0.0,0.0,0.0,0.0,0.0,0.0,0.0,0.0,-1.0912,-1.0333,-0.9706,-0.9434,-0.9379,-0.9252,-0.8784,0.0,-0.8603,-0.8496,-0.8436,-0.8448,-0.8554,-0.822,-0.8112,-0.8472,-0.8117,-0.7978,-0.8663,-0.8408,-0.8259,-0.8459,0.0,0.0,-0.9128,-1.0061,-1.0317,-0.9429,-0.8294,-0.7199,-0.6333,-0.6408,-0.652,-0.652,-0.652,-0.652,-0.652,-0.6115,-0.5979,-0.5979,-0.5309,-0.5309,-0.5912,-0.5242,-0.5242,-0.5845,-0.5108,-0.4975,0.0,-0.4575,-0.5018,-0.6113,-0.6613,-0.7047,-0.7489,-0.7963,-0.7847,-0.7454,-0.7012,-0.6912,-0.6883,-0.6635,-0.6204,-0.568,-0.5617,-0.5203,-0.4655,-0.4655,-0.4152,-0.3501,-0.3501,-0.2916,-0.2398,-0.2729,-0.2578,-0.2425,-0.2745,-0.2456,-0.2176,-0.2178,-0.1968,-0.1757,-0.1687,-0.1125,-0.0914,-0.1616,-0.0781,-0.0499,-0.1551,-0.0995,-0.0859,-0.1577,-0.1649,-0.1657,-0.182,-0.2139,-0.224,-0.1888,-0.1837,-0.1473,-0.0705,-0.0628,-0.0471,0.0,0.0,0.0,0.0,0.0,0.0,0.0,0.0,0.0,-1.1526,-1.0803,-0.9981,-0.9544,-0.9362,-0.9161,-0.8641,0.0,-0.8474,-0.8332,-0.8363,-0.8454,-0.8565,-0.836,-0.8233,-0.8478,-0.8215,-0.8145,-0.8509,-0.8378,-0.8427,-0.9063,-0.9325,-0.958,-0.9833,-1.038,-1.0363,-0.9641,-0.8621,-0.7761,-0.7055,-0.67,-0.652,-0.652,-0.652,-0.652,-0.652,-0.6317,-0.625,-0.625,-0.5713,-0.5713,-0.625,-0.5713,-0.5512,-0.558,-0.5312,-0.522,0.0,-0.5138,-0.5869,-0.7078,-0.7443,-0.7993,-0.8519,-0.8208,-0.7965,-0.7762,-0.7151,-0.6925,-0.6833,-0.643,-0.6083,-0.5759,-0.5643,-0.5212,-0.4664,-0.4371,-0.3937,-0.3428,-0.3209,-0.2756,-0.2305,-0.2507,-0.2404,-0.2302,-0.2428,-0.2341,-0.2196,-0.2215,-0.1941,-0.1594,-0.1386,-0.1109,-0.097,-0.1317,-0.0981,-0.0917,-0.1614,-0.142,-0.136,-0.1646,-0.1718,-0.1804,-0.2135,-0.2313,-0.2343,-0.2219,-0.2014,-0.1641,-0.1021,-0.0786,-0.0393,0.0,0.0,0.0,0.0,0.0,0.0,0.0,0.0,0.0,-1.1889,-1.1086,-1.0185,-0.9626,-0.9373,-0.9109,0.0,0.0,-0.8333,-0.8169,-0.828,-0.8399,-0.8516,-0.8377,-0.8247,-0.8348,-0.8156,-0.8089,-0.8375,-0.8314,-0.8529,-0.9252,-0.9449,-0.9761,-1.0156,-1.0506,-1.0518,-1.005,-0.9033,-0.8297,-0.7846,-0.6987,-0.652,-0.652,-0.652,-0.652,-0.652,-0.6386,-0.6386,-0.652,-0.5982,-0.5982,-0.6453,-0.5982,-0.5834,-0.595,-0.546,-0.5477,0.0,-0.5712,-0.6467,-0.7832,-0.805,-0.8486,-0.9016,-0.8367,-0.803,-0.7824,-0.7181,-0.6964,-0.6878,-0.6297,-0.6008,-0.5731,-0.5394,-0.4941,-0.4445,-0.4153,-0.3717,-0.3209,-0.2843,-0.2529,-0.2291,-0.2291,-0.2245,-0.22,-0.22,-0.2176,-0.2228,-0.2183,-0.1845,-0.1435,-0.1298,-0.1093,-0.1025,-0.123,-0.1175,-0.1253,-0.1803,-0.1754,-0.1697,-0.1839,-0.1852,-0.2025,-0.2373,-0.2414,-0.237,-0.2313,-0.1951,-0.1571,-0.11,-0.0628,-0.0314,0.0,0.0,0.0,0.0,0.0,0.0,0.0,0.0,0.0,-1.1972,-1.1187,-1.0239,-0.9892,-0.9545,-0.9179,0.0,-0.8452,-0.8278,-0.8157,-0.8152,-0.8274,-0.8397,-0.7997,-0.783,-0.8334,-0.7896,-0.7619,-0.8054,-0.8301,-0.8548,-0.8613,-0.9229,-0.9749,-0.9958,-1.0432,-1.0721,-1.0721,-0.9386,-0.8587,-0.8587,-0.7254,-0.652,-0.652,-0.652,-0.652,-0.652,-0.6115,-0.6115,-0.652,-0.5783,-0.5783,-0.6453,-0.5716,-0.6072,-0.7182,-0.5626,-0.5893,0.0,-0.6155,-0.666,-0.8169,-0.812,-0.8343,-0.8657,-0.8225,-0.7858,-0.7566,-0.7131,-0.6988,-0.6902,-0.6455,-0.6053,-0.5667,-0.4805,-0.4325,-0.408,-0.4079,-0.3498,-0.2843,-0.2405,-0.2311,-0.2291,-0.2291,-0.2245,-0.22,-0.22,-0.2176,-0.2222,-0.2223,-0.1616,-0.1212,-0.1549,-0.101,-0.0741,-0.1481,-0.1295,-0.1368,-0.2092,-0.1841,-0.1788,-0.2132,-0.2255,-0.2315,-0.2373,-0.2433,-0.2314,-0.1851,-0.1483,-0.11,-0.0628,-0.0236,0.0,0.0,0.0,0.0,0.0,0.0,0.0,0.0,0.0,0.0,-1.1972,-1.1191,-1.0247,-0.9896,-0.9472,-0.9056,-0.8713,-0.8313,-0.8068,-0.8118,-0.8147,-0.8149,-0.8272,-0.8132,-0.8025,-0.8207,-0.7964,-0.8018,-0.8599,-0.8608,-0.883,-0.9677,-1.0161,-1.0355,-1.0367,-1.0563,-1.0721,-1.0721,-0.9851,-0.9117,-0.8653,-0.7717,-0.6985,-0.652,-0.652,-0.652,-0.652,-0.6386,-0.6386,-0.652,-0.5982,-0.5982,-0.6453,-0.5716,-0.5665,-0.6034,-0.5265,-0.5725,-0.6949,-0.666,-0.7377,-0.8825,-0.8598,-0.8554,-0.8657,-0.8003,-0.7711,-0.7566,-0.7133,-0.6845,-0.6553,-0.6089,-0.5665,-0.5242,-0.4496,-0.4138,-0.4007,-0.3426,-0.2915,-0.2478,-0.2333,-0.2311,-0.2286,-0.2264,-0.2229,-0.2194,-0.2174,-0.2229,-0.2222,-0.2222,-0.1818,-0.1481,-0.1616,-0.1414,-0.1346,-0.1548,-0.1771,-0.1915,-0.2159,-0.2062,-0.2099,-0.226,-0.2315,-0.2358,-0.2376,-0.2434,-0.24,-0.2264,-0.196,-0.1492,-0.11,-0.0628,-0.0314,0.0,0.0,0.0,0.0,0.0,0.0,0.0,0.0,0.0,-1.1895,-1.1039,-1.0016,-0.9721,-0.93,-0.8929,-0.863,-0.8181,-0.788,-0.7944,-0.7921,-0.7959,-0.8076,-0.8147,-0.8225,-0.8196,-0.8186,-0.8389,-0.8714,-0.883,-0.9249,-1.0215,-1.048,-1.0575,-1.0426,-1.0599,-1.0721,-1.0721,-1.0003,-0.9399,-0.9047,-0.801,-0.7346,-0.7121,-0.6721,-0.652,-0.652,-0.652,-0.652,-0.652,-0.625,-0.625,-0.6453,-0.6051,-0.6013,-0.6403,-0.585,-0.6395,0.0,-0.7454,-0.8096,-0.9177,-0.88,-0.8584,-0.844,-0.7783,-0.7494,-0.7349,-0.7063,-0.6773,-0.6339,-0.5899,-0.5247,-0.4448,-0.4009,-0.379,-0.3498,-0.2843,-0.2479,-0.2333,-0.2333,-0.2311,-0.2289,-0.228,-0.2238,-0.2198,-0.2191,-0.2171,-0.2222,-0.2222,-0.202,-0.1818,-0.1818,-0.1818,-0.1818,-0.1818,-0.2035,-0.2185,-0.2189,-0.2222,-0.2261,-0.2303,-0.236,-0.2395,-0.2395,-0.2451,-0.2494,-0.2513,-0.2121,-0.1728,-0.1335,-0.0864,-0.0393,0.0,0.0,0.0,0.0,0.0,0.0,0.0,0.0,0.0,0.0,-1.0849,-0.97,-0.9396,-0.9095,-0.8793,-0.8491,-0.8119,0.0,-0.7736,-0.7714,-0.7744,-0.785,-0.8215,-0.8349,-0.8118,-0.85,-0.8723,-0.8503,-0.911,-0.9702,-1.0218,-1.0412,-1.0439,-1.0307,-1.0541,-1.0707,-1.0721,-0.9936,-0.952,-0.9706,-0.8283,-0.7685,-0.8056,-0.7123,-0.6587,-0.652,-0.652,-0.6518,-0.6577,-0.6516,-0.6587,-0.6587,-0.6594,-0.7071,-0.79,-0.7055,-0.7781,-0.9457,-0.8525,-0.8644,-0.9318,-0.8854,-0.844,-0.808,-0.7713,-0.7351,-0.699,-0.699,-0.6702,-0.6266,-0.5829,-0.4664,-0.3428,-0.3501,-0.3209,-0.277,-0.2405,-0.2333,-0.2333,-0.2333,-0.2313,-0.2299,-0.2321,-0.2192,-0.2141,-0.2164,-0.2126,-0.2155,-0.2155,-0.2155,-0.2222,-0.2155,-0.2158,-0.2228,-0.2228,-0.2232,-0.2188,-0.2174,-0.2181,-0.2203,-0.2333,-0.239,-0.2425,-0.2429,-0.2482,-0.2515,-0.2515,-0.2121,-0.1728,-0.1335,-0.0864,-0.0471,0.0,0.0,0.0,0.0,0.0,0.0,0.0,0.0,0.0,-1.1719,0.0,-0.97,-0.9396,-0.9095,-0.8793,0.0,-0.8119,-0.7864,-0.7837,-0.7831,-0.7839,-0.7867,-0.8408,-0.8692,-0.8194,-0.8604,-0.9007,-0.9227,-0.9692,-1.0042,-1.0077,-1.0099,-1.022,-1.0446,-1.0504,-1.0595,-1.0711,-1.0488,-1.0217,-0.9712,-0.9353,-0.8823,-0.8123,-0.7858,-0.7455,-0.6918,-0.6652,-0.6685,-0.7142,-0.6949,-0.7121,-0.7658,-0.7199,-0.7248,-0.7519,-0.7139,-0.7591,-0.8591,-0.8351,-0.8715,-0.9318,-0.8571,-0.8152,-0.8008,-0.7353,-0.7063,-0.699,-0.6629,-0.6266,-0.5827,-0.5173,-0.4081,-0.3063,-0.3428,-0.299,-0.2405,-0.2333,-0.2333,-0.2333,-0.2333,-0.2328,-0.2313,-0.2204,-0.2039,-0.1807,-0.1775,-0.1759,-0.1683,-0.1414,-0.1818,-0.2087,-0.1818,-0.1987,-0.2224,-0.2224,-0.2262,-0.2296,-0.231,-0.2312,-0.2335,-0.2395,-0.2415,-0.2442,-0.2489,-0.2506,-0.2515,-0.2515,-0.2435,-0.2043,-0.1335,-0.1178,-0.0786,0.0,0.0,0.0,0.0,0.0,0.0,0.0,0.0,0.0,-1.1827,-1.0849,-0.97,-0.9396,-0.9217,-0.8976,-0.8491,-0.8244,-0.8044,-0.7865,-0.7793,-0.7809,-0.7861,-0.8324,-0.8637,-0.8424,-0.8905,-0.938,-0.9787,-0.9953,-1.0063,-1.0236,-1.0193,-1.0225,-1.0487,-1.0555,-1.0602,-1.0616,-1.0616,-1.0481,-1.0083,-0.9626,-0.926,-0.9056,-0.8259,-0.7658,-0.7254,-0.7257,-0.7296,-0.7375,-0.7495,-0.7612,-0.7863,-0.7582,-0.7652,-0.7976,-0.7836,-0.8137,-0.8745,-0.878,-0.9008,-0.9267,-0.8395,-0.808,-0.8008,-0.728,-0.6918,-0.6702,-0.6484,-0.5901,-0.5173,-0.4373,-0.3573,-0.2916,-0.3136,-0.277,-0.2333,-0.2333,-0.2333,-0.2333,-0.2333,-0.2323,-0.2305,-0.2274,-0.1964,-0.1662,-0.1637,-0.1623,-0.1481,-0.1144,-0.1818,-0.2231,-0.1712,-0.2074,-0.2378,-0.2279,-0.2301,-0.2328,-0.2369,-0.2374,-0.2397,-0.2459,-0.2465,-0.2478,-0.2512,-0.2515,-0.2515,-0.2515,-0.2515,-0.2121,-0.1335,-0.1335,-0.0864,0.0,0.0,0.0,0.0,0.0,0.0,0.0,0.0,0.0,-1.2101,-1.0989,-0.9937,-0.9492,-0.9428,-0.9246,-0.8702,-0.8581,-0.8436,-0.7927,-0.7788,-0.7818,-0.7914,-0.8283,-0.8673,-0.8751,-0.9179,-0.9623,-0.998,-0.99,-0.9903,-1.028,-1.0248,-1.027,-1.0477,-1.0609,-1.0633,-1.0504,-1.0514,-1.0507,-1.0463,-0.9639,-0.9434,-1.0122,-0.8668,-0.7808,-0.7742,-0.789,-0.7841,-0.7658,-0.7925,-0.8057,-0.7971,-0.7922,-0.8176,-0.8713,-0.8761,-0.8989,-0.9213,-0.9327,-0.9231,-0.9016,-0.8295,-0.8005,-0.7933,-0.7208,-0.6702,-0.6413,-0.6266,-0.5465,-0.4447,-0.3791,-0.3209,-0.2843,-0.2916,-0.2625,-0.2333,-0.2333,-0.2333,-0.2333,-0.2333,-0.2311,-0.229,-0.2285,-0.1961,-0.1649,-0.1645,-0.1629,-0.1414,-0.1144,-0.1956,-0.2451,-0.1811,-0.2228,-0.2599,-0.2328,-0.2327,-0.2347,-0.2427,-0.2433,-0.2452,-0.2508,-0.251,-0.2509,-0.2514,-0.2515,-0.2515,-0.2515,-0.2515,-0.2121,-0.1335,-0.1178,-0.0786,0.0,0.0,0.0,0.0,0.0,0.0,0.0,0.0,0.0,-1.2508,-1.1752,-1.0876,-1.0084,-0.9877,-0.9814,-0.939,-0.9331,-0.9121,-0.8441,-0.8279,-0.8221,-0.793,-0.8894,-0.9496,-0.8587,-0.8958,-0.9374,-0.9454,-0.9503,-0.9591,-0.9738,-0.98,-1.0008,-1.0477,-1.0514,-1.0517,-1.0493,-1.0612,-1.0575,-1.0327,-1.0297,-1.0119,-0.9761,-0.9502,-0.9246,-0.8925,-0.7932,-0.7764,-0.832,-0.8189,-0.8436,-0.9132,-0.8957,-0.9007,-0.9192,-0.9235,-0.9068,-0.8783,-0.8908,-0.8669,-0.8222,-0.7858,-0.7711,-0.7566,-0.6775,-0.6484,-0.6268,-0.5612,-0.4666,-0.3718,-0.3936,-0.3279,-0.2478,-0.277,-0.2625,-0.2333,-0.2333,-0.2333,-0.2333,-0.2333,-0.2311,-0.2284,-0.2258,-0.1669,-0.1302,-0.1557,-0.1415,-0.1144,-0.1077,-0.1767,-0.2128,-0.1792,-0.2053,-0.2398,-0.2365,-0.2412,-0.2456,-0.2495,-0.2478,-0.2476,-0.251,-0.2491,-0.2487,-0.2512,-0.2515,-0.2515,-0.2515,-0.2515,-0.2121,-0.1335,-0.0628,-0.0157,0.0,0.0,0.0,0.0,0.0,0.0,0.0,0.0,0.0,-1.2837,-1.2487,-1.2016,-1.0829,-1.0376,-1.0292,-1.0369,-1.023,-0.99,-0.9212,-0.9168,-0.9182,-0.8891,-0.9156,-0.9232,-0.8865,-0.9463,-0.9883,-0.9707,-0.965,-0.9711,-0.9794,-0.9857,-1.0019,-1.0361,-1.0378,-1.0344,-1.0259,-1.0395,-1.0388,-1.0168,-1.0099,-1.0018,-1.0019,-0.9631,-0.9436,-0.944,-0.8472,-0.8213,-0.8792,-0.872,-0.8818,-0.926,-0.9109,-0.9196,-0.9291,-0.9613,-0.9363,-0.8711,-0.9049,-0.8737,-0.808,-0.7713,-0.7535,-0.7347,-0.6414,-0.5793,-0.5392,-0.4594,-0.3791,-0.3135,-0.3134,-0.277,-0.2333,-0.2552,-0.2478,-0.2333,-0.2333,-0.2333,-0.2333,-0.2333,-0.2155,-0.198,-0.1968,-0.1657,-0.1357,-0.1348,-0.1548,-0.1548,-0.1144,-0.1702,-0.2077,-0.1839,-0.2089,-0.2354,-0.2418,-0.2451,-0.2468,-0.2465,-0.2467,-0.2474,-0.2488,-0.2477,-0.2481,-0.2512,-0.2515,-0.2515,-0.2515,-0.2121,-0.1649,-0.1335,-0.0471,0.0,0.0,0.0,0.0,0.0,0.0,0.0,0.0,0.0,0.0,-1.3218,-1.3024,-1.2925,-1.1577,-1.0932,-1.0694,-1.091,-1.0786,-1.0424,-0.9826,-0.9811,-0.9867,-0.9684,-0.9339,-0.9159,-0.9433,-0.9982,-1.0296,-1.0021,-0.9871,-0.9802,-0.9858,-0.9905,-1.0034,-1.0215,-1.0259,-1.0215,-1.0,-1.0195,-1.0198,-0.9943,-0.982,-0.9883,-1.0175,-0.9697,-0.9456,-0.9643,-0.8973,-0.8823,-0.9172,-0.9001,-0.9064,-0.9174,-0.9245,-0.9363,-0.9438,-0.9886,-0.97,-0.9002,-0.9177,-0.8771,-0.8042,-0.7605,-0.7274,-0.6856,-0.5928,-0.5187,-0.4592,-0.3864,-0.3354,-0.299,-0.2552,-0.2405,-0.2333,-0.2333,-0.2333,-0.2333,-0.2333,-0.226,-0.2186,-0.2252,-0.1999,-0.1753,-0.1887,-0.1782,-0.1548,-0.1481,-0.1885,-0.202,-0.1481,-0.1843,-0.2165,-0.1949,-0.211,-0.2361,-0.2446,-0.2459,-0.245,-0.2427,-0.245,-0.2469,-0.2469,-0.2469,-0.2481,-0.2512,-0.2515,-0.2515,-0.2515,-0.1728,-0.1335,-0.1335,-0.0471,0.0,0.0,0.0,0.0,0.0,0.0,0.0,0.0,0.0,0.0,-1.3554,-1.3324,-1.3071,-1.223,-1.1495,-1.0902,-1.0595,-1.0646,-1.052,-0.9738,-0.9602,-0.9608,-0.9608,-0.9778,-1.0105,-1.0615,-1.0292,-0.9968,-0.9825,-0.9815,-0.9704,-0.9413,-0.9718,-0.999,-1.0004,-1.0198,-1.0215,-1.0,-1.0195,-1.0151,-0.9852,-0.992,-0.9936,-0.9859,-0.993,-0.9817,-0.9505,-0.924,-0.912,-0.9296,-0.8842,-0.8834,-0.9291,-0.9651,-0.987,-0.9879,-1.029,-1.0221,-0.9735,-0.9069,-0.8437,-0.7934,-0.722,-0.6502,-0.5784,-0.536,-0.4973,-0.4664,-0.4226,-0.379,-0.3355,-0.299,-0.2625,-0.2333,-0.2333,-0.2333,-0.2333,-0.2333,-0.2041,-0.189,-0.2229,-0.1986,-0.1888,-0.2487,-0.211,-0.175,-0.2425,-0.2357,-0.2155,-0.2155,-0.2134,-0.2182,-0.2288,-0.2315,-0.2354,-0.2417,-0.2427,-0.2426,-0.2424,-0.245,-0.2469,-0.2469,-0.2469,-0.2481,-0.2512,-0.2515,-0.2515,-0.2515,-0.1728,-0.1335,-0.1335,-0.0471,0.0,0.0,0.0,0.0,0.0,0.0,0.0,0.0,0.0,0.0,-1.3903,-1.3449,-1.2985,-1.1856,-1.1403,-1.1185,-1.1199,-1.1211,-1.1125,-1.0674,-1.0715,-1.0584,-0.9837,-1.0133,-1.0375,-0.995,-1.0053,-1.0104,-0.9958,-0.988,-0.9917,-1.032,-1.0053,-1.0091,-1.0764,-1.0331,-1.0033,-1.0155,-1.0084,-0.9944,-0.9829,-0.9876,-0.988,-0.9822,-1.0059,-1.0029,-0.9661,-0.9444,-0.941,-0.9463,-0.8879,-0.8977,-0.9663,-0.9807,-0.9979,-1.0123,-1.0476,-1.0146,-0.9296,-0.9225,-0.8565,-0.7474,-0.6702,-0.5815,-0.5002,-0.4859,-0.4252,-0.3572,-0.3426,-0.3062,-0.2698,-0.2552,-0.2405,-0.2333,-0.2333,-0.2333,-0.226,-0.2041,-0.1895,-0.182,-0.1957,-0.1497,-0.1121,-0.1603,-0.1643,-0.1683,-0.1953,-0.2289,-0.2425,-0.2222,-0.2219,-0.2277,-0.2289,-0.2345,-0.239,-0.2395,-0.2411,-0.2416,-0.2398,-0.2405,-0.2427,-0.2465,-0.2486,-0.2494,-0.2487,-0.2504,-0.2506,-0.2487,-0.1721,-0.1335,-0.1335,-0.0471,0.0,0.0,0.0,0.0,0.0,0.0,0.0,0.0,0.0,0.0,-1.3988,-1.3636,-1.3241,-1.2041,-1.1711,-1.1626,-1.1548,-1.152,-1.1483,-1.1193,-1.1176,-1.0955,-1.0094,-1.0347,-1.0422,-0.9585,-0.9859,-1.0155,-0.9968,-1.007,-1.0343,-1.0884,-1.0616,-1.0668,-1.1212,-1.0668,-1.0304,-1.0425,-1.0243,-1.0065,-0.9943,-0.9988,-0.9954,-0.9893,-1.017,-1.0132,-0.9653,-0.9675,-0.9619,-0.9518,-0.9125,-0.9239,-0.9879,-1.017,-1.0314,-1.0401,-1.0828,-1.0394,-0.9437,-0.9504,-0.8647,-0.7299,-0.6302,-0.5452,-0.4827,-0.4332,-0.3735,-0.3063,-0.2916,-0.2698,-0.2478,-0.2333,-0.2333,-0.226,-0.2187,-0.2114,-0.2041,-0.1677,-0.1531,-0.1457,-0.1523,-0.1141,-0.0841,-0.1326,-0.1712,-0.1951,-0.2086,-0.249,-0.2764,-0.2438,-0.2297,-0.2282,-0.2301,-0.2354,-0.2391,-0.238,-0.2396,-0.2398,-0.2367,-0.238,-0.2408,-0.245,-0.2482,-0.241,-0.2303,-0.2242,-0.2325,-0.2315,-0.1555,-0.1173,-0.1256,-0.0471,0.0,0.0,0.0,0.0,0.0,0.0,0.0,0.0,0.0,0.0,-1.3868,-1.401,-1.401,-1.297,-1.2519,-1.22,-1.1479,-1.1387,-1.1382,-1.1087,-1.0732,-1.0484,-1.0336,-1.0374,-1.0366,-0.9907,-0.9886,-0.9933,-0.9842,-1.0365,-1.0789,-1.0793,-1.1394,-1.1696,-1.1333,-1.1333,-1.1152,-1.0849,-1.0789,-1.0668,-1.0304,-1.0457,-1.0356,-1.0049,-1.0334,-1.0093,-0.9315,-0.9774,-0.9786,-0.9304,-0.9506,-0.974,-0.9948,-1.0671,-1.0886,-1.0822,-1.1245,-1.1091,-1.0536,-0.9778,-0.8803,-0.7526,-0.6017,-0.5471,-0.5318,-0.3924,-0.3421,-0.3427,-0.3062,-0.2916,-0.2843,-0.2405,-0.2333,-0.226,-0.1895,-0.1822,-0.1677,-0.1313,-0.0949,-0.0655,-0.1005,-0.1134,-0.1328,-0.2,-0.2447,-0.2757,-0.3094,-0.3161,-0.3107,-0.2742,-0.2433,-0.2194,-0.2322,-0.2333,-0.2343,-0.2373,-0.2378,-0.2367,-0.2337,-0.2386,-0.2423,-0.2423,-0.245,-0.2302,-0.1819,-0.1817,-0.1827,-0.1927,-0.108,-0.0853,-0.1256,-0.0471,0.0,0.0,0.0,0.0,0.0,0.0,0.0,0.0,0.0,0.0,-1.3868,-1.3581,-1.3365,-1.2826,-1.25,-1.2209,-1.1845,-1.1566,-1.1259,-1.0959,-1.0778,-1.0552,-1.0054,-0.9978,-0.9934,-0.9829,-0.9859,-0.9849,-0.9909,-1.0436,-1.1016,-1.1563,-1.1712,-1.1997,-1.2599,-1.1816,-1.1333,-1.1514,-1.1091,-1.0789,-1.0668,-1.0472,-1.0367,-1.0356,-1.0447,-1.0335,-1.0022,-1.0161,-1.013,-0.9847,-1.0085,-1.0308,-1.0522,-1.0645,-1.0675,-1.0522,-1.0659,-1.0234,-0.9499,-0.8831,-0.8132,-0.75,-0.6533,-0.5895,-0.5319,-0.419,-0.3594,-0.3268,-0.2654,-0.2448,-0.2451,-0.2326,-0.2114,-0.1895,-0.1822,-0.1604,-0.1313,-0.0876,-0.1087,-0.1293,-0.0788,-0.1267,-0.1865,-0.1789,-0.1836,-0.2019,-0.2423,-0.249,-0.2433,-0.24,-0.2312,-0.2283,-0.23,-0.2337,-0.236,-0.2348,-0.2346,-0.2343,-0.2334,-0.2386,-0.2416,-0.2394,-0.2419,-0.2349,-0.2244,-0.2185,-0.22,-0.2284,-0.1458,-0.1086,-0.1256,-0.0471,0.0,0.0,0.0,0.0,0.0,0.0,0.0,0.0,0.0,0.0,-1.3566,-1.3508,-1.3509,-1.3204,-1.2719,-1.2328,-1.1963,-1.1527,-1.1115,-1.0861,-1.0607,-1.0304,-1.0061,-0.9879,-0.9822,-0.9822,-0.9822,-0.9913,-1.0251,-1.0852,-1.1494,-1.2211,-1.2431,-1.2719,-1.3144,-1.2359,-1.1877,-1.1937,-1.1518,-1.1156,-1.1031,-1.0793,-1.0663,-1.0639,-1.057,-1.0458,-1.0172,-1.0377,-1.0363,-1.0123,-1.0422,-1.0591,-1.0647,-1.0581,-1.0502,-1.039,-1.0062,-0.9588,-0.905,-0.8523,-0.8056,-0.7658,-0.6779,-0.6143,-0.5493,-0.4435,-0.3781,-0.3254,-0.2854,-0.2513,-0.231,-0.2109,-0.1968,-0.1749,-0.1385,-0.1167,-0.0948,-0.0798,-0.1152,-0.1427,-0.1201,-0.167,-0.2131,-0.1719,-0.1836,-0.2087,-0.2357,-0.2424,-0.2367,-0.24,-0.231,-0.2277,-0.2289,-0.2329,-0.2354,-0.2335,-0.2333,-0.2333,-0.2333,-0.2375,-0.2394,-0.2363,-0.2387,-0.2318,-0.2141,-0.2015,-0.1958,-0.1893,-0.1149,-0.0775,-0.1021,-0.0393,0.0,0.0,0.0,0.0,0.0,0.0,0.0,0.0,0.0,0.0,-1.3088,-1.3532,-1.4052,-1.3808,-1.3218,-1.2505,-1.1897,-1.1356,-1.0928,-1.0822,-1.0304,-0.994,-1.0183,-1.0004,-0.9822,-0.9822,-0.9822,-1.0001,-1.0728,-1.1394,-1.1997,-1.2599,-1.3264,-1.3509,-1.3204,-1.284,-1.2539,-1.2174,-1.1889,-1.1587,-1.1273,-1.1157,-1.1024,-1.0788,-1.0747,-1.0494,-1.0087,-1.0438,-1.0508,-1.0283,-1.0497,-1.0593,-1.0377,-1.0486,-1.0473,-1.0229,-0.9433,-0.905,-0.905,-0.872,-0.839,-0.7992,-0.6913,-0.6361,-0.6026,-0.4869,-0.4114,-0.3635,-0.3501,-0.2954,-0.2402,-0.1967,-0.1822,-0.1677,-0.0876,-0.0657,-0.0801,-0.1005,-0.1144,-0.142,-0.2007,-0.2198,-0.2127,-0.1715,-0.2175,-0.2627,-0.2627,-0.2629,-0.2642,-0.268,-0.2438,-0.2259,-0.229,-0.2316,-0.2333,-0.2333,-0.2333,-0.2333,-0.2333,-0.2357,-0.2363,-0.2335,-0.2358,-0.2215,-0.1897,-0.1475,-0.127,-0.1286,-0.0536,-0.0233,-0.0549,-0.0236,0.0,0.0,0.0,0.0,0.0,0.0,0.0,0.0,0.0,0.0,-1.303,-1.3355,-1.3808,-1.3748,-1.3141,-1.2363,-1.1611,-1.1229,-1.0928,-1.0822,-1.0486,-1.0122,-0.994,-0.9822,-0.9822,-0.9822,-0.9822,-1.0001,-1.0728,-1.1394,-1.1937,-1.2298,-1.29,-1.3204,-1.284,-1.2479,-1.2178,-1.1937,-1.1575,-1.1273,-1.091,-1.0736,-1.0719,-1.0785,-1.0643,-1.0535,-1.0579,-1.0392,-1.0405,-1.0564,-1.0414,-1.028,-1.0228,-1.03,-0.9986,-0.9355,-0.8928,-0.872,-0.8653,-0.8323,-0.8192,-0.8058,-0.7455,-0.7201,-0.7029,-0.6013,-0.5781,-0.5689,-0.4045,-0.3581,-0.345,-0.2179,-0.1968,-0.1968,-0.0949,-0.124,-0.1818,-0.1293,-0.1775,-0.2385,-0.2209,-0.2387,-0.2503,-0.2164,-0.2159,-0.2289,-0.2289,-0.231,-0.2337,-0.2299,-0.226,-0.229,-0.2319,-0.2329,-0.2333,-0.2333,-0.2333,-0.2333,-0.2333,-0.2338,-0.234,-0.2333,-0.2339,-0.2266,-0.2187,-0.1844,-0.1644,-0.1664,-0.0919,-0.0543,-0.0628,-0.0236,0.0,0.0,0.0,0.0,0.0,0.0,0.0,0.0,0.0,0.0,-1.2623,-1.2961,-1.3356,-1.3099,-1.2733,-1.2178,-1.1474,-1.0978,-1.0652,-1.0565,-1.0425,-1.0183,-0.9883,-0.988,-0.9869,-0.9869,-0.9869,-1.0173,-1.1031,-1.1388,-1.1756,-1.2359,-1.2719,-1.29,-1.2719,-1.2419,-1.2118,-1.1816,-1.1514,-1.1187,-1.0904,-1.0758,-1.0731,-1.0888,-1.0524,-1.0369,-1.049,-1.0119,-1.0053,-1.0234,-1.0056,-0.9857,-0.9649,-0.9705,-0.9389,-0.8851,-0.8653,-0.8523,-0.8323,-0.8192,-0.7992,-0.7791,-0.7593,-0.7526,-0.7467,-0.6909,-0.6681,-0.6387,-0.5298,-0.4664,-0.4005,-0.2664,-0.2392,-0.2406,-0.124,-0.1531,-0.2254,-0.2225,-0.2633,-0.3029,-0.2763,-0.2885,-0.2874,-0.2364,-0.2222,-0.2226,-0.2173,-0.2189,-0.2209,-0.2169,-0.227,-0.2295,-0.231,-0.2324,-0.2333,-0.2333,-0.2333,-0.2333,-0.2333,-0.2333,-0.2333,-0.2333,-0.2333,-0.2333,-0.2333,-0.1992,-0.1718,-0.1513,-0.0919,-0.0543,-0.0314,-0.0079,0.0,0.0,0.0,0.0,0.0,0.0,0.0,0.0,0.0,0.0,-1.2113,-1.2522,-1.2887,-1.2507,-1.2319,-1.208,-1.1511,-1.091,-1.0486,-1.0425,-1.0325,-1.0164,-0.9859,-0.9923,-1.009,-1.0152,-1.0128,-1.0418,-1.141,-1.1443,-1.1696,-1.2539,-1.2599,-1.2599,-1.2479,-1.2238,-1.1877,-1.1575,-1.1273,-1.1042,-1.0845,-1.0696,-1.0661,-1.0811,-1.0379,-1.0101,-1.0116,-0.9769,-0.9637,-0.9657,-0.9637,-0.9389,-0.9117,-0.905,-0.8853,-0.8587,-0.852,-0.8323,-0.8058,-0.7989,-0.7724,-0.7526,-0.7526,-0.7526,-0.7596,-0.7612,-0.7332,-0.6855,-0.6596,-0.5874,-0.4714,-0.3212,-0.2955,-0.3061,-0.1603,-0.1895,-0.2835,-0.3301,-0.3432,-0.3483,-0.332,-0.3325,-0.3126,-0.2378,-0.223,-0.217,-0.2194,-0.2208,-0.2223,-0.2248,-0.2277,-0.2298,-0.2298,-0.2318,-0.2333,-0.2333,-0.2333,-0.2333,-0.2333,-0.2333,-0.2333,-0.2333,-0.2333,-0.2333,-0.2333,-0.1992,-0.1642,-0.1357,-0.0842,-0.0465,-0.0078,0.0,0.0,0.0,0.0,0.0,0.0,0.0,0.0,0.0,0.0,0.0,-1.1617,-1.2078,-1.2595,-1.2448,-1.2401,-1.2289,-1.1856,-1.1462,-1.1091,-1.0789,-1.0353,-1.0019,-0.9957,-1.0144,-1.0376,-1.063,-1.0576,-1.0791,-1.1781,-1.1809,-1.1877,-1.2238,-1.2298,-1.2053,-1.1514,-1.1454,-1.1152,-1.0547,-1.0486,-1.0375,-1.0163,-0.9933,-0.995,-1.01,-0.9918,-0.9742,-0.9685,-0.9336,-0.9336,-0.9621,-0.9339,-0.9183,-0.9117,-0.8787,-0.8653,-0.8587,-0.8323,-0.8125,-0.8056,-0.7386,-0.7254,-0.7526,-0.7526,-0.7724,-0.8002,-0.81,-0.8282,-0.8305,-0.7016,-0.6764,-0.6561,-0.3639,-0.3673,-0.4441,-0.1967,-0.2696,-0.4216,-0.3588,-0.3648,-0.3839,-0.3389,-0.3096,-0.2755,-0.2333,-0.2194,-0.2195,-0.2199,-0.2242,-0.228,-0.2284,-0.2307,-0.2327,-0.2327,-0.233,-0.2333,-0.2333,-0.2333,-0.2333,-0.2333,-0.2333,-0.2333,-0.2333,-0.2333,-0.2333,-0.2333,-0.1992,-0.1784,-0.1713,-0.099,-0.054,-0.0541,-0.0156,0.0,0.0,0.0,0.0,0.0,0.0,0.0,0.0,0.0,0.0,-1.1253,-1.169,-1.2025,-1.1483,-1.152,-1.158,-1.1185,-1.091,-1.0728,-1.0547,-1.0318,-1.0151,-1.0004,-1.0366,-1.0692,-1.0802,-1.0854,-1.115,-1.1673,-1.163,-1.1639,-1.1949,-1.182,-1.1575,-1.1333,-1.1152,-1.0849,-1.0365,-1.0206,-1.0012,-0.9847,-0.9672,-0.962,-0.983,-0.9558,-0.9329,-0.9341,-0.8996,-0.8863,-0.9018,-0.8866,-0.872,-0.852,-0.8587,-0.8587,-0.8587,-0.8256,-0.7992,-0.7724,-0.739,-0.739,-0.7526,-0.7724,-0.8056,-0.8403,-0.8522,-0.8593,-0.8617,-0.8052,-0.7743,-0.7336,-0.5499,-0.5509,-0.5823,-0.3785,-0.413,-0.5111,-0.4295,-0.4217,-0.4192,-0.3458,-0.3266,-0.3012,-0.2346,-0.2226,-0.2251,-0.2251,-0.2272,-0.2295,-0.2311,-0.2324,-0.2333,-0.2333,-0.2333,-0.2333,-0.2333,-0.2333,-0.2333,-0.2333,-0.2333,-0.2333,-0.2333,-0.2333,-0.2333,-0.2333,-0.2198,-0.1991,-0.1782,-0.1276,-0.0836,-0.0617,-0.0233,0.0,0.0,0.0,0.0,0.0,0.0,0.0,0.0,0.0,0.0,-1.0904,-1.1073,-1.1053,-1.0583,-1.0669,-1.0801,-1.0657,-1.0408,-1.0258,-1.0297,-1.028,-1.0188,-1.0132,-1.0608,-1.1038,-1.1119,-1.1217,-1.1435,-1.1615,-1.1508,-1.1462,-1.1651,-1.1458,-1.1212,-1.1031,-1.0849,-1.0547,-1.0183,-0.9961,-0.9801,-0.9685,-0.9445,-0.9386,-0.9522,-0.9186,-0.8984,-0.8984,-0.872,-0.8587,-0.8587,-0.8587,-0.8456,-0.8256,-0.8454,-0.8587,-0.8587,-0.8256,-0.7925,-0.766,-0.7526,-0.7593,-0.766,-0.7992,-0.8323,-0.8598,-0.869,-0.8666,-0.86,-0.869,-0.8478,-0.7903,-0.6915,-0.6904,-0.698,-0.5435,-0.5395,-0.5852,-0.5052,-0.4763,-0.4455,-0.3524,-0.3278,-0.3104,-0.2359,-0.2246,-0.2283,-0.2298,-0.2301,-0.2307,-0.2328,-0.2333,-0.2333,-0.2333,-0.2333,-0.2333,-0.2333,-0.2333,-0.2333,-0.2333,-0.2333,-0.2333,-0.2333,-0.2333,-0.2333,-0.2333,-0.2333,-0.2196,-0.1921,-0.1483,-0.1049,-0.0764,-0.023,0.0,0.0,0.0,0.0,0.0,0.0,0.0,0.0,0.0,0.0,-1.0427,-1.0023,-0.9662,-1.0158,-1.0233,-1.0216,-1.0542,-1.0324,-1.0133,-1.0276,-1.0132,-1.0118,-1.0422,-1.0735,-1.12,-1.1839,-1.1697,-1.1607,-1.1909,-1.1882,-1.1651,-1.1333,-1.1333,-1.1031,-1.0425,-1.0365,-1.0183,-0.9883,-0.9656,-0.955,-0.9685,-0.9186,-0.8993,-0.9111,-0.8787,-0.8653,-0.8653,-0.8587,-0.8587,-0.8587,-0.8587,-0.8587,-0.8587,-0.8587,-0.8587,-0.8587,-0.8256,-0.8058,-0.8058,-0.7658,-0.7724,-0.8058,-0.8125,-0.8323,-0.859,-0.8595,-0.8592,-0.859,-0.8595,-0.8685,-0.8601,-0.7057,-0.7256,-0.7758,-0.6089,-0.6138,-0.6551,-0.5766,-0.5258,-0.4753,-0.3584,-0.3095,-0.2695,-0.2307,-0.2175,-0.2192,-0.2318,-0.233,-0.2331,-0.2333,-0.2333,-0.2333,-0.2333,-0.2333,-0.2333,-0.2333,-0.2333,-0.2333,-0.2333,-0.2333,-0.2333,-0.2333,-0.2333,-0.2333,-0.2333,-0.2333,-0.226,-0.2262,-0.1623,-0.1189,-0.1191,-0.0452,0.0,0.0,0.0,0.0,0.0,0.0,0.0,0.0,0.0,0.0,-0.8948,-0.8867,-0.8823,-0.876,-0.923,-0.9682,-0.967,-0.9934,-1.0098,-1.0151,-1.0063,-1.0173,-1.0794,-1.1036,-1.1277,-1.161,-1.174,-1.1741,-1.1565,-1.1498,-1.1337,-1.1031,-1.0789,-1.0547,-1.0304,-1.0122,-0.9902,-0.9693,-0.9441,-0.9289,-0.9252,-0.8897,-0.8742,-0.8784,-0.8653,-0.8587,-0.8587,-0.8587,-0.8587,-0.8587,-0.8587,-0.8454,-0.8256,-0.852,-0.8454,-0.8256,-0.839,-0.8323,-0.8058,-0.7925,-0.7992,-0.8125,-0.8323,-0.852,-0.8598,-0.8677,-0.8655,-0.8598,-0.8677,-0.8761,-0.8779,-0.8226,-0.8301,-0.8444,-0.7409,-0.7121,-0.6882,-0.6088,-0.5391,-0.4757,-0.3876,-0.3344,-0.2959,-0.2352,-0.226,-0.2303,-0.2305,-0.232,-0.2333,-0.2333,-0.2333,-0.2333,-0.2333,-0.2333,-0.2333,-0.2333,-0.2333,-0.2333,-0.2333,-0.2333,-0.2333,-0.2333,-0.2333,-0.2333,-0.2333,-0.2333,-0.2333,-0.2333,-0.1611,-0.1179,-0.1188,-0.0448,0.0,0.0,0.0,0.0,0.0,0.0,0.0,0.0,0.0,0.0,-0.8112,-0.7974,-0.7914,-0.7802,-0.8332,-0.8882,-0.8873,-0.9296,-0.9631,-0.9631,-0.975,-1.0019,-1.0508,-1.0889,-1.123,-1.1607,-1.1729,-1.165,-1.1349,-1.1212,-1.1031,-1.0668,-1.0425,-1.0243,-1.0122,-0.994,-0.9744,-0.958,-0.9324,-0.9103,-0.9004,-0.8765,-0.8587,-0.8587,-0.872,-0.8787,-0.8787,-0.8923,-0.8923,-0.8787,-0.8787,-0.8587,-0.8256,-0.852,-0.8454,-0.8256,-0.852,-0.8456,-0.8256,-0.8256,-0.8256,-0.8323,-0.8523,-0.8587,-0.8598,-0.8679,-0.8658,-0.8598,-0.8679,-0.8736,-0.8785,-0.8864,-0.8849,-0.882,-0.8366,-0.7929,-0.7399,-0.6547,-0.5654,-0.4694,-0.3978,-0.3399,-0.2817,-0.2337,-0.2253,-0.2301,-0.2292,-0.2313,-0.2333,-0.2333,-0.2333,-0.2333,-0.2333,-0.2333,-0.2333,-0.2333,-0.2333,-0.2333,-0.2333,-0.2333,-0.2333,-0.2333,-0.2333,-0.2333,-0.2333,-0.2333,-0.2333,-0.2333,-0.1605,-0.1172,-0.1181,-0.0443,0.0,0.0,0.0,0.0,0.0,0.0,0.0,0.0,0.0,0.0,0.0,0.0,0.0,-0.7373,-0.7691,-0.7939,-0.8221,-0.8494,-0.8697,-0.87,-0.9155,-0.9591,-0.9591,-1.0254,-1.1024,-1.1799,-1.1565,-1.1273,-1.1273,-1.097,-1.0668,-1.0304,-1.0304,-1.0183,-0.9819,-0.9822,-0.9696,-0.9526,-0.9286,-0.9102,-0.8912,-0.8717,-0.8587,-0.8653,-0.8917,-0.9117,-0.9117,-0.9525,-0.9525,-0.9117,-0.9117,-0.8917,-0.8587,-0.8587,-0.8587,-0.8587,-0.8587,-0.8587,-0.8587,-0.8587,-0.8587,-0.8587,-0.8587,-0.8587,-0.8587,-0.8587,-0.8587,-0.8587,-0.8587,-0.8666,-0.8766,-0.8769,-0.8848,-0.8849,-0.8804,-0.8497,-0.7995,-0.7215,-0.5979,-0.4705,-0.3968,-0.2993,-0.2201,-0.2199,-0.2223,-0.2183,-0.2283,-0.2311,-0.2332,-0.2333,-0.2333,-0.2333,-0.2333,-0.2333,-0.2333,-0.2333,-0.2333,-0.2333,-0.2333,-0.2333,-0.2333,-0.2333,-0.2333,-0.226,-0.226,-0.226,-0.226,-0.226,-0.1606,-0.1168,-0.1168,-0.0438,0.0,0.0,0.0,0.0,0.0,0.0,0.0,0.0,0.0,0.0,-0.7054,0.0,0.0,0.0,0.0,0.0,-0.7516,-0.7907,-0.8354,-0.8681,-0.9042,-0.9357,-0.9595,-1.0077,-1.0461,-1.0628,-1.0801,-1.0849,-1.0607,-1.0486,-1.0304,-1.0001,-0.994,-0.9883,-0.9822,-0.9822,-0.969,-0.9459,-0.9137,-0.8918,-0.8833,-0.89,-0.912,-0.9392,-0.9458,-0.9525,-0.9525,-0.9661,-0.9525,-0.9117,-0.9117,-0.8917,-0.8587,-0.8587,-0.8587,-0.8587,-0.8587,-0.8587,-0.8587,-0.8587,-0.8587,-0.8587,-0.8587,-0.8587,-0.8587,-0.8587,-0.8587,-0.8587,-0.8587,-0.8609,-0.8652,-0.8742,-0.8734,-0.8698,-0.8753,-0.8306,-0.7632,-0.74,-0.6516,-0.5309,-0.4102,-0.3015,-0.2221,-0.2178,-0.2207,-0.2178,-0.2256,-0.2281,-0.2308,-0.2329,-0.2333,-0.2333,-0.2333,-0.2333,-0.2333,-0.2333,-0.2333,-0.2333,-0.2333,-0.2333,-0.2333,-0.2333,-0.2333,-0.2187,-0.1968,-0.1968,-0.1822,-0.1532,-0.103,-0.074,-0.074,-0.0296,0.0,0.0,0.0,0.0,0.0,0.0,0.0,0.0,0.0,0.0,0.0,0.0,0.0,0.0,0.0,0.0,-0.6801,-0.7046,-0.7463,-0.7758,-0.815,-0.8411,-0.846,-0.9173,-0.9542,-0.8983,-0.9337,-0.9796,-1.0226,-1.0061,-0.9822,-0.964,-0.9518,-0.9457,-0.9579,-0.9523,-0.9443,-0.9219,-0.9194,-0.9147,-0.9131,-0.9246,-0.9404,-0.9658,-0.9861,-0.9927,-0.9927,-1.006,-0.9924,-0.9585,-0.9389,-0.9186,-0.8787,-0.8653,-0.8587,-0.8587,-0.8587,-0.8587,-0.8587,-0.8587,-0.8587,-0.8587,-0.8587,-0.8587,-0.8587,-0.8587,-0.8587,-0.8587,-0.8587,-0.8587,-0.8598,-0.8671,-0.858,-0.8403,-0.8472,-0.7908,-0.7323,-0.7459,-0.668,-0.5415,-0.3906,-0.301,-0.2422,-0.2234,-0.2182,-0.2215,-0.217,-0.226,-0.2283,-0.2324,-0.2333,-0.2333,-0.2333,-0.2333,-0.2333,-0.2333,-0.2333,-0.2333,-0.2333,-0.2333,-0.2333,-0.2333,-0.2333,-0.2187,-0.1822,-0.1831,-0.1614,-0.1241,-0.0813,-0.0595,-0.0595,-0.0222,0.0,0.0,0.0,0.0,0.0,0.0,0.0,0.0,0.0,0.0,0.0,0.0,0.0,0.0,-0.6766,0.0,-0.615,-0.6195,-0.6358,-0.6318,-0.6761,-0.7057,-0.6817,-0.7786,-0.8332,-0.7164,-0.7464,-0.8321,-0.9932,-0.96,-0.9239,-0.9271,-0.9083,-0.9019,-0.9335,-0.9219,-0.9127,-0.9045,-0.9327,-0.9556,-0.9624,-0.964,-0.9728,-0.9788,-1.0127,-1.0259,-1.0259,-1.0522,-1.0522,-1.0193,-0.9861,-0.9458,-0.9117,-0.8787,-0.8587,-0.8587,-0.8587,-0.8587,-0.8587,-0.8587,-0.8587,-0.8587,-0.8587,-0.8587,-0.8587,-0.8587,-0.8587,-0.8587,-0.8573,-0.8579,-0.8587,-0.8573,-0.8379,-0.8125,-0.8125,-0.7655,-0.7121,-0.739,-0.6515,-0.5197,-0.3779,-0.3128,-0.2808,-0.2296,-0.2225,-0.2176,-0.2233,-0.2175,-0.2191,-0.2318,-0.233,-0.2333,-0.2333,-0.2333,-0.2333,-0.2333,-0.2333,-0.2333,-0.2333,-0.2333,-0.2333,-0.2333,-0.2333,-0.2188,-0.1826,-0.1772,-0.1628,-0.1247,-0.0889,-0.0671,-0.0598,-0.0221,-0.0074,0.0,0.0,0.0,0.0,0.0,0.0,0.0,0.0,0.0,0.0,0.0,0.0,0.0,0.0,0.0,-0.5979,-0.6025,-0.6157,-0.5879,-0.5999,-0.6091,-0.5836,-0.6251,-0.6461,-0.5934,-0.6212,-0.7054,-0.875,-0.8828,-0.8841,-0.9249,-0.9172,-0.9207,-0.9687,-0.9674,-0.975,-1.0007,-0.9779,-0.9694,-0.9777,-0.9983,-1.0198,-1.0522,-1.0588,-1.0588,-1.0588,-1.0654,-1.0522,-1.0193,-0.9861,-0.9458,-0.9117,-0.8787,-0.8587,-0.8587,-0.8587,-0.8587,-0.8587,-0.8587,-0.8587,-0.8587,-0.8587,-0.8587,-0.8587,-0.8587,-0.8587,-0.8573,-0.8484,-0.8511,-0.8571,-0.8481,-0.8447,-0.852,-0.852,-0.7989,-0.739,-0.7187,-0.6515,-0.5676,-0.4722,-0.4075,-0.3352,-0.2431,-0.2174,-0.2201,-0.2168,-0.2175,-0.2185,-0.2292,-0.2318,-0.2333,-0.2333,-0.2333,-0.2333,-0.2333,-0.2333,-0.2333,-0.2333,-0.2333,-0.2333,-0.2333,-0.2333,-0.2196,-0.1849,-0.1781,-0.164,-0.1277,-0.113,-0.091,-0.0612,-0.0525,-0.03,0.0,0.0,0.0,0.0,0.0,0.0,0.0,0.0,0.0,0.0,0.0,0.0,-0.6366,0.0,0.0,0.0,-0.5167,-0.5201,-0.4894,-0.4924,-0.4948,-0.4886,-0.5354,-0.5527,-0.4792,-0.5233,-0.5943,-0.6881,-0.7459,-0.8011,-0.8741,-0.8822,-0.9009,-0.9633,-0.9693,-0.9856,-1.0247,-0.9953,-0.9905,-1.0243,-1.038,-1.0503,-1.0714,-1.0721,-1.0721,-1.0721,-1.0721,-1.0588,-1.0455,-0.9927,-0.9594,-0.9389,-0.8853,-0.8587,-0.8587,-0.8587,-0.8587,-0.8587,-0.8587,-0.8587,-0.8587,-0.8587,-0.8587,-0.8587,-0.8587,-0.8552,-0.8494,-0.8437,-0.8454,-0.8494,-0.8437,-0.8365,-0.8323,-0.8123,-0.7658,-0.7199,-0.7112,-0.6685,-0.6098,-0.5373,-0.4506,-0.3633,-0.2929,-0.2462,-0.2213,-0.2258,-0.2256,-0.2254,-0.2285,-0.2303,-0.2311,-0.2311,-0.2323,-0.2333,-0.2333,-0.2333,-0.2333,-0.2333,-0.2333,-0.2333,-0.2333,-0.2346,-0.2214,-0.1857,-0.1804,-0.1666,-0.1287,-0.1211,-0.1139,-0.0917,-0.0672,-0.0447,0.0,0.0,0.0,0.0,0.0,0.0,0.0,0.0,0.0,0.0,0.0,0.0,0.0,0.0,-0.5799,0.0,0.0,0.0,-0.3804,-0.38,-0.3859,-0.3867,-0.4485,-0.4636,-0.3723,-0.4183,-0.4748,-0.4968,-0.5804,-0.6809,-0.7815,-0.8108,-0.8502,-0.9313,-0.9663,-0.9965,-1.0426,-1.0109,-1.013,-1.0668,-1.0671,-1.0732,-1.0714,-1.0721,-1.0721,-1.0721,-1.0721,-1.0654,-1.0588,-0.9994,-0.9661,-0.9591,-0.8923,-0.8587,-0.8587,-0.8587,-0.8587,-0.8587,-0.8587,-0.8587,-0.8587,-0.8587,-0.8587,-0.8584,-0.8562,-0.8497,-0.841,-0.8364,-0.8378,-0.8413,-0.8391,-0.8215,-0.8058,-0.7593,-0.7257,-0.7002,-0.7082,-0.6834,-0.6423,-0.5738,-0.4863,-0.3984,-0.3434,-0.2759,-0.223,-0.2273,-0.2263,-0.2182,-0.2277,-0.2282,-0.2284,-0.229,-0.2314,-0.2333,-0.2333,-0.2333,-0.2333,-0.2333,-0.2333,-0.2335,-0.2341,-0.2363,-0.2234,-0.187,-0.1907,-0.1768,-0.1449,-0.1445,-0.1444,-0.1292,-0.0818,-0.0446,-0.0152,-0.0077,0.0,0.0,0.0,0.0,0.0,0.0,0.0,0.0,0.0,0.0,0.0,-0.7319,0.0,-0.656,0.0,-0.4093,-0.3068,0.0,-0.283,-0.2788,0.0,0.0,-0.2742,-0.2843,-0.3105,-0.3798,-0.4127,-0.484,-0.6125,-0.6982,-0.7781,-0.8489,-0.9775,-1.0671,-1.0928,-1.057,-1.0424,-1.0671,-1.0685,-1.0687,-1.0717,-1.0721,-1.0721,-1.0721,-1.0721,-1.0522,-1.0256,-0.9861,-0.9525,-0.9183,-0.8787,-0.8587,-0.8587,-0.8587,-0.8587,-0.8587,-0.8587,-0.8587,-0.8587,-0.8587,-0.8587,-0.8573,-0.8475,-0.8429,-0.8388,-0.8171,-0.8236,-0.8399,-0.8291,-0.8146,-0.8058,-0.7593,-0.7257,-0.6987,-0.6998,-0.7,-0.6799,-0.6059,-0.5303,-0.4531,-0.3571,-0.28,-0.2275,-0.2255,-0.2178,-0.2176,-0.218,-0.218,-0.2259,-0.2286,-0.2314,-0.2333,-0.2333,-0.2333,-0.2333,-0.2333,-0.2333,-0.2343,-0.237,-0.2376,-0.225,-0.184,-0.2157,-0.2247,-0.1876,-0.2169,-0.2156,-0.177,-0.0987,-0.0607,-0.0539,-0.0154,0.0,0.0,0.0,0.0,0.0,0.0,0.0,0.0,0.0,0.0,0.0,0.0,0.0,-0.5651,0.0,-0.4002,0.0,0.0,0.0,0.0,0.0,0.0,0.0,-0.2979,-0.314,-0.3271,-0.3397,-0.4042,-0.5543,-0.6799,-0.8045,-0.9334,-1.0089,-1.0534,-1.0559,-1.0659,-1.0678,-1.0517,-1.0845,-1.0895,-1.0711,-1.0721,-1.0721,-1.0721,-1.0721,-1.0522,-1.0193,-0.9861,-0.9458,-0.9117,-0.8787,-0.8587,-0.8587,-0.8587,-0.8552,-0.8489,-0.8489,-0.8489,-0.8489,-0.8489,-0.8489,-0.8484,-0.8435,-0.8329,-0.8204,-0.8171,-0.8225,-0.8261,-0.8152,-0.8112,-0.8058,-0.7593,-0.7257,-0.6998,-0.7053,-0.6896,-0.6665,-0.6381,-0.5807,-0.5018,-0.4159,-0.3456,-0.2857,-0.2345,-0.2272,-0.2266,-0.2178,-0.226,-0.2276,-0.2289,-0.2314,-0.2333,-0.2333,-0.2333,-0.2333,-0.2333,-0.2333,-0.2344,-0.2375,-0.2394,-0.2271,-0.1848,-0.2252,-0.2266,-0.157,-0.1864,-0.1768,-0.1145,-0.1223,-0.0997,-0.0231,-0.0311,-0.0234,0.0,0.0,0.0,0.0,0.0,0.0,-0.9071,0.0,0.0,0.0,0.0,0.0,0.0,0.0,0.0,0.0,0.0,0.0,0.0,0.0,0.0,0.0,0.0,-0.3219,-0.2896,-0.3203,-0.3896,-0.508,-0.6639,-0.8275,-0.9823,-1.0259,-1.0385,-1.0354,-1.0843,-1.1048,-1.0856,-1.1065,-1.111,-1.0974,-1.0767,-1.0677,-1.0721,-1.0721,-1.0522,-1.006,-0.9794,-0.9458,-0.8984,-0.872,-0.8587,-0.8587,-0.8587,-0.8522,-0.8418,-0.8418,-0.8418,-0.8416,-0.838,-0.8367,-0.8367,-0.8367,-0.8255,-0.8111,-0.8166,-0.8231,-0.8253,-0.8127,-0.8125,-0.7992,-0.7524,-0.7187,-0.7,-0.6938,-0.6724,-0.65,-0.6541,-0.6037,-0.5324,-0.4611,-0.3882,-0.3205,-0.2432,-0.2284,-0.2275,-0.226,-0.2276,-0.2293,-0.2301,-0.2319,-0.2333,-0.2333,-0.2333,-0.2333,-0.2333,-0.234,-0.2357,-0.2387,-0.2267,-0.2065,-0.1704,-0.1954,-0.1886,-0.1335,-0.1631,-0.1462,-0.0842,-0.1231,-0.1081,-0.0388,-0.0391,-0.0314,-0.0157,-0.0079,0.0,0.0,0.0,0.0,0.0,0.0,0.0,-0.8864,0.0,0.0,0.0,0.0,-0.3408,0.0,0.0,0.0,0.0,0.0,0.0,0.0,0.0,0.0,0.0,-0.3545,-0.4328,-0.4501,-0.6477,-0.8211,-0.9332,-1.0032,-1.0468,-1.0657,-1.1176,-1.1675,-1.2022,-1.1362,-1.1202,-1.1545,-1.0873,-1.0571,-1.0717,-1.0721,-1.0389,-0.9731,-0.9728,-0.9325,-0.8587,-0.8587,-0.8587,-0.8587,-0.8587,-0.8522,-0.8418,-0.8418,-0.8418,-0.8407,-0.8288,-0.8178,-0.8178,-0.8178,-0.8172,-0.8212,-0.8098,-0.8214,-0.8366,-0.8153,-0.8125,-0.7989,-0.7252,-0.6985,-0.692,-0.6589,-0.6588,-0.6566,-0.6547,-0.6037,-0.5386,-0.4621,-0.3854,-0.3098,-0.2427,-0.2268,-0.2255,-0.2284,-0.229,-0.23,-0.2326,-0.2332,-0.2333,-0.2333,-0.2333,-0.2333,-0.2333,-0.2358,-0.2388,-0.2419,-0.2067,-0.1705,-0.1333,-0.1335,-0.1335,-0.1335,-0.1631,-0.1628,-0.1255,-0.0854,-0.0853,-0.1256,-0.0471,-0.0236,-0.055,-0.0157,0.0,0.0,0.0,0.0,0.0,0.0,-0.9616,-0.9511,0.0,0.0,0.0,0.0,0.0,0.0,0.0,0.0,0.0,0.0,0.0,0.0,0.0,0.0,0.0,-0.5097,-0.615,-0.6235,-0.7004,-0.8109,-0.9541,-0.9849,-1.0205,-1.0745,-1.1281,-1.1609,-1.1711,-1.1942,-1.1786,-1.1191,-1.1225,-1.0998,-1.0568,-1.0568,-1.0244,-0.9589,-0.9497,-0.9113,-0.8475,-0.8475,-0.8475,-0.8475,-0.8475,-0.8361,-0.8176,-0.8176,-0.8176,-0.8174,-0.813,-0.8114,-0.8125,-0.8206,-0.8185,-0.8133,-0.8253,-0.8399,-0.8472,-0.8179,-0.8256,-0.8253,-0.7319,-0.7187,-0.719,-0.6654,-0.6543,-0.656,-0.6529,-0.6407,-0.6082,-0.5253,-0.4594,-0.3859,-0.3103,-0.2622,-0.2279,-0.2289,-0.2306,-0.2322,-0.2331,-0.2333,-0.2333,-0.2333,-0.2333,-0.2333,-0.2333,-0.2359,-0.239,-0.242,-0.2068,-0.1628,-0.1334,-0.1021,-0.11,-0.1649,-0.1565,-0.1251,-0.0864,-0.1017,-0.086,-0.0471,-0.0393,-0.0314,-0.0236,-0.0079,0.0,0.0,0.0,0.0,-1.136,-1.0778,0.0,-0.9717,-0.8683,0.0,-0.6974,0.0,-0.563,0.0,0.0,0.0,0.0,0.0,0.0,0.0,0.0,0.0,0.0,-0.6384,-0.7316,-0.7801,-0.7982,-0.8493,-0.9522,-0.9967,-1.0431,-1.0846,-1.1438,-1.1849,-1.1966,-1.2058,-1.187,-1.1367,-1.1183,-1.0903,-1.0415,-1.0415,-1.0158,-0.9574,-0.9358,-0.9041,-0.848,-0.8353,-0.8353,-0.8353,-0.8353,-0.8239,-0.8117,-0.8117,-0.8117,-0.8111,-0.8067,-0.8043,-0.8127,-0.8206,-0.8212,-0.8212,-0.841,-0.8527,-0.852,-0.8189,-0.8323,-0.8454,-0.7455,-0.7323,-0.7393,-0.6855,-0.661,-0.6562,-0.6529,-0.6523,-0.6385,-0.5562,-0.4907,-0.4253,-0.3522,-0.2774,-0.2294,-0.2304,-0.232,-0.2333,-0.2333,-0.2333,-0.2333,-0.2333,-0.2333,-0.2333,-0.2333,-0.2369,-0.2402,-0.2421,-0.2076,-0.1713,-0.1334,-0.1021,-0.11,-0.1649,-0.1571,-0.1257,-0.0628,-0.0864,-0.0786,-0.0236,-0.0314,-0.0314,-0.0236,-0.0079,0.0,0.0,0.0,0.0]},{"header":{"parameterUnit":"m.s-1","parameterCategory":1,"la1":30.6,"la2":29.2853,"lo1":-89.7004,"lo2":-87.6739,"dy":0.0162,"dx":0.0183,"nx":112,"ny":82,"refTime":"2024-03-23T12:00:00:Z","depth":0,"parameterNumber":3,"parameterNumberName":"V-component_of_WINDS"},"data":[0.0,0.0,0.0,0.0,0.0,0.0,0.0,0.0,0.0,0.0,0.0,0.0,0.0,0.0,0.0,0.0,0.0,0.0,0.0,0.0,0.0,0.0,0.0,0.0,0.0,0.0,0.0,0.0,0.0,0.0,0.0,0.0,0.0,0.0,0.0,0.0,0.0,0.0,0.0,0.0,0.0,0.0,0.0,0.0,0.0,0.0,0.0,0.0,0.0,0.0,0.0,0.0,0.0,0.0,0.0,0.0,0.0,0.0,0.0,0.0,0.0,0.0,0.0,0.0,0.0,0.0,0.0,0.0,0.0,0.0,0.0,0.0,0.0,0.0,0.0,0.0,0.0,0.0,0.0,0.0,0.0,0.0,0.0,0.0,0.0,0.0,0.0,0.0,0.0,0.0,4.045,4.1681,4.4509,4.6308,4.6307,4.6189,4.5383,4.3714,0.0,0.0,0.0,0.0,0.0,0.0,0.0,0.0,0.0,0.0,0.0,0.0,0.0,0.0,0.0,0.0,0.0,0.0,0.0,0.0,0.0,0.0,0.0,0.0,0.0,0.0,0.0,0.0,0.0,0.0,0.0,0.0,0.0,0.0,0.0,0.0,0.0,0.0,0.0,0.0,0.0,0.0,0.0,0.0,0.0,0.0,0.0,0.0,0.0,0.0,0.0,0.0,0.0,0.0,0.0,0.0,0.0,0.0,0.0,0.0,0.0,0.0,0.0,0.0,0.0,0.0,0.0,0.0,0.0,0.0,0.0,0.0,0.0,0.0,0.0,0.0,0.0,0.0,0.0,0.0,0.0,0.0,0.0,0.0,0.0,0.0,0.0,0.0,0.0,0.0,0.0,0.0,0.0,0.0,0.0,0.0,0.0,0.0,0.0,0.0,0.0,0.0,0.0,0.0,4.2011,4.5154,4.5976,4.6308,4.6307,4.5621,4.4749,4.3665,0.0,0.0,0.0,0.0,0.0,0.0,0.0,0.0,0.0,0.0,0.0,0.0,0.0,0.0,0.0,0.0,0.0,0.0,0.0,0.0,0.0,0.0,0.0,0.0,0.0,0.0,0.0,0.0,0.0,0.0,0.0,0.0,0.0,0.0,0.0,0.0,0.0,0.0,0.0,0.0,0.0,0.0,0.0,0.0,0.0,0.0,0.0,0.0,0.0,0.0,0.0,0.0,0.0,0.0,0.0,0.0,0.0,0.0,0.0,0.0,0.0,0.0,0.0,0.0,0.0,0.0,0.0,0.0,0.0,0.0,0.0,0.0,0.0,0.0,0.0,0.0,0.0,0.0,0.0,0.0,0.0,0.0,0.0,0.0,0.0,0.0,0.0,0.0,0.0,0.0,0.0,0.0,0.0,0.0,0.0,0.0,0.0,0.0,0.0,0.0,0.0,0.0,0.0,4.1078,4.3416,4.6015,4.6308,4.6308,4.6308,4.5935,4.5302,4.4354,4.34,0.0,0.0,0.0,0.0,0.0,0.0,0.0,0.0,0.0,0.0,0.0,0.0,0.0,0.0,0.0,0.0,0.0,0.0,0.0,0.0,0.0,0.0,0.0,0.0,0.0,0.0,0.0,0.0,0.0,0.0,0.0,0.0,0.0,0.0,0.0,0.0,0.0,0.0,0.0,0.0,0.0,0.0,0.0,0.0,0.0,0.0,0.0,0.0,0.0,0.0,0.0,0.0,0.0,0.0,0.0,0.0,0.0,0.0,0.0,0.0,0.0,0.0,0.0,0.0,0.0,0.0,0.0,0.0,0.0,0.0,0.0,0.0,0.0,0.0,0.0,0.0,0.0,0.0,0.0,0.0,0.0,0.0,0.0,0.0,0.0,0.0,0.0,0.0,0.0,0.0,0.0,0.0,0.0,0.0,0.0,0.0,0.0,0.0,0.0,0.0,0.0,0.0,4.3084,4.4621,4.6406,4.6797,4.6836,4.6621,4.6229,4.5597,4.4639,4.3503,0.0,0.0,0.0,0.0,0.0,0.0,0.0,0.0,0.0,0.0,0.0,0.0,0.0,0.0,0.0,0.0,0.0,0.0,0.0,0.0,0.0,0.0,0.0,0.0,0.0,0.0,0.0,0.0,0.0,0.0,0.0,0.0,0.0,0.0,0.0,0.0,0.0,0.0,0.0,0.0,0.0,0.0,0.0,0.0,0.0,0.0,0.0,0.0,0.0,0.0,0.0,0.0,0.0,0.0,0.0,0.0,0.0,0.0,0.0,0.0,0.0,0.0,0.0,0.0,0.0,0.0,0.0,0.0,0.0,0.0,0.0,0.0,0.0,0.0,0.0,0.0,0.0,0.0,0.0,0.0,0.0,0.0,0.0,0.0,0.0,0.0,0.0,0.0,0.0,0.0,0.0,0.0,0.0,0.0,0.0,0.0,0.0,0.0,0.0,0.0,0.0,0.0,4.3273,4.5564,4.7324,4.8223,4.8398,4.7578,4.6011,4.4663,4.3665,4.2018,0.0,0.0,0.0,0.0,0.0,0.0,0.0,0.0,0.0,0.0,0.0,0.0,0.0,0.0,0.0,0.0,0.0,0.0,0.0,0.0,0.0,0.0,0.0,0.0,0.0,0.0,0.0,0.0,0.0,0.0,0.0,0.0,0.0,0.0,0.0,0.0,0.0,0.0,0.0,0.0,0.0,0.0,0.0,0.0,0.0,0.0,0.0,0.0,0.0,0.0,0.0,0.0,0.0,0.0,0.0,0.0,0.0,0.0,0.0,0.0,0.0,0.0,0.0,0.0,0.0,0.0,0.0,0.0,0.0,0.0,0.0,0.0,0.0,0.0,0.0,0.0,0.0,0.0,0.0,0.0,0.0,0.0,0.0,0.0,0.0,0.0,0.0,0.0,0.0,0.0,0.0,0.0,0.0,0.0,0.0,0.0,0.0,0.0,0.0,0.0,0.0,0.0,4.5224,4.7088,0.0,4.8221,4.7968,4.7636,4.6504,4.5166,4.3656,0.0,0.0,0.0,0.0,0.0,0.0,0.0,0.0,0.0,0.0,0.0,0.0,0.0,0.0,0.0,0.0,0.0,0.0,0.0,0.0,0.0,0.0,0.0,0.0,0.0,0.0,0.0,0.0,0.0,0.0,0.0,0.0,0.0,0.0,0.0,0.0,0.0,0.0,0.0,0.0,0.0,0.0,0.0,0.0,0.0,0.0,0.0,0.0,0.0,0.0,0.0,0.0,0.0,0.0,0.0,0.0,0.0,0.0,0.0,0.0,0.0,0.0,0.0,0.0,0.0,0.0,0.0,0.0,0.0,0.0,0.0,0.0,0.0,0.0,0.0,0.0,0.0,0.0,0.0,0.0,0.0,0.0,0.0,0.0,0.0,0.0,0.0,0.0,0.0,0.0,0.0,0.0,0.0,0.0,0.0,0.0,0.0,0.0,0.0,0.0,0.0,0.0,4.4159,4.6462,4.8311,0.0,4.8532,4.8123,4.8398,4.7129,4.5637,4.4087,0.0,0.0,0.0,0.0,0.0,0.0,0.0,0.0,0.0,0.0,0.0,0.0,0.0,0.0,0.0,0.0,0.0,0.0,0.0,0.0,0.0,0.0,0.0,0.0,0.0,0.0,0.0,0.0,0.0,0.0,0.0,0.0,0.0,0.0,0.0,0.0,0.0,0.0,0.0,0.0,0.0,0.0,0.0,0.0,0.0,0.0,0.0,0.0,0.0,0.0,0.0,0.0,0.0,0.0,0.0,0.0,0.0,0.0,0.0,0.0,0.0,0.0,0.0,0.0,0.0,0.0,0.0,0.0,0.0,0.0,0.0,0.0,0.0,0.0,0.0,0.0,0.0,0.0,0.0,0.0,0.0,0.0,0.0,0.0,0.0,0.0,0.0,0.0,0.0,0.0,0.0,0.0,0.0,0.0,0.0,0.0,0.0,0.0,0.0,0.0,0.0,0.0,4.3517,4.6621,4.9168,5.0115,4.9432,4.9257,5.0137,4.7811,4.5902,0.0,0.0,0.0,0.0,0.0,0.0,0.0,0.0,0.0,0.0,0.0,0.0,0.0,0.0,0.0,0.0,0.0,0.0,0.0,0.0,0.0,0.0,0.0,0.0,0.0,0.0,0.0,0.0,0.0,0.0,0.0,0.0,0.0,0.0,0.0,0.0,0.0,0.0,0.0,0.0,0.0,0.0,0.0,0.0,0.0,0.0,0.0,0.0,0.0,0.0,0.0,0.0,0.0,0.0,0.0,0.0,0.0,0.0,0.0,0.0,0.0,0.0,0.0,0.0,0.0,0.0,0.0,0.0,0.0,0.0,0.0,0.0,0.0,0.0,0.0,0.0,0.0,0.0,0.0,0.0,0.0,0.0,0.0,0.0,0.0,0.0,0.0,0.0,0.0,0.0,0.0,0.0,0.0,0.0,0.0,0.0,0.0,0.0,0.0,0.0,0.0,0.0,0.0,4.5245,4.7909,5.0069,5.0945,5.0266,4.9879,5.0175,4.8926,4.7478,4.5941,0.0,0.0,0.0,0.0,0.0,0.0,0.0,0.0,0.0,0.0,0.0,0.0,0.0,0.0,0.0,0.0,0.0,0.0,0.0,0.0,0.0,0.0,0.0,0.0,0.0,0.0,0.0,0.0,0.0,0.0,0.0,0.0,0.0,0.0,0.0,0.0,0.0,0.0,0.0,0.0,0.0,0.0,0.0,0.0,0.0,0.0,0.0,0.0,0.0,0.0,0.0,0.0,0.0,0.0,0.0,0.0,0.0,0.0,0.0,0.0,0.0,0.0,0.0,0.0,0.0,0.0,0.0,0.0,0.0,0.0,0.0,0.0,0.0,0.0,0.0,0.0,0.0,0.0,0.0,0.0,0.0,0.0,0.0,0.0,0.0,0.0,0.0,0.0,0.0,0.0,0.0,0.0,0.0,0.0,0.0,0.0,0.0,0.0,0.0,0.0,0.0,0.0,4.6021,4.8437,5.0436,5.1304,5.0311,4.9883,5.0624,4.9568,4.8411,4.7362,0.0,0.0,0.0,0.0,0.0,0.0,0.0,0.0,0.0,0.0,0.0,0.0,0.0,0.0,0.0,0.0,0.0,0.0,0.0,0.0,0.0,0.0,0.0,0.0,0.0,0.0,0.0,0.0,0.0,0.0,0.0,0.0,0.0,0.0,0.0,0.0,0.0,0.0,0.0,0.0,0.0,0.0,0.0,0.0,0.0,0.0,0.0,0.0,0.0,0.0,0.0,0.0,0.0,0.0,0.0,0.0,0.0,0.0,0.0,0.0,0.0,0.0,0.0,0.0,0.0,0.0,0.0,0.0,0.0,0.0,0.0,0.0,0.0,0.0,0.0,0.0,0.0,0.0,0.0,0.0,0.0,0.0,0.0,0.0,0.0,0.0,0.0,0.0,0.0,0.0,0.0,0.0,0.0,0.0,0.0,0.0,0.0,0.0,0.0,0.0,0.0,0.0,4.6084,4.8504,5.0527,5.1327,4.9975,4.9677,5.1271,4.9942,4.9015,4.8925,0.0,0.0,0.0,0.0,0.0,0.0,0.0,0.0,0.0,0.0,0.0,0.0,0.0,0.0,0.0,0.0,0.0,0.0,0.0,0.0,0.0,0.0,0.0,0.0,0.0,0.0,0.0,0.0,0.0,0.0,0.0,0.0,0.0,0.0,0.0,0.0,0.0,0.0,0.0,0.0,0.0,0.0,0.0,0.0,0.0,0.0,0.0,0.0,0.0,0.0,0.0,0.0,0.0,0.0,0.0,0.0,0.0,0.0,0.0,0.0,4.3931,4.3986,0.0,0.0,0.0,0.0,0.0,0.0,0.0,0.0,0.0,0.0,0.0,0.0,0.0,0.0,0.0,0.0,0.0,0.0,0.0,0.0,0.0,0.0,0.0,0.0,0.0,0.0,0.0,0.0,0.0,0.0,0.0,0.0,0.0,0.0,0.0,0.0,0.0,0.0,0.0,0.0,4.6086,4.9048,5.1191,5.1381,5.1063,5.0998,5.1379,5.1066,5.0555,4.9864,4.9638,0.0,0.0,0.0,0.0,0.0,0.0,0.0,0.0,0.0,0.0,0.0,0.0,0.0,0.0,0.0,0.0,0.0,0.0,0.0,0.0,0.0,0.0,0.0,0.0,0.0,0.0,0.0,0.0,0.0,0.0,0.0,0.0,0.0,0.0,0.0,0.0,0.0,0.0,0.0,0.0,0.0,0.0,0.0,0.0,0.0,0.0,0.0,0.0,0.0,0.0,0.0,0.0,0.0,0.0,0.0,0.0,0.0,0.0,0.0,4.6877,4.5976,0.0,0.0,0.0,0.0,0.0,0.0,0.0,0.0,0.0,0.0,0.0,0.0,0.0,0.0,0.0,0.0,0.0,0.0,0.0,0.0,0.0,0.0,0.0,0.0,0.0,0.0,0.0,0.0,0.0,0.0,0.0,0.0,0.0,0.0,0.0,0.0,0.0,0.0,0.0,0.0,4.6679,4.9456,5.1396,5.1409,5.1396,5.1406,5.1396,5.1372,5.1169,5.0712,5.0673,0.0,0.0,0.0,0.0,0.0,0.0,0.0,0.0,0.0,0.0,0.0,0.0,0.0,0.0,0.0,0.0,0.0,0.0,0.0,0.0,0.0,0.0,0.0,0.0,0.0,0.0,0.0,0.0,0.0,0.0,0.0,0.0,0.0,0.0,0.0,0.0,0.0,0.0,0.0,0.0,0.0,0.0,0.0,0.0,0.0,0.0,0.0,0.0,0.0,0.0,0.0,0.0,0.0,5.1068,5.1895,5.3378,5.3387,5.3396,5.3174,4.9597,4.8037,4.8017,4.7788,0.0,0.0,0.0,0.0,0.0,0.0,0.0,0.0,0.0,0.0,0.0,0.0,0.0,0.0,0.0,0.0,0.0,0.0,0.0,0.0,0.0,0.0,0.0,0.0,5.1007,5.0774,4.7928,0.0,0.0,0.0,0.0,0.0,0.0,0.0,0.0,0.0,0.0,0.0,4.7548,5.0107,5.1843,5.1841,5.184,5.1843,5.1843,5.1791,5.1681,5.1546,5.1544,5.1174,0.0,0.0,0.0,0.0,0.0,0.0,0.0,0.0,0.0,0.0,0.0,0.0,0.0,0.0,0.0,0.0,0.0,0.0,0.0,0.0,0.0,0.0,0.0,0.0,0.0,0.0,0.0,0.0,0.0,0.0,0.0,0.0,3.9986,4.0205,0.0,0.0,0.0,0.0,0.0,0.0,0.0,0.0,0.0,0.0,0.0,0.0,0.0,4.9796,5.0028,5.1674,5.2656,5.2945,5.2993,5.309,5.3223,5.3339,5.3365,5.329,5.2829,0.0,5.2436,5.099,0.0,0.0,0.0,0.0,0.0,0.0,0.0,0.0,0.0,0.0,0.0,0.0,0.0,0.0,0.0,0.0,0.0,0.0,0.0,0.0,0.0,0.0,4.9351,5.1697,5.2399,5.2595,0.0,5.1067,4.9382,4.9463,4.8802,0.0,0.0,0.0,0.0,0.0,0.0,0.0,4.8518,5.1536,5.3656,5.3665,5.361,5.3559,5.3559,5.3559,5.3264,5.2561,5.2515,5.2125,5.1267,5.1335,0.0,0.0,0.0,0.0,0.0,0.0,0.0,0.0,0.0,0.0,0.0,0.0,0.0,0.0,0.0,0.0,0.0,0.0,0.0,0.0,0.0,0.0,0.0,0.0,0.0,0.0,0.0,0.0,0.0,4.0117,4.1204,4.0983,4.1815,4.2413,0.0,0.0,0.0,0.0,0.0,0.0,0.0,0.0,0.0,4.7926,4.973,5.0875,5.1318,5.2703,5.3608,5.4024,5.4146,5.4387,5.4785,5.483,5.4847,5.481,5.4873,5.4892,5.4721,5.3045,5.2105,5.1557,0.0,0.0,0.0,0.0,4.6839,4.7479,4.7835,4.8645,4.9536,4.9586,0.0,0.0,0.0,0.0,0.0,0.0,0.0,4.821,0.0,0.0,5.208,5.3686,5.3715,5.361,5.4488,5.3377,5.2214,0.0,5.1912,5.1225,4.9932,0.0,0.0,0.0,0.0,5.0387,5.0835,5.2704,5.3996,5.4003,5.3972,5.3964,5.3964,5.3927,5.3745,5.3403,5.3373,5.3216,5.2872,5.2387,5.1903,0.0,0.0,0.0,0.0,0.0,0.0,0.0,0.0,0.0,0.0,0.0,0.0,0.0,0.0,0.0,0.0,0.0,0.0,0.0,0.0,0.0,0.0,0.0,0.0,0.0,0.0,0.0,0.0,4.1443,4.2652,4.233,4.3626,4.4562,0.0,0.0,0.0,0.0,0.0,0.0,4.7545,4.777,4.8403,4.9596,5.099,5.1914,5.2319,5.3472,5.4368,5.4968,5.5069,5.5415,5.5968,5.5995,5.6003,5.5995,5.6003,5.6012,5.5896,5.4426,5.3488,5.2877,5.1943,5.0877,4.9737,4.8977,4.9606,5.0791,5.0759,5.1656,5.2833,5.2838,5.2417,5.1667,5.0406,0.0,0.0,0.0,0.0,5.1034,5.2558,5.3448,5.4156,5.5015,5.4722,5.451,5.5366,5.5084,5.4526,0.0,5.4008,5.3708,5.2753,0.0,0.0,0.0,0.0,5.2269,5.2851,5.3945,5.4665,5.4674,5.4667,5.4662,5.4662,5.4621,5.4492,5.4248,5.4228,5.417,5.4005,5.338,5.2839,5.2418,0.0,0.0,0.0,0.0,0.0,0.0,0.0,0.0,0.0,0.0,0.0,0.0,0.0,0.0,0.0,0.0,0.0,0.0,0.0,0.0,0.0,0.0,0.0,0.0,0.0,0.0,0.0,0.0,0.0,4.4995,4.5915,0.0,0.0,0.0,0.0,4.7808,4.7236,4.7951,5.0546,5.069,5.0734,5.0805,5.3215,5.4143,5.3431,5.5056,5.588,5.5932,5.5947,5.5921,5.5905,5.5968,5.6005,5.5999,5.6005,5.6012,5.5935,5.5084,5.4746,5.4679,5.3807,5.3449,5.3436,5.3372,5.341,5.352,5.3563,5.365,5.372,5.3726,5.3747,5.3743,5.3666,5.3036,0.0,0.0,5.3172,5.2784,5.3693,5.3969,5.4203,5.5083,5.5259,5.5474,5.6331,5.6506,5.5977,0.0,5.4003,5.3708,5.2753,0.0,5.2269,5.1429,5.2701,5.3786,5.3838,5.5374,5.6462,5.6469,5.6467,5.6467,5.6467,5.6467,5.6072,5.5182,5.5123,5.4784,5.4024,5.3966,5.4308,5.5097,5.5096,0.0,0.0,0.0,0.0,0.0,0.0,0.0,0.0,0.0,0.0,0.0,0.0,0.0,0.0,0.0,0.0,0.0,0.0,0.0,0.0,0.0,0.0,0.0,0.0,0.0,0.0,0.0,0.0,4.5957,4.7373,0.0,4.9295,4.9537,5.0173,5.1412,5.129,5.1556,5.2468,5.2459,5.2431,5.2432,5.3868,5.4486,5.4158,5.5388,5.5987,5.5943,5.598,5.5961,5.5895,5.5971,5.5989,5.5999,5.6005,5.6012,5.5973,5.5736,5.5351,5.4873,5.4563,5.4128,5.3695,5.3695,5.4038,5.4549,5.456,5.4594,5.4548,5.4039,5.3872,5.3907,5.3952,5.3766,5.3716,5.4587,5.4611,5.4689,5.6079,5.6059,5.5884,5.6704,5.6508,5.6216,5.6528,5.6606,5.6565,5.6465,5.6038,5.5567,5.5226,5.5165,5.5067,5.4755,5.5677,5.6228,5.5708,5.6649,5.7176,5.6665,5.6606,5.6606,5.6606,5.6558,5.6143,5.526,5.5739,5.5664,5.4804,5.4812,5.4724,5.4478,5.3367,5.2763,0.0,0.0,0.0,0.0,0.0,0.0,0.0,0.0,0.0,0.0,0.0,0.0,0.0,0.0,0.0,0.0,0.0,0.0,0.0,0.0,0.0,0.0,0.0,0.0,0.0,4.5132,4.6912,4.7817,4.9249,5.0587,5.1608,5.2161,5.2846,5.3799,5.3638,5.3608,5.3857,5.38,5.3637,5.334,5.4168,5.4583,5.4526,5.5235,5.5698,5.5895,5.5971,5.5961,5.5895,5.5971,5.6017,5.6025,5.6037,5.6051,5.6083,5.6428,5.6102,5.5343,5.5024,5.456,5.4065,5.3741,5.4019,5.4576,5.4916,5.5266,5.5458,5.4929,5.478,5.4833,5.519,5.5282,5.5465,5.6331,5.6586,5.684,5.7953,5.7836,5.7582,5.8109,5.7601,5.6938,5.6665,5.6606,5.6762,5.7289,5.6957,5.6782,5.7348,5.7192,5.7096,5.7395,5.7899,5.8053,5.7512,5.7645,5.7601,5.7055,5.6762,5.6606,5.6606,5.6263,5.5806,5.524,5.5733,5.5675,5.4836,5.5118,5.489,5.4016,5.2871,5.256,5.3125,0.0,0.0,0.0,0.0,0.0,0.0,0.0,0.0,0.0,0.0,0.0,0.0,0.0,0.0,0.0,0.0,0.0,0.0,0.0,0.0,0.0,0.0,0.0,4.5398,4.7624,4.9663,5.0623,5.1575,5.2505,5.3451,5.3494,5.3853,5.4774,5.4058,5.3942,5.4793,5.4789,5.4348,5.3498,5.4235,5.4631,5.4641,5.4779,5.5204,5.5943,5.5987,5.5998,5.5982,5.6039,5.6091,5.6175,5.6184,5.6223,5.635,5.719,5.7061,5.6246,5.5343,5.4966,5.483,5.3921,5.3626,5.3837,5.4836,5.5726,5.6417,5.6479,5.6496,5.666,5.7538,5.7777,5.7933,5.8812,5.9044,5.9024,5.9044,5.9063,5.9063,5.9083,5.848,5.766,5.6899,5.6743,5.6762,5.6782,5.6782,5.727,5.8829,5.8402,5.8128,5.8948,5.9085,0.0,5.9026,5.8304,5.7799,5.7779,5.7074,5.6606,5.6606,5.5775,5.524,5.524,5.5246,5.49,5.4105,5.4888,5.4933,5.4066,5.4044,5.406,5.4071,0.0,0.0,0.0,0.0,0.0,0.0,0.0,0.0,0.0,0.0,0.0,0.0,0.0,0.0,0.0,0.0,0.0,0.0,0.0,0.0,0.0,4.7193,4.8202,4.7405,4.8619,5.011,5.155,5.2536,5.3467,5.4368,5.4951,5.5395,5.5644,5.5451,5.5415,5.565,5.5651,5.5479,5.5143,5.5451,5.5595,5.5528,5.5681,5.6148,5.6905,5.6333,5.6701,5.7842,5.7262,5.737,5.8002,5.8049,5.8065,5.8104,5.8396,5.7981,5.7146,5.6885,5.6439,5.5877,5.5625,5.5571,5.5758,5.6665,5.6768,5.6479,5.648,5.6503,5.666,5.7534,5.7394,5.7094,5.7933,5.7738,5.7426,5.8011,5.8168,5.8324,5.8948,5.9397,5.9612,5.9397,5.9846,6.049,6.1115,6.0725,6.0039,5.9239,5.8909,5.8619,5.8217,5.8705,0.0,5.7446,5.7597,5.7574,5.6989,5.6727,5.6606,5.6606,5.6367,5.6187,5.614,5.6135,5.6032,5.5817,5.6031,5.5788,5.4955,5.4886,5.5174,0.0,0.0,0.0,0.0,0.0,0.0,0.0,0.0,0.0,0.0,0.0,0.0,0.0,0.0,0.0,0.0,0.0,0.0,0.0,0.0,0.0,0.0,4.8835,4.972,4.9329,4.9806,5.0821,5.2498,5.3177,5.3967,5.518,5.5741,5.6012,5.6012,5.6012,5.5995,5.6007,5.6007,5.5942,5.5846,5.5613,5.5785,5.6406,5.623,5.6711,5.7835,5.7393,5.7684,5.8598,5.8133,5.8246,5.8748,5.8817,5.8849,5.8862,5.9257,5.8869,5.7962,0.0,0.0,0.0,0.0,5.6522,5.6986,5.7512,5.7634,5.7559,5.7552,5.7572,5.7753,5.8624,5.8563,5.8363,5.9202,5.9104,5.8831,5.9319,5.9436,5.9651,6.0529,6.0842,6.0939,6.0939,6.1349,6.1854,6.2364,6.2345,0.0,6.092,6.0729,6.0694,6.054,6.0643,6.0375,5.9419,5.9045,5.871,5.8242,5.7862,5.766,5.766,5.7304,0.0,0.0,0.0,5.7035,5.7033,5.7048,0.0,0.0,0.0,5.7625,5.8141,5.9388,0.0,0.0,5.8334,5.8836,0.0,0.0,0.0,0.0,0.0,0.0,0.0,0.0,0.0,0.0,0.0,0.0,0.0,0.0,0.0,0.0,5.001,5.0708,5.0863,5.0975,5.166,5.3304,5.3583,5.4279,5.5857,5.6012,5.6012,5.6012,5.6012,5.5993,5.6012,5.6001,0.0,0.0,0.0,5.5717,5.6995,5.6578,5.7119,5.8618,5.8605,5.8722,5.8936,5.8886,5.8957,5.9108,5.9171,5.9193,5.9246,5.995,5.9724,5.8797,5.7191,5.6556,5.6527,5.6601,5.7127,5.777,5.7936,0.0,0.0,5.8996,5.9046,5.9254,6.0136,6.0333,6.0432,6.131,6.1542,6.1542,6.1542,6.1698,6.2032,6.2813,6.2559,6.2147,6.2147,6.2206,6.2284,6.2284,6.2833,6.3282,6.3282,6.3213,6.3314,6.3791,6.3281,6.2781,6.2596,6.1209,6.0253,6.0253,0.0,0.0,5.9102,5.8392,5.798,5.8089,5.8197,5.8195,5.8109,5.8191,5.8295,5.8381,5.9906,6.0789,6.099,6.2545,6.3343,6.3421,6.2444,6.2467,0.0,0.0,0.0,0.0,0.0,0.0,0.0,0.0,0.0,0.0,0.0,0.0,0.0,0.0,0.0,4.924,5.0167,5.0866,5.0898,5.1505,5.2318,5.3382,5.4122,5.4923,5.5915,5.6012,5.6012,5.6012,5.6012,5.602,5.6082,5.6075,5.6071,5.6056,5.667,5.6781,5.6373,5.7016,5.783,5.8836,5.8198,0.0,6.0916,6.0291,6.0355,6.098,6.0981,6.0997,6.1011,6.111,6.0637,5.9749,5.8719,5.8338,5.8454,5.9172,5.9129,5.8831,5.9548,5.9445,5.8996,5.8996,5.9046,5.9254,6.0136,5.9904,0.0,6.0412,6.0646,6.0646,6.0646,6.1681,6.2794,6.2969,6.3945,6.4843,6.4843,6.5351,6.58,6.58,6.5429,6.5097,6.5097,6.4514,6.3384,6.1447,6.1602,6.1433,6.0038,5.9556,5.9343,5.9355,5.9209,5.9102,5.9102,5.8946,5.9141,5.9846,6.0566,6.0625,5.9924,6.0579,6.1287,6.1973,6.2332,6.3197,6.4607,6.4938,6.5465,6.6108,6.4535,6.426,0.0,0.0,0.0,0.0,0.0,0.0,0.0,0.0,0.0,0.0,0.0,4.8433,4.8077,0.0,5.0017,5.0098,5.0894,5.1515,5.1556,5.2685,5.3498,5.3498,5.4268,5.512,5.5915,5.6012,5.6012,5.6012,5.6035,5.6067,5.611,5.6165,5.6174,5.6151,5.6666,5.7132,5.7495,5.8034,5.8948,6.0205,5.9785,6.0277,6.1487,6.1078,6.1131,6.1503,6.1464,6.1445,6.1445,6.1376,6.1109,6.0701,6.0233,5.9853,5.9646,6.0481,6.0575,6.0302,6.0745,6.0643,6.0302,6.0302,6.0324,6.043,6.0873,6.103,6.1147,6.1581,6.2013,6.2345,6.2345,6.2676,6.3223,6.4082,6.4628,6.5175,6.6014,6.6522,6.6795,6.6795,6.6483,6.5936,6.5097,6.4941,6.4355,6.2618,6.2348,6.2042,6.1151,6.0669,6.0398,6.0409,6.0399,6.039,6.039,6.039,6.0586,6.1017,6.1876,6.2169,6.172,6.2967,6.3853,6.4283,6.4722,6.5389,6.6249,6.6248,6.6697,6.7536,6.6653,6.6496,0.0,0.0,0.0,0.0,0.0,0.0,0.0,0.0,4.8279,4.8001,4.893,4.9763,4.9711,5.0309,5.0883,5.1122,5.17,5.2204,5.2426,5.3807,5.4542,5.3846,5.4503,5.5296,5.5935,5.6001,5.6018,5.6018,5.6079,5.6132,5.6146,5.6233,5.6296,5.6253,5.6508,5.7283,5.857,5.8861,5.9767,6.1275,6.1266,6.1344,6.1489,6.1512,6.1515,6.149,6.1446,6.1408,6.1396,6.1361,6.1366,6.1393,6.1344,6.0966,6.0508,6.1162,6.1433,6.1479,6.1509,6.1544,6.1583,6.1607,6.1602,6.1627,6.1806,6.2389,6.2993,6.3006,6.3633,6.426,6.4084,6.377,6.3867,6.5273,6.5175,6.5158,6.6502,6.6795,6.6795,6.6795,6.6678,6.6073,6.4553,6.4746,6.4804,6.3926,6.3344,6.2942,6.2769,6.2132,6.1704,6.1696,6.1705,6.1698,6.1698,6.1857,6.1957,6.1957,6.2937,6.3503,6.3503,6.5025,6.5852,6.5852,6.6542,6.6894,6.6894,6.707,6.7517,6.8202,6.8534,6.8593,4.6878,4.6959,4.7242,4.7412,4.7629,4.7804,0.0,0.0,4.9093,4.8249,4.95,5.0523,4.9834,5.0357,5.1141,5.1931,5.2124,5.2464,5.3246,5.4194,5.4755,5.4677,5.5374,5.5896,5.5993,5.604,5.6087,5.6087,5.6141,5.6213,5.6267,5.6283,5.6344,5.6465,5.7176,5.7648,5.7814,5.8602,5.947,6.0433,6.0424,6.0814,6.1495,6.1554,6.1568,6.1509,6.1484,6.1451,6.1396,6.146,6.1454,6.1393,6.1393,6.1335,6.1271,6.1363,6.1402,6.1415,6.1473,6.1495,6.1519,6.1583,6.1602,6.1744,6.2524,6.2877,6.2993,6.3006,6.3633,6.4123,6.334,6.4219,6.5351,6.5546,6.6073,6.6561,6.6756,6.6795,6.6795,6.6795,6.6229,6.5429,6.4475,6.3731,6.3008,6.213,6.257,6.2711,6.1957,6.175,6.1696,6.1703,6.1701,6.1698,6.1698,6.2412,6.2849,6.2849,6.4399,6.5301,6.5301,6.6244,6.6754,6.6754,6.6855,6.6894,6.6894,6.7676,6.8105,6.8242,6.9726,7.0019,4.758,4.7933,4.8461,4.8528,4.8999,4.9611,5.0182,5.0278,5.0293,5.0398,5.0687,5.0929,5.1067,5.1371,5.1885,5.276,5.2878,5.3168,5.4108,5.4561,5.4967,5.5451,5.5793,5.6023,5.604,5.6075,5.6114,5.6167,5.6213,5.6267,5.6308,5.6359,5.6446,5.6507,5.6838,5.7472,5.8447,5.8817,5.9679,6.0995,6.1006,6.1162,6.1507,6.1537,6.1507,6.1439,6.1479,6.1487,6.146,6.146,6.1447,6.144,6.1378,6.1371,6.1389,6.1401,6.1395,6.1402,6.1427,6.1462,6.1495,6.1524,6.1564,6.1664,6.2036,6.2528,6.2958,6.2993,6.3628,6.4221,6.3848,6.4297,6.496,6.5487,6.5858,6.6229,6.6697,6.6399,6.6045,6.6092,6.5385,6.452,6.3691,6.3243,6.2696,6.1835,6.2002,6.2104,6.1759,6.1692,6.1696,6.1692,6.1692,6.1909,6.2402,6.2796,6.3228,6.3717,6.4911,6.5597,6.5597,6.644,6.6892,6.6892,6.6894,6.7148,6.7656,6.8027,6.869,6.9667,7.0367,7.0773,4.839,4.8755,4.9308,4.94,4.9989,5.0814,5.177,5.1556,5.1331,5.1973,5.1647,5.1432,5.2009,5.2091,5.2468,5.3576,5.3712,5.3953,5.4688,5.4785,5.4892,5.5232,5.5449,5.5631,5.5723,5.5947,5.6121,5.6188,5.6286,5.6421,5.6665,5.6777,5.6931,5.7176,5.7195,5.7882,5.9313,5.9332,6.0055,6.1472,6.1497,6.1497,6.1472,6.149,6.149,6.1458,6.1504,6.1528,6.1526,6.1479,6.1458,6.1484,6.1382,6.1368,6.1396,6.1401,6.1401,6.1402,6.1396,6.1427,6.1473,6.1489,6.1524,6.1622,6.1888,6.2395,6.2918,6.2958,6.3441,6.3882,6.3647,6.3921,6.445,6.5097,6.5582,6.6029,6.636,6.5965,6.5474,6.5245,6.4677,6.3974,6.3143,6.3204,6.3067,6.2189,6.2059,6.1963,6.174,6.1707,6.1694,6.1697,6.1912,6.2306,6.2959,6.3449,6.3997,6.4622,6.5483,6.5952,6.5952,6.656,6.6893,6.6893,6.7148,6.7578,6.8203,6.8651,6.9508,7.0718,7.0946,7.1409,5.0044,5.0197,5.0287,5.041,5.0584,5.0933,5.1809,5.2038,5.2064,5.2089,5.2131,5.2155,5.2106,5.2097,5.2657,5.4376,5.4657,5.4694,5.4785,5.474,5.4405,5.3584,5.412,5.4621,5.4823,5.5595,5.6132,5.6188,5.6322,5.6772,5.7613,5.7652,5.8052,5.89,5.8914,5.9313,6.0161,6.0161,6.0571,6.1396,6.1466,6.1466,6.1402,6.1462,6.1524,6.1583,6.1607,6.1607,6.1607,6.1583,6.1554,6.1495,6.1509,6.1451,6.1396,6.1396,6.1389,6.14,6.1402,6.1396,6.1408,6.1473,6.1495,6.168,6.2585,6.2875,6.2898,6.2898,6.2974,6.2834,6.1992,6.2987,6.4222,6.4314,6.5574,6.6541,6.5722,6.5577,6.5326,6.4414,6.4269,6.4023,6.3145,6.3691,6.3965,6.3086,6.2969,6.2657,6.1815,6.1698,6.1705,6.1697,6.2461,6.2972,6.2998,6.4546,6.5525,6.5564,6.6386,6.6855,6.6855,6.6894,6.6894,6.6894,6.7734,6.8164,6.82,6.9821,7.0659,7.071,7.1561,7.1973,5.0095,5.0278,5.0438,5.0489,5.1037,5.179,5.2655,5.247,5.2282,5.2904,5.2131,5.1496,5.2,5.2508,5.3242,5.4503,5.5141,5.5324,5.4862,5.5249,5.5243,5.4376,5.4949,5.547,5.5595,5.5827,5.6032,5.6186,5.6821,5.7314,5.7617,5.8213,5.8691,5.8992,5.8957,5.9338,6.0189,6.0203,6.0598,6.1394,6.1428,6.1454,6.1466,6.149,6.1548,6.1607,6.1607,6.1607,6.1607,6.1548,6.1553,6.1554,6.1476,6.1445,6.1456,6.1415,6.1409,6.1395,6.1389,6.1428,6.1472,6.1498,6.1524,6.1637,6.1948,6.2039,6.2032,6.2041,6.206,6.2132,6.2425,6.3348,6.4353,6.4944,6.5555,6.5928,6.5636,6.4677,6.3954,6.4211,6.3821,6.3528,6.3809,6.4104,6.4201,6.3906,6.336,6.2696,6.1815,6.1707,6.191,6.2506,6.2823,6.3472,6.4627,6.5253,6.5859,6.6425,6.6738,6.6894,6.6894,6.6894,6.7168,6.7754,6.8047,6.8749,6.986,7.0423,7.1003,7.1561,7.1852,7.2008,5.0488,5.0554,5.0511,5.0553,5.1058,5.1779,5.2674,5.2468,5.2279,5.2893,5.2337,5.1908,5.2394,5.3138,5.3976,5.493,5.5567,5.5662,5.4875,5.5213,5.5195,5.4312,5.493,5.5451,0.0,5.5766,5.6098,5.6633,5.7217,5.7851,5.8498,5.9096,5.956,5.9861,5.9818,6.0067,6.0618,6.0637,6.0896,6.1393,6.1393,6.1428,6.1466,6.1497,6.1512,6.1578,6.1583,6.1607,6.1607,6.1548,6.1558,6.1583,6.1512,6.1476,6.1495,6.1796,6.1661,6.1362,6.1389,6.1428,6.1472,6.1498,6.1524,6.1578,6.1588,6.1597,6.1591,6.1591,6.1608,6.1799,6.2676,6.3549,6.4421,6.5286,6.578,6.5942,6.5636,6.4674,6.3965,6.4211,6.384,6.3645,6.4199,6.455,6.4765,6.4765,6.4297,6.3613,6.2735,6.2356,6.2501,6.3369,6.3745,6.4374,6.5508,6.5898,6.6308,6.6855,6.6894,6.6894,6.6894,6.7207,6.7637,6.8183,6.8789,6.9627,7.0698,7.1006,7.1449,7.2006,7.1991,7.1994,5.1202,5.0987,5.0542,5.0663,5.0721,5.0999,5.195,5.2159,5.2174,5.2232,5.2807,5.3282,0.0,0.0,5.4765,5.5604,5.5876,5.5681,5.484,5.4733,5.4417,0.0,0.0,0.0,0.0,0.0,5.6366,5.7482,5.7554,5.8318,6.0104,6.0233,6.061,6.1376,6.1396,6.1395,6.1393,6.1393,6.1393,6.1393,6.1393,6.1394,6.1396,6.1466,6.1501,6.1495,6.1578,6.1607,6.1607,6.1607,6.1607,6.1607,6.1607,6.1523,6.1525,6.2464,6.216,6.1318,6.1434,6.1434,6.1408,6.1473,6.1514,6.1519,6.1583,6.1607,6.1607,6.1607,6.1606,6.1814,6.273,6.3585,6.4427,6.5341,6.6174,6.6518,6.5679,6.5465,6.5211,6.4411,6.4347,6.4436,6.4436,6.5116,6.5663,6.5663,6.5624,6.5292,6.4416,6.3588,6.3401,6.4267,6.5113,6.5624,6.5664,6.6426,6.6894,6.6894,6.6894,6.6914,6.6953,6.7754,6.8242,6.832,6.9882,7.0718,7.077,7.159,7.1996,7.2006,7.1998,7.2004,5.0653,5.0696,5.0653,5.0683,5.1183,5.1914,5.2857,5.3066,5.3265,5.3975,5.3636,5.3244,5.3273,5.3865,5.4477,5.4853,5.5432,5.5596,5.4875,5.5299,0.0,5.4446,0.0,5.5651,5.5657,5.5843,5.6659,5.8333,5.8413,5.8872,5.999,6.0708,6.1188,6.1396,6.1408,6.1407,6.1393,6.1393,6.1393,6.1393,6.1393,6.1394,6.1396,6.1466,6.1501,6.1495,6.1578,6.1607,6.1607,6.1607,6.1607,6.1607,6.1607,6.1578,6.165,6.2488,6.2224,6.1538,6.2154,6.1972,6.1484,6.1544,6.1578,6.1578,6.1588,6.1607,6.1607,6.1607,6.1592,6.1952,6.3471,6.4037,6.4586,6.6106,6.6173,6.5825,6.5562,6.5025,6.4718,6.5094,6.5711,6.6151,6.6151,6.6346,6.6483,6.6483,6.5975,6.5292,6.4416,6.4101,6.4305,6.5185,6.5467,6.5859,6.6504,6.6777,6.6894,6.6893,6.6893,6.7165,6.7767,6.8064,6.8787,7.0037,7.0488,7.1014,7.1675,7.189,7.2004,7.1998,7.2004,7.2008,5.093,5.0872,5.0712,5.0712,5.1068,5.1577,5.2087,5.2536,5.3082,5.3999,5.4283,5.4381,5.44,5.5014,5.5455,5.521,5.5567,5.575,5.5342,5.5696,5.5803,0.0,5.5991,0.0,5.5996,5.6646,5.755,5.8622,5.8711,5.9269,6.0538,6.1109,6.1389,6.1389,6.1407,6.1393,6.1393,6.1393,6.1393,6.1393,6.1393,6.1407,6.1395,6.146,6.1495,6.1493,6.1573,6.1607,6.1607,6.1607,6.1607,6.1627,6.1967,6.1865,6.1743,6.3288,6.3074,6.216,6.299,6.2724,6.1972,6.1654,6.1563,6.1554,6.1554,6.1831,6.2172,6.2172,6.2454,6.3053,6.443,6.4767,6.5104,6.6479,6.6463,6.6112,6.6079,6.5725,6.5529,6.5981,6.6478,6.6795,6.6795,6.6795,6.6795,6.6795,6.6424,6.5958,6.5455,6.508,6.5205,6.6084,6.617,6.6367,6.6855,6.6894,6.6893,6.6909,6.7221,6.7631,6.8118,6.8882,6.9744,7.0683,7.1074,7.1503,7.2009,7.2009,7.2008,7.2004,7.2009,7.1991,5.1374,5.1141,5.0712,5.0712,5.0702,5.073,5.0855,5.1603,5.2543,5.354,5.4969,5.6068,5.6125,5.6666,5.6908,5.6339,5.6201,5.6142,5.6078,5.6124,5.6094,5.5846,5.6638,5.6859,5.599,5.7477,5.8519,5.8587,5.8765,5.9603,6.1308,6.1296,6.1276,6.1393,6.1393,6.1393,6.1393,6.1393,6.14,6.14,6.14,6.14,6.1407,6.1473,6.1503,6.1503,6.1563,6.1583,6.1583,6.1607,6.1588,6.1656,6.2416,6.2276,6.1964,6.4335,6.4216,6.298,6.3747,6.3423,6.2575,6.1764,6.1584,6.167,6.167,6.2328,6.3069,6.3069,6.3613,6.4395,6.5273,6.55,6.5722,6.658,6.6801,6.6798,6.6807,6.6792,6.6798,6.679,6.6795,6.6795,6.6795,6.6798,6.6798,6.6798,6.682,6.6805,6.6791,6.6197,6.6065,6.6827,6.6892,6.6894,6.6892,6.6891,6.6947,6.7059,6.7703,6.8233,6.8511,6.9938,7.0741,7.0879,7.1601,7.199,7.199,7.199,7.199,7.199,7.1992,7.1992,5.0745,5.0749,5.0712,5.0712,5.0693,5.0885,5.1616,5.2501,0.0,5.5217,5.6271,5.7101,5.7834,5.7476,5.7292,5.7872,5.7429,5.6993,5.6975,5.704,5.6798,0.0,5.6695,5.6878,5.6048,5.7458,5.8462,5.8587,5.9282,6.0176,6.1271,6.0687,6.0662,6.1373,6.1393,6.1393,6.1393,6.1393,6.1394,6.1409,6.1409,6.1409,6.1409,6.1466,6.1503,6.1503,6.1504,0.0,6.1519,6.1578,6.1578,6.1592,6.2385,6.2638,6.2791,6.4544,6.46,6.3793,6.3947,6.3427,6.2567,6.1751,6.1993,6.2566,6.2566,6.3185,6.3887,6.3887,6.4042,6.4395,6.5274,6.5491,6.5725,6.6595,6.6801,6.6808,6.6795,6.6792,6.6795,6.6792,6.6795,6.6795,6.6795,6.6805,6.6807,6.6798,6.6852,6.6859,6.6813,6.6722,6.6729,6.6871,6.6892,6.6892,6.6892,6.6908,6.7176,6.785,6.8025,6.875,7.0216,7.0554,7.1048,7.1756,7.1914,7.1992,7.1992,7.1992,7.1992,7.1992,7.1992,7.1992,5.1154,5.0919,5.0653,5.0683,5.0712,5.0933,5.1809,0.0,0.0,0.0,5.767,5.8674,5.9099,5.8848,5.8549,5.852,5.8171,5.7765,5.7265,5.7263,5.6954,5.6011,5.7043,5.7313,5.602,5.8158,5.9134,5.7901,5.9068,6.0278,6.1306,6.0997,6.0973,6.1393,6.1393,6.1393,6.1393,6.1393,6.1407,6.1408,6.1408,6.1408,6.1408,6.1421,6.1466,6.1503,6.1498,6.1519,6.1554,6.1583,6.1817,6.2196,6.3022,6.334,6.358,6.5215,6.5021,6.3947,6.3991,6.3731,6.3155,6.1868,6.2069,6.2791,6.2791,6.3739,6.4783,6.4783,6.5143,6.564,6.6081,6.618,6.628,6.6697,6.6478,6.6176,6.6128,6.5783,6.5636,6.6092,6.617,6.6173,6.6178,6.6184,6.6184,6.618,6.6192,6.6374,6.68,6.6471,6.6397,6.6849,6.689,6.689,6.6845,6.7251,6.7693,6.8074,6.895,6.9835,7.0667,7.114,7.1576,7.1991,7.1992,7.1992,7.1992,7.1992,7.1992,7.1992,7.1992,7.1992,5.1671,5.1144,5.0593,5.0653,5.0673,5.0914,5.1809,5.335,0.0,5.6849,5.8634,5.9938,6.0132,6.0025,5.9724,5.9232,5.8845,5.8363,5.7584,5.7544,5.7147,5.5972,5.7524,0.0,5.6269,5.8941,5.9934,5.7814,5.9166,6.0403,6.1075,6.1296,6.1393,6.1393,6.1393,6.1393,6.1393,6.1407,6.1407,6.1407,6.1408,6.1401,6.1388,6.1415,6.1446,6.1472,6.1498,6.1539,6.1573,6.1583,6.2035,6.2782,6.359,6.4007,6.4342,6.5849,6.5575,6.4408,6.4287,6.4255,6.3964,6.2235,6.2439,6.3293,6.3138,6.4288,6.5679,6.5679,6.6224,6.6803,6.6803,6.6792,6.6756,6.6578,6.6051,6.5521,6.5273,6.4735,6.4494,6.5194,6.5314,6.5319,6.5325,6.5311,6.5313,6.5327,6.5476,6.5773,6.6276,6.5909,6.585,6.655,6.6613,6.6671,6.6793,6.7592,6.8173,6.8362,6.9845,7.0774,7.0968,7.1632,7.2007,7.1992,7.1992,7.1992,7.1992,7.1992,7.1992,7.1992,7.1992,7.1992,5.1613,5.1074,5.0521,5.0593,5.0603,5.0845,5.1799,0.0,5.5094,5.6849,5.8634,6.0112,6.0867,6.04,6.0099,6.076,5.9645,5.862,5.8404,5.8441,5.7851,5.6183,0.0,0.0,5.7226,5.9329,6.0434,5.9531,6.0449,6.0825,6.0254,6.0973,6.1393,6.1393,6.1393,6.1393,6.1393,6.1395,6.1389,6.1389,6.1451,6.1451,6.1396,6.1456,6.1456,6.1402,6.1468,6.1498,0.0,6.1568,6.2024,6.2769,6.3583,6.4342,6.5098,6.6045,6.6295,6.6065,6.5347,6.5083,6.4811,6.3129,6.3702,6.4928,6.4208,6.5203,6.6576,6.6576,6.6687,6.6803,6.6803,6.6792,6.6597,6.5803,6.5613,6.5365,6.4492,6.4308,6.4319,6.4397,6.4423,6.4429,6.4411,6.4424,6.4427,6.4413,6.5093,6.533,6.463,6.5168,6.5639,6.5704,6.5721,6.6014,6.6733,6.7603,6.844,6.9232,7.0171,7.1059,7.1852,7.197,7.199,7.1992,7.1992,7.1992,7.1992,7.1992,7.1992,7.1992,7.1992,7.1992,5.226,5.1376,5.0468,5.0572,5.0209,5.0345,5.2338,0.0,5.4659,5.7465,5.9039,6.0151,6.0944,6.044,6.0004,6.0325,5.9395,5.8419,5.7795,5.8228,5.8123,5.6821,5.846,5.923,5.7981,5.963,6.0704,6.0447,6.0384,6.048,6.0744,6.1177,6.1393,6.1393,6.1393,6.1393,6.1393,6.1394,6.1401,6.1401,6.1434,6.1434,6.1401,6.1434,6.1452,6.1466,6.149,6.1203,0.0,6.1838,6.2381,6.2727,6.4081,6.5097,6.5818,6.6251,6.6064,6.5577,6.5293,6.52,6.5013,6.3857,6.4656,6.5823,6.45,6.532,6.6692,6.6693,6.6759,6.6806,6.6798,6.6447,6.5995,6.5636,6.4779,6.3923,6.3567,6.3081,6.2891,6.3418,6.3525,6.3515,6.352,6.3525,6.3528,6.3521,6.425,6.4681,6.4335,6.5062,6.5591,6.5604,6.5602,6.6147,6.7466,6.8379,6.9257,7.0121,7.1006,7.1641,7.1985,7.2007,7.1991,7.1992,7.1992,7.1992,7.1992,7.1992,7.1992,7.1992,7.1992,7.1992,5.3079,5.2155,5.1204,5.1312,5.0882,5.1009,0.0,0.0,5.4938,5.7666,5.8913,5.9764,6.0596,6.0083,5.9627,5.987,5.897,5.8013,5.7321,5.7784,5.793,5.7206,5.842,5.9121,5.8718,5.9965,6.0816,6.0875,6.0442,6.0468,6.1139,6.1322,6.1393,6.1393,6.1393,6.1393,6.1393,6.1407,6.1407,6.1393,6.1428,6.1428,6.14,6.1428,6.1285,6.1098,6.1633,6.1063,0.0,6.216,6.2852,6.2657,6.4401,6.5566,6.6245,6.6349,6.5997,6.5491,6.5565,6.5569,6.544,6.4655,6.5388,6.6335,6.4913,6.5517,6.6707,6.6707,6.6752,6.6798,6.6795,6.6202,6.5604,6.5604,6.4277,6.3008,6.3008,6.2325,6.1874,6.2501,6.2629,6.262,6.2623,6.2627,6.2628,6.2625,6.3368,6.3816,6.3568,6.4292,6.4821,6.4837,6.5286,6.6278,6.7966,6.9137,7.0057,7.0665,7.1516,7.1994,7.2003,7.2009,7.1991,7.1992,7.1992,7.1992,7.1992,7.1992,7.1992,7.1992,7.1992,7.1992,5.4001,5.3491,5.2984,5.305,5.3114,5.3416,0.0,5.5315,5.623,5.7135,5.8004,5.8874,5.9745,5.9248,5.8975,5.9773,5.8493,5.7387,5.7308,5.7253,5.7197,5.7207,5.7862,5.8648,5.9504,6.0315,6.08,6.08,6.0981,6.1099,6.1099,6.1291,6.1393,6.1393,6.1393,6.1393,6.1393,6.1395,6.1395,6.1393,6.1467,6.1467,6.14,6.1473,6.0968,6.0119,6.1972,6.1201,0.0,6.249,6.3362,6.2574,6.4392,6.5585,6.6312,6.6387,6.6392,6.6406,6.6454,6.6489,6.6361,6.5542,6.5875,6.6438,6.5625,6.5991,6.6711,6.6692,6.6744,6.6795,6.6792,6.619,6.5604,6.5604,6.4277,6.3008,6.3008,6.2325,6.1698,6.1718,6.1717,6.1707,6.1719,6.171,6.1714,6.1701,6.2467,6.27,6.1839,6.2492,6.3021,6.303,6.457,6.6288,6.7966,6.9684,7.0685,7.0698,7.1527,7.2003,7.2009,7.1992,7.1992,7.1992,7.1992,7.1992,7.1992,7.1992,7.1992,7.1992,7.1992,7.1992,5.4001,5.351,5.3023,5.307,5.271,5.2704,5.4246,5.4407,5.48,5.6865,5.7512,5.7985,5.8855,5.8322,5.8022,5.8864,5.7577,5.6603,5.711,5.7168,5.7371,5.7829,5.9133,5.9873,5.9553,6.0292,6.08,6.08,6.0908,6.1002,6.1089,6.1195,6.1302,6.1393,6.1393,6.1393,6.1393,6.1407,6.1407,6.1393,6.1428,6.1428,6.14,6.1473,6.1654,6.1953,6.2533,6.157,5.9832,6.3362,6.3518,6.1814,6.4764,6.6089,6.6312,6.6375,6.6389,6.6406,6.6474,6.6524,6.6533,6.6264,6.6419,6.661,6.6371,6.6473,6.6716,6.6767,6.6772,6.679,6.6795,6.619,6.5448,6.4843,6.3828,6.2833,6.2247,6.1893,6.1698,6.1698,6.1692,6.1701,6.1697,6.1702,6.1704,6.1699,6.2436,6.2685,6.1818,6.2974,6.4126,6.4707,6.6307,6.7517,6.8044,6.9703,7.0955,7.1546,7.1848,7.1996,7.2003,7.2009,7.1991,7.1992,7.1992,7.1992,7.1992,7.1992,7.1992,7.1992,7.1992,7.1992,5.4498,5.4259,5.404,5.4094,5.3772,5.3716,5.4872,5.4743,5.4768,5.6081,5.636,5.6631,5.7462,5.6624,5.6297,5.786,5.6894,5.6134,5.6618,5.6956,5.7186,5.72,5.9058,5.9973,5.9127,6.0108,6.08,6.08,6.0586,6.0623,6.0993,6.0842,6.0926,6.1306,6.1371,6.1393,6.1393,6.1393,6.1393,6.1393,6.1401,6.1401,6.14,6.1441,6.1739,6.223,6.2912,6.2152,0.0,6.4178,6.4198,6.2336,6.519,6.6322,6.634,6.6381,6.6414,6.6431,6.6501,6.6531,6.6593,6.6595,6.6669,6.6746,6.6735,6.6748,6.6744,6.6795,6.6809,6.6795,6.6795,6.619,6.5546,6.5292,6.4082,6.293,6.2735,6.2169,6.1698,6.1698,6.1705,6.1692,6.1692,6.1692,6.1692,6.1692,6.2154,6.2559,6.2676,6.3633,6.4746,6.5936,6.7576,6.8591,6.8591,7.0191,7.1421,7.1968,7.2,7.1991,7.1999,7.2006,7.1991,7.1992,7.1992,7.1992,7.1992,7.1992,7.1992,7.1992,7.1992,7.1992,0.0,5.5492,5.5724,5.5776,5.5846,5.5914,5.5981,5.5996,0.0,5.5045,5.489,5.5103,5.5857,5.4561,5.4244,5.6865,5.6453,5.5866,5.6058,5.6714,5.6834,5.581,5.7939,5.9204,5.8454,5.9781,6.0723,6.08,6.0181,6.011,6.0852,6.0372,6.0411,6.1191,6.1326,6.1386,6.1393,6.1393,6.1373,6.1289,6.1354,6.1386,6.1386,6.1444,6.1469,6.1565,6.3142,6.2801,6.1444,6.4754,6.5112,6.3776,6.5596,6.634,6.6405,6.6409,6.645,6.6508,6.6508,6.6558,6.66,6.662,6.6692,6.6806,6.6803,6.6798,6.6798,6.6792,6.6795,6.6795,6.6795,6.6249,6.5839,6.6463,6.4807,6.3284,6.3967,6.2835,6.1701,6.1701,6.1701,6.1698,6.1701,6.1798,6.1874,6.1874,6.1991,6.2657,6.4279,6.4475,6.5119,6.6815,6.8435,6.945,6.9567,7.107,7.2007,7.2007,7.2,7.1991,7.1999,7.2006,7.199,7.1992,7.1992,7.1992,7.1992,7.1992,7.1992,7.1992,7.1992,7.1992,5.5135,0.0,5.5724,5.5776,5.5846,5.5914,0.0,5.5996,5.5954,5.576,5.5722,5.578,5.5973,5.5025,5.4882,5.6952,5.5904,5.5306,5.6656,5.7529,5.7687,5.6788,5.8391,5.948,5.9242,5.9569,6.0089,6.0742,6.0643,6.0649,6.089,6.0769,6.0848,6.1182,6.1236,6.1267,6.131,6.1359,6.1041,6.034,6.0992,6.1306,6.1261,6.1986,6.3002,6.4131,6.327,6.2962,6.3129,6.3969,6.4038,6.3776,6.5654,6.6396,6.6413,6.6469,6.6501,6.6508,6.6565,6.66,6.6601,6.6655,6.6731,6.6805,6.6806,6.6808,6.6792,6.6795,6.6795,6.6795,6.6795,6.6658,6.6249,6.5158,6.4421,6.3685,6.2553,6.1987,6.1696,6.1702,6.1692,6.1703,6.1692,6.28,6.3691,6.3691,6.4785,6.5741,6.6151,6.6209,6.6873,6.8591,6.9157,6.9938,7.1285,7.1753,7.2007,7.2007,7.199,7.2002,7.1999,7.2002,7.2007,7.1992,7.1992,7.1992,7.1992,7.1992,7.1992,7.1992,7.1992,7.1992,5.5052,5.5492,5.5724,5.5776,5.5826,5.5885,5.5981,5.5998,5.5909,5.552,5.5451,5.5567,5.5935,5.488,5.4535,5.6366,5.5442,5.4947,5.6225,5.681,5.7069,5.6959,5.8176,5.9122,5.9473,5.9858,6.0127,6.0204,6.0204,6.0208,6.0256,6.035,6.0605,6.1051,6.1183,6.1261,6.1291,6.131,6.107,6.0608,6.1045,6.1444,6.1806,6.2314,6.3466,6.4961,6.3247,6.3406,6.4783,6.399,6.4097,6.4908,6.5991,6.6405,6.6413,6.6477,6.6516,6.6558,6.6579,6.6614,6.6655,6.6712,6.6779,6.6792,6.6801,6.6798,6.6795,6.6795,6.6795,6.6795,6.6795,6.6522,6.6014,6.5116,6.4286,6.3455,6.2498,6.1971,6.1701,6.1708,6.1692,6.1952,6.2769,6.3345,6.4096,6.5273,6.5897,6.6678,6.783,6.7986,6.8649,7.0406,7.0582,7.0972,7.1929,7.2007,7.2007,7.2007,7.2007,7.2,7.1999,7.1999,7.2006,7.1992,7.1992,7.1992,7.1992,7.1992,7.1992,7.1992,7.1992,7.1992,5.5153,5.5564,5.5643,5.5602,5.5593,5.5623,5.5731,5.575,5.5614,5.5097,5.4978,5.5191,5.5868,5.461,5.3995,5.5644,5.5219,5.4925,5.5536,5.5788,5.6165,5.6851,5.775,5.8619,5.9415,6.0165,6.03,5.9569,5.9627,5.9588,5.9338,5.9596,5.9985,6.0487,6.0712,6.0849,6.0857,6.0956,6.11,6.1261,6.1227,6.1722,6.2659,6.2823,6.3716,6.5083,6.3342,6.3961,6.6079,6.4327,6.4657,6.6245,6.6358,6.6394,6.6403,6.6485,6.6558,6.6606,6.66,6.6651,6.6727,6.6767,6.6798,6.6795,6.6792,6.6804,6.6795,6.6795,6.6795,6.6795,6.6795,6.619,6.5565,6.5429,6.4169,6.2967,6.283,6.2225,6.1702,6.1708,6.1805,6.2374,6.3841,6.3809,6.4361,6.6658,6.6639,6.7205,6.9508,6.9684,7.0211,7.1831,7.187,7.1851,7.1987,7.2007,7.2007,7.2007,7.2007,7.2,7.1999,7.2002,7.2007,7.1992,7.1992,7.1992,7.1992,7.1992,7.1992,7.1992,7.1992,7.1992,5.5843,5.5887,5.5308,5.4743,5.4622,5.4613,5.4648,5.4658,5.4872,5.5652,5.5815,5.5843,5.5984,5.4988,5.4551,5.5788,5.5769,5.5642,5.5747,5.6412,5.6932,5.7046,5.7788,5.8624,5.9415,5.9627,5.9646,5.9511,6.0185,5.9973,5.8569,5.9149,5.9279,5.8725,5.8748,5.8789,5.8839,5.9749,6.05,6.1136,6.1173,6.1987,6.3467,6.4242,6.5122,6.5925,6.4183,6.4522,6.6158,6.4406,6.4754,6.6367,6.6392,6.6389,6.6406,6.655,6.6579,6.662,6.6659,6.6731,6.6771,6.6739,6.6755,6.679,6.6798,6.6804,6.6795,6.6795,6.6795,6.6795,6.6795,6.619,6.5409,6.4667,6.3728,6.2799,6.2051,6.1781,6.1708,6.1709,6.2299,6.2894,6.3158,6.4889,6.6597,6.7732,6.9059,7.0328,7.146,7.0953,7.0894,7.189,7.1343,7.1206,7.1948,7.2007,7.2007,7.2007,7.2007,7.2,7.1999,7.2009,7.1992,7.1992,7.1992,7.1992,7.1992,7.1992,7.1992,7.1992,7.1992,7.1992,5.5327,5.5467,5.5051,5.4441,5.433,5.4207,5.3656,5.3563,5.3744,5.4322,5.4785,5.5238,5.5741,5.546,5.517,5.5191,5.5072,5.4998,5.5049,5.5793,5.6515,5.6997,5.7362,5.7929,5.8761,5.8858,5.8665,5.8184,5.8954,5.8915,5.7665,5.8391,5.8682,5.8306,5.8331,5.8343,5.8363,5.8432,5.9376,6.1109,6.108,6.225,6.4357,6.4812,6.5431,6.6108,6.4325,6.4578,6.6167,6.4387,6.4725,6.6405,6.6409,6.6134,6.5763,6.586,6.6212,6.6657,6.6736,6.6767,6.6782,6.6762,6.6778,6.6795,6.6807,6.679,6.6795,6.6795,6.6795,6.6795,6.6795,6.5843,6.4794,6.4403,6.3279,6.2192,6.1782,6.1699,6.1699,6.1708,6.2399,6.3442,6.4818,6.6021,6.742,6.9235,7.0191,7.0679,7.0601,7.066,7.0855,7.1245,7.0933,7.105,7.1929,7.2007,7.2007,7.2007,7.2,7.1993,7.1999,7.199,7.1992,7.1992,7.1992,7.1992,7.1992,7.1992,7.1992,7.1992,7.1992,7.1992,5.5057,5.5042,5.4624,5.4467,5.4341,5.407,5.3329,5.3015,5.3008,5.3341,5.3919,5.4564,5.5271,5.5806,5.5855,5.4898,5.4861,5.4882,5.4735,5.5278,5.5945,5.6629,5.6898,5.7272,5.7934,5.8184,5.7934,5.708,5.7819,5.7838,5.6753,5.7527,5.7893,5.7703,5.7944,5.8063,5.8012,5.7468,5.8597,6.1369,6.1138,6.251,6.5276,6.5266,6.5585,6.6107,6.4698,6.4904,6.6148,6.4783,6.4977,6.6094,6.6107,6.5751,6.5226,6.5298,6.5909,6.6717,6.6763,6.6791,6.6808,6.6807,6.6792,6.6795,6.6795,6.6795,6.6795,6.6795,6.6798,6.6761,6.6563,6.5419,6.4253,6.4035,6.2826,6.1699,6.1701,6.169,6.1705,6.1701,6.257,6.3987,6.6143,6.6685,6.7615,7.0035,7.0406,7.0152,6.9489,7.0152,7.0699,7.0699,7.0699,7.105,7.1929,7.2007,7.2007,7.2007,7.1991,7.1999,7.1999,7.199,7.1992,7.1992,7.1992,7.1992,7.1992,7.1992,7.1992,7.1992,7.1992,7.1992,5.592,5.4971,5.3927,5.4884,5.4664,5.4188,5.4189,5.3522,5.3188,5.419,5.4453,5.4491,5.4491,5.581,5.6585,5.5577,5.6214,5.653,5.5722,5.5665,5.5744,5.5873,5.6554,5.7022,5.7099,5.7838,5.7934,5.708,5.7819,5.7569,5.5876,5.6618,5.6714,5.5915,5.6676,5.7131,5.7184,5.7129,5.8828,6.22,6.1457,6.2859,6.6108,6.6056,6.6044,6.6102,6.59,6.5931,6.6123,6.6099,6.575,6.5203,6.5266,6.5282,6.5291,6.5366,6.5945,6.6692,6.6702,6.6748,6.681,6.6808,6.6804,6.6795,6.6795,6.6795,6.6795,6.6795,6.6805,6.6633,6.588,6.5009,6.4093,6.3291,6.2386,6.1694,6.171,6.1693,6.1701,6.1701,6.3069,6.4514,6.5526,6.6307,6.74,6.9215,6.9489,6.9469,6.9411,7.0152,7.0699,7.0699,7.0699,7.105,7.1929,7.2007,7.2007,7.2007,7.1991,7.1999,7.1999,7.199,7.1992,7.1992,7.1992,7.1992,7.1992,7.1992,7.1992,7.1992,7.1992,7.1992,5.525,5.496,5.461,5.5186,5.5122,5.4668,5.3548,5.3027,5.2905,5.3357,5.3866,5.445,5.5085,5.5687,5.598,5.572,5.594,5.6228,5.6472,5.603,5.5885,5.6368,5.6297,5.6151,5.6026,5.6425,5.6538,5.6159,5.647,5.6395,5.5742,5.6011,5.603,5.5703,5.5978,5.6162,5.6227,5.6818,5.8585,6.1483,6.1235,6.2878,6.6134,6.6112,6.579,6.5294,6.5219,6.4974,6.4608,6.4618,6.4512,6.4352,6.4437,6.4837,6.5375,6.5386,6.5976,6.676,6.6767,6.6785,6.6801,6.6807,6.6792,6.6795,6.6795,6.6795,6.6798,6.6805,6.6809,6.6733,6.6436,6.5334,6.4228,6.3886,6.2732,6.1696,6.1707,6.1696,6.171,6.1698,6.3555,6.5214,6.5546,6.7166,6.8454,6.8571,6.904,6.9196,6.8669,6.8884,6.9508,7.0582,7.1187,7.1421,7.1206,7.1694,7.1772,7.1226,7.1698,7.1999,7.1999,7.199,7.1992,7.1992,7.1992,7.1992,7.1992,7.1992,7.1992,7.1992,7.1992,7.1992,5.4826,5.4693,5.4629,5.5166,5.5097,5.4696,5.3754,5.334,5.3168,5.323,5.3733,5.4456,5.5476,5.5826,5.5892,5.5784,5.5915,5.6159,5.653,5.6036,5.5807,5.6321,5.5915,5.5527,5.542,5.5527,5.5596,5.5573,5.5607,5.566,5.5682,5.5931,5.6096,5.6107,5.6593,5.6739,5.6545,5.7433,5.9065,6.1395,6.0606,6.2287,6.6102,6.6077,6.5581,6.4756,6.4706,6.4262,6.362,6.359,6.3535,6.3449,6.3281,6.3928,6.4957,6.5012,6.5773,6.6805,6.6792,6.6801,6.679,6.6795,6.6795,6.6798,6.68,6.6802,6.6805,6.6834,6.6838,6.6761,6.6486,6.5361,6.4233,6.3951,6.275,6.1668,6.1664,6.1668,6.1754,6.2042,6.3787,6.5351,6.5897,6.742,6.8474,6.8142,6.861,6.8669,6.7791,6.8161,6.8962,7.0152,7.107,7.1248,7.0353,7.0843,7.1036,7.0724,7.1252,7.1709,7.1981,7.199,7.1992,7.1992,7.1992,7.1992,7.1992,7.1992,7.1992,7.1992,7.1992,7.1992,5.4856,5.4175,5.369,5.4814,5.4498,5.419,5.5186,5.4746,5.4129,5.419,5.4261,5.4568,5.5431,5.6318,5.6617,5.5827,5.6426,5.6695,5.5818,5.5585,5.5504,5.5523,5.5383,5.532,5.5395,5.5395,5.5432,5.5492,5.5504,5.5527,5.5596,5.6422,5.6917,5.6992,5.8607,5.9125,5.8402,5.9198,6.0503,6.2258,5.9598,6.1064,6.6072,6.5978,6.5488,6.4667,6.4595,6.4126,6.3388,6.3529,6.3139,6.2419,6.1778,6.2534,6.3998,6.4157,6.5281,6.6787,6.6785,6.6792,6.6795,6.6792,6.6795,6.6798,6.6809,6.6791,6.6815,6.6881,6.6888,6.6696,6.5812,6.4951,6.4068,6.321,6.2276,6.1598,6.1602,6.1598,6.1875,6.2811,6.3703,6.4846,6.6502,6.6795,6.7107,6.7966,6.8083,6.7771,6.6912,6.8318,6.9391,6.9391,7.0172,7.0333,6.9468,6.939,6.9761,7.0638,7.0695,7.1088,7.1962,7.199,7.1992,7.1992,7.1992,7.1992,7.1992,7.1992,7.1992,7.1992,7.1992,7.1992,5.4856,5.4727,5.4619,5.5009,5.4964,5.5069,5.6027,5.5607,5.5032,5.5092,5.5128,5.5251,5.5602,5.5874,5.5981,5.5742,5.5915,5.6214,5.656,5.5969,5.5698,5.6206,5.5696,5.5255,5.5121,5.5294,5.5395,5.5358,5.5444,5.5504,5.5527,5.5823,5.628,5.6917,5.7417,5.7873,5.8325,5.9133,6.0129,6.1304,6.1087,6.2436,6.5053,6.3191,6.2533,6.2876,6.2852,6.2409,6.1715,6.1853,6.1772,6.1635,6.2157,6.2653,6.3175,6.3925,6.4529,6.5074,6.5728,6.597,6.6048,6.6619,6.6802,6.6809,6.6791,6.6836,6.6862,6.6889,6.6417,6.5866,6.5659,6.4499,6.3312,6.306,6.2317,6.1666,6.1671,6.1668,6.1925,6.2825,6.4197,6.537,6.5878,6.6932,6.7595,6.7244,6.7185,6.7088,6.6834,6.8318,6.9176,6.8552,6.9274,6.9433,6.8557,6.9047,6.9516,6.9767,7.0356,7.1085,7.1962,7.199,7.1992,7.1992,7.1992,7.1992,7.1992,7.1992,7.1992,7.1992,7.1992,7.1992,5.4408,5.4684,5.4946,5.5,5.5094,5.5323,5.5982,5.6033,5.5878,5.555,5.5539,5.5596,5.564,5.5673,5.5703,5.5703,5.5703,5.5865,5.634,5.583,5.5562,5.5948,5.55,5.5094,5.5014,5.5176,5.5281,5.5268,5.5377,5.5451,5.5456,5.618,5.684,5.7401,5.8089,5.8566,5.8814,5.9611,6.0307,6.0903,6.0654,6.1636,6.3627,6.239,6.1928,6.2086,6.1784,6.1404,6.1012,6.1127,6.1191,6.1261,6.1895,6.2374,6.2787,6.3419,6.4107,6.4801,6.5367,6.5792,6.6151,6.6646,6.6807,6.6793,6.6821,6.6865,6.6829,6.6479,6.5986,6.5394,6.4735,6.3787,6.2991,6.3004,6.2336,6.1703,6.1693,6.1691,6.1966,6.2825,6.4138,6.5194,6.5546,6.6697,6.74,6.6873,6.6795,6.6795,6.6795,6.8025,6.8552,6.7673,6.8357,6.8535,6.7661,6.8388,6.9035,6.9388,7.0225,7.1089,7.1965,7.1991,7.1992,7.1992,7.1992,7.1992,7.1992,7.1992,7.1992,7.1992,7.1992,7.1992,5.3742,5.4276,5.4829,5.4871,5.5057,5.5263,5.5377,5.6128,5.6551,5.5677,5.5596,5.5662,5.5618,5.5671,5.5703,5.5703,5.5703,5.5651,5.5516,5.5383,5.5255,5.5121,5.4985,5.4946,5.5,5.5066,5.5135,5.5197,5.5339,5.5403,5.5408,5.7064,5.8064,5.8208,5.9804,6.0285,5.9483,6.0354,6.0758,6.0638,5.9154,5.9692,6.2009,6.2664,6.2587,6.1954,6.129,6.1012,6.1012,6.108,6.1146,6.1219,6.1271,6.1822,6.2582,6.2741,6.3832,6.527,6.5434,6.6008,6.6695,6.6768,6.6791,6.6815,6.6889,6.6891,6.6714,6.5832,6.5537,6.5082,6.3425,6.295,6.2874,6.2887,6.2286,6.1702,6.1702,6.176,6.2073,6.2951,6.3821,6.4687,6.5565,6.6327,6.6795,6.6795,6.6795,6.6795,6.6795,6.7498,6.7673,6.6873,6.7517,6.7659,6.6867,6.7601,6.8465,6.9343,7.0213,7.1093,7.1951,7.1992,7.1992,7.1992,7.1992,7.1992,7.1992,7.1992,7.1992,7.1992,7.1992,7.1992,5.3756,5.432,5.4871,5.4886,5.5537,5.6055,5.5517,5.6134,5.6551,5.5677,5.5562,5.5629,5.5662,5.5703,5.5703,5.5703,5.5703,5.5651,5.5516,5.5383,5.5268,5.5189,5.5052,5.5,5.5066,5.5149,5.5216,5.5268,5.5345,5.5408,5.548,5.6548,5.7486,5.8189,5.9227,5.9365,5.8504,6.0084,6.0161,5.8785,5.9823,6.0619,6.1123,5.9942,6.0074,6.1223,6.1109,6.108,6.1089,6.1155,6.1192,6.121,6.1267,6.1415,6.1691,6.2445,6.2918,6.3437,6.4972,6.5586,6.5827,6.6566,6.6807,6.6807,6.6888,6.6863,6.6655,6.5827,6.5073,6.4272,6.3262,6.2493,6.1981,6.1974,6.1837,6.1696,6.1696,6.2242,6.2984,6.3845,6.4726,6.5585,6.6405,6.6697,6.6795,6.6795,6.6795,6.6795,6.6795,6.6951,6.701,6.6815,6.6971,6.6993,6.682,6.7592,6.8476,6.9335,7.0228,7.1092,7.195,7.1992,7.1992,7.1992,7.1992,7.1992,7.1992,7.1992,7.1992,7.1992,7.1992,7.1992,5.309,5.3471,5.3817,5.4302,5.5151,5.5796,5.5466,5.5825,5.6107,5.5646,5.5573,5.5618,5.5692,5.603,5.6329,5.6329,5.6329,5.6255,5.6094,5.5663,5.5307,5.5176,5.5094,5.5052,5.5094,5.5162,5.5229,5.5294,5.5358,5.5605,5.6098,5.7001,5.7901,5.8746,5.9685,5.995,5.9492,6.0468,6.0479,5.9557,6.0498,6.0946,6.092,6.0001,6.0131,6.1041,6.1089,6.1127,6.1155,6.1192,6.1219,6.1245,6.1289,6.1297,6.1364,6.1842,6.226,6.2742,6.3764,6.4676,6.5483,6.5962,6.6422,6.6812,6.6844,6.6838,6.6622,6.5783,6.5201,6.4538,6.3279,6.2922,6.2688,6.1888,6.1698,6.1815,6.2228,6.2676,6.3262,6.4123,6.4999,6.5722,6.6151,6.6541,6.6795,6.6795,6.6795,6.6795,6.6795,6.6795,6.6795,6.6795,6.6795,6.6795,6.6795,6.7607,6.8474,6.9339,7.0228,7.1092,7.1952,7.1992,7.1992,7.1992,7.1992,7.1992,7.1992,7.1992,7.1992,7.1992,7.1992,7.1992,5.2207,5.2411,5.2665,5.3639,5.4444,5.5057,5.5339,5.548,5.5562,5.5573,5.5711,5.586,5.5915,5.6637,5.7223,5.7212,5.7077,5.6906,5.6715,5.5931,5.532,5.5135,5.5121,5.5121,5.5149,5.5203,5.5281,5.5345,5.5408,5.5832,5.6786,5.7708,5.8589,5.9415,6.0404,6.0768,6.0448,6.0822,6.0843,6.0543,6.0843,6.1,6.1002,6.1012,6.1061,6.1099,6.1108,6.1155,6.121,6.1199,6.1253,6.1297,6.1297,6.1297,6.1308,6.1444,6.195,6.2594,6.276,6.393,6.5357,6.539,6.6028,6.6766,6.6797,6.6789,6.66,6.5737,6.5496,6.5102,6.335,6.3448,6.3634,6.2259,6.1913,6.213,6.2833,6.3243,6.3652,6.4375,6.5214,6.5819,6.5819,6.6366,6.6795,6.6795,6.6795,6.6795,6.6795,6.6795,6.6795,6.6795,6.6795,6.6795,6.6795,6.7607,6.8418,6.9127,7.0132,7.1014,7.1758,7.1914,7.1992,7.1992,7.1992,7.1992,7.1992,7.1992,7.1992,7.1992,7.1992,7.1992,5.1599,5.2055,5.2715,5.3653,5.3984,5.431,5.5186,5.5409,5.5444,5.5504,5.6203,5.6819,5.683,5.753,5.8104,5.8058,5.7413,5.6836,5.6639,5.5855,5.5281,5.5203,5.5189,5.5223,5.5358,5.5371,5.5432,5.5551,5.5562,5.598,5.6912,5.7805,5.8674,5.956,6.0481,6.0233,5.8659,6.0218,6.0218,5.8669,6.0237,6.0992,6.1002,6.107,6.1089,6.1099,6.1155,6.1201,6.1191,6.1255,6.1291,6.1297,6.1297,6.1253,6.1296,6.2051,6.2382,6.2556,6.3422,6.4352,6.5159,6.5348,6.5952,6.6649,6.6768,6.6762,6.6546,6.5722,6.5504,6.5102,6.3347,6.3029,6.3104,6.2886,6.2833,6.2852,6.2969,6.4199,6.5292,6.5409,6.6073,6.6639,6.6639,6.6737,6.6795,6.6795,6.6795,6.6795,6.6795,6.6795,6.6795,6.6795,6.6795,6.6795,6.6795,6.7607,6.8141,6.8279,6.9798,7.0759,7.0877,7.1601,7.1992,7.1992,7.1992,7.1992,7.1992,7.1992,7.1992,7.1992,7.1992,7.1992,5.076,5.1663,5.2608,5.2609,5.334,5.4187,5.4668,5.5162,5.5516,5.5551,5.6706,5.7569,5.7099,5.8046,5.8762,5.8285,5.7858,5.7364,5.6741,5.5913,5.5352,5.5326,5.5313,5.5345,5.5395,5.5432,5.5492,5.5585,5.6091,5.678,5.7681,5.8582,5.9481,6.0357,6.0776,6.0614,5.9822,6.0645,6.0664,5.9891,6.0684,6.108,6.1108,6.1099,6.1099,6.1099,6.1164,6.1219,6.1253,6.1294,6.1294,6.1297,6.1253,6.1191,6.1242,6.2113,6.2123,6.1804,6.2747,6.3632,6.4388,6.4473,6.5432,6.6562,6.665,6.6336,6.5857,6.5523,6.5431,6.5041,6.3343,6.3647,6.4167,6.3218,6.375,6.4453,6.4453,6.5058,6.5722,6.617,6.6561,6.6795,6.6795,6.6795,6.6795,6.6795,6.6795,6.6795,6.6795,6.6795,6.6795,6.6795,6.6795,6.6795,6.6795,6.7151,6.7588,6.8062,6.8816,6.9682,7.0661,7.1074,7.1504,7.1992,7.1992,7.1992,7.1992,7.1992,7.1992,7.1992,7.1992,7.1992,4.9957,5.0999,5.2002,5.1442,5.2441,5.369,5.4196,5.4821,5.5346,5.5558,5.6851,5.778,5.7096,5.83,5.9194,5.8563,5.8047,5.7487,5.6773,5.5938,5.5409,5.5409,5.539,5.542,5.5456,5.5492,5.5551,5.5618,5.6492,5.7412,5.8263,5.9212,6.0111,6.098,6.1011,6.1022,6.1022,6.108,6.1099,6.1099,6.1099,6.1137,6.1164,6.1117,6.1099,6.1099,6.1164,6.1227,6.1281,6.1297,6.1289,6.1281,6.1219,6.1155,6.1176,6.1834,6.166,6.1195,6.1834,6.2809,6.3789,6.3786,6.5005,6.6411,6.6281,6.5795,6.5246,6.5097,6.506,6.473,6.3281,6.3881,6.4613,6.3569,6.4316,6.539,6.5819,6.5897,6.6073,6.6678,6.6795,6.6795,6.6795,6.6795,6.6795,6.6795,6.6795,6.6795,6.6795,6.6795,6.6795,6.6795,6.6795,6.6795,6.6795,6.6795,6.7073,6.7727,6.7972,6.8683,6.9996,7.0253,7.0781,7.164,7.168,7.1777,7.1992,7.1992,7.1992,7.1992,7.1992,7.1992,4.932,4.9822,5.0589,5.0492,5.1154,5.2253,5.392,5.438,5.4674,5.5442,5.6382,5.7019,5.6925,5.8277,5.9343,5.9179,5.7813,5.6735,5.6632,5.5899,5.5409,5.5395,5.5395,5.5456,5.5573,5.5585,5.5618,5.5692,5.6564,5.7454,5.8263,5.9253,6.0171,6.0963,6.107,6.1089,6.1089,6.1099,6.1099,6.1099,6.1099,6.1099,6.1099,6.1099,6.1099,6.1099,6.1164,6.121,6.121,6.1261,6.1253,6.121,6.1201,6.1155,6.1118,6.1157,6.1137,6.1118,6.1157,6.2288,6.3719,6.379,6.4947,6.6168,6.5479,6.5239,6.5061,6.4293,6.4121,6.3964,6.3121,6.301,6.3321,6.406,6.4299,6.4807,6.6385,6.6737,6.6756,6.6795,6.6795,6.6795,6.6795,6.6795,6.6795,6.6795,6.6795,6.6795,6.6795,6.6795,6.6795,6.6795,6.6795,6.6795,6.6795,6.6795,6.6817,6.6856,6.7637,6.8134,6.8232,6.9022,6.9883,7.0742,7.0762,7.1172,7.1992,7.1992,7.1992,7.1992,7.1992,7.1992,4.8577,4.8731,4.9096,4.9683,5.0412,5.1301,5.2496,5.3599,5.4482,5.477,5.5997,5.697,5.6855,5.7784,5.8354,5.7711,5.7066,5.6448,5.5906,5.5581,5.5415,5.5456,5.5504,5.5551,5.5596,5.5629,5.5451,5.4972,5.6799,5.7833,5.7601,5.9534,6.0761,6.1051,6.1089,6.1099,6.1099,6.1099,6.1099,6.1099,6.1099,6.1117,6.1164,6.1108,6.1117,6.1164,6.1146,6.1155,6.121,6.1227,6.1219,6.1201,6.1155,6.1108,6.1176,6.1737,6.1582,6.1176,6.1737,6.2336,6.2965,6.3552,6.4133,6.4685,6.5028,6.4373,6.3476,6.3223,6.3208,6.3082,6.2262,6.2508,6.3036,6.3374,6.4707,6.5936,6.6014,6.6444,6.6795,6.6795,6.6795,6.6795,6.6795,6.6795,6.6795,6.6795,6.6795,6.6795,6.6795,6.6795,6.6795,6.6795,6.6795,6.6795,6.6795,6.6795,6.6795,6.6795,6.7129,6.7568,6.8075,6.8436,6.9023,6.9844,6.9902,7.0605,7.1992,7.1992,7.1992,7.1992,7.1992,7.1992,4.7833,4.7974,4.8262,4.8576,4.9459,5.0375,5.0972,5.2385,5.3595,5.3595,5.4942,5.6104,5.6015,5.6678,5.7109,5.6735,5.6391,5.6008,5.5472,5.542,5.5456,5.5527,5.5573,5.5607,5.5629,5.5662,5.5618,5.5388,5.7253,5.8297,5.8076,5.9988,6.1099,6.1099,6.108,6.107,6.107,6.107,6.107,6.107,6.107,6.1099,6.1164,6.1108,6.1117,6.1164,6.1108,6.1137,6.1164,6.1164,6.1164,6.1155,6.1127,6.1099,6.1176,6.1756,6.1601,6.1176,6.1756,6.2162,6.2511,6.3071,6.3468,6.3768,6.4085,6.3432,6.2513,6.2293,6.2283,6.2245,6.1727,6.2251,6.2945,6.2984,6.4511,6.5897,6.5643,6.6229,6.6795,6.6795,6.6795,6.6795,6.6795,6.6795,6.6795,6.6795,6.6795,6.6795,6.6795,6.6795,6.6795,6.6795,6.6795,6.6795,6.6795,6.6795,6.6795,6.6795,6.6856,6.7138,6.7685,6.7733,6.8144,6.8984,6.9043,6.9746,7.1133,7.1426,7.1562,7.1562,7.1855,7.1992,0.0,0.0,0.0,4.7221,4.8219,4.9425,4.9458,5.0759,5.1973,5.1992,5.3282,5.4395,5.4395,5.499,5.5737,5.6416,5.5906,5.5408,5.5408,5.5468,5.5527,5.5596,5.5596,5.5618,5.5684,5.5703,5.6062,5.6923,5.7814,5.8713,5.9631,6.0587,6.1099,6.1089,6.1032,6.1002,6.1002,6.0999,6.0999,6.1002,6.1002,6.1032,6.1099,6.1099,6.1099,6.1099,6.1099,6.1099,6.1099,6.1099,6.1099,6.1099,6.1099,6.1099,6.1099,6.1099,6.1099,6.1099,6.1099,6.166,6.2375,6.2394,6.2955,6.3468,6.2646,6.2432,6.2301,6.1531,6.1389,6.15,6.1571,6.2311,6.3028,6.2969,6.3652,6.4533,6.537,6.619,6.6776,6.6795,6.6795,6.6795,6.6795,6.6795,6.6795,6.6795,6.6795,6.6795,6.6795,6.6795,6.6795,6.6795,6.6795,6.6798,6.6798,6.6798,6.6798,6.6798,6.6895,6.6943,6.6943,6.6932,6.7344,6.8222,6.8203,6.8574,6.9375,7.0234,7.0664,7.0683,7.1562,7.1953,4.6163,0.0,0.0,0.0,0.0,0.0,4.8483,4.9924,5.1297,5.1876,5.3321,5.4456,5.4414,5.5042,5.5428,5.4998,5.5243,5.5492,5.5539,5.5562,5.5596,5.5651,5.5662,5.5692,5.5703,5.5703,5.531,5.4339,5.5721,5.6705,5.6975,5.9553,6.1021,6.102,6.1009,6.0999,6.0999,6.0997,6.0999,6.1002,6.1002,6.1032,6.1099,6.1099,6.1099,6.1099,6.1099,6.1099,6.1099,6.1099,6.1099,6.1099,6.1099,6.1099,6.1099,6.1099,6.1099,6.1099,6.1099,6.1253,6.1563,6.2201,6.2143,6.1892,6.2278,6.2044,6.1599,6.1372,6.1354,6.1451,6.1563,6.276,6.3613,6.2364,6.3204,6.4377,6.4609,6.5331,6.6092,6.6697,6.6795,6.6795,6.6795,6.6795,6.6795,6.6795,6.6795,6.6795,6.6795,6.6795,6.6795,6.6795,6.6795,6.68,6.6807,6.6807,6.6811,6.6877,6.7472,6.7847,6.7847,6.7831,6.8222,6.9043,6.8496,6.8301,6.8535,6.9355,6.9765,6.9785,7.0644,7.1055,0.0,0.0,0.0,0.0,0.0,0.0,4.7267,4.8593,4.9934,5.0402,5.1824,5.3107,5.3416,5.4091,5.4463,5.4044,5.434,5.4855,5.5511,5.564,5.5703,5.5735,5.5756,5.5766,5.5745,5.5418,5.4956,5.436,5.4939,5.5778,5.6849,5.8789,6.0227,6.0978,6.0965,6.0955,6.0955,6.0933,6.0935,6.095,6.1,6.1011,6.107,6.1089,6.1099,6.1099,6.1099,6.1099,6.1099,6.1099,6.1099,6.1099,6.1099,6.1099,6.1099,6.1099,6.1099,6.1099,6.1099,6.1099,6.1176,6.1698,6.1534,6.1242,6.1746,6.1623,6.1302,6.1306,6.1611,6.1892,6.1654,6.2662,6.3411,6.203,6.2481,6.3418,6.4143,6.4707,6.539,6.6561,6.6795,6.6795,6.6795,6.6795,6.6795,6.6795,6.6795,6.6795,6.6795,6.6795,6.6795,6.6795,6.6795,6.68,6.6791,6.7123,6.7227,6.6922,6.7729,6.82,6.82,6.7851,6.8047,6.8887,6.8437,6.8379,6.8691,6.9199,6.9609,6.9961,7.084,7.123,0.0,0.0,0.0,0.0,4.6305,0.0,4.5938,4.7055,4.8294,4.8398,4.9679,5.1018,5.178,5.2492,5.2982,5.3073,5.3111,5.3675,5.5267,5.5504,5.5585,5.5778,5.5769,5.576,5.5787,5.5093,5.4911,5.5538,5.4996,5.5611,5.7897,5.8389,5.9325,6.0938,6.0922,6.09,6.09,6.0835,6.0835,6.0911,6.0965,6.1009,6.1002,6.107,6.1099,6.1099,6.1099,6.1099,6.1099,6.1099,6.1099,6.1099,6.1099,6.1099,6.1099,6.1099,6.1099,6.1099,6.1002,6.1041,6.1099,6.1002,6.1068,6.1201,6.1201,6.1242,6.1306,6.1294,6.1983,6.2538,6.1779,6.2285,6.275,6.1891,6.1776,6.2306,6.3945,6.4299,6.4767,6.6366,6.6737,6.6795,6.6795,6.6795,6.6795,6.6795,6.6795,6.6795,6.6795,6.6795,6.6795,6.6795,6.6795,6.6839,6.6948,6.7652,6.7832,6.7215,6.7904,6.8375,6.8474,6.7558,6.75,6.8457,6.8379,6.873,6.9531,6.9512,6.9863,7.0586,7.1445,7.1855,0.0,0.0,0.0,0.0,0.0,0.0,4.5034,4.6151,4.7572,4.8315,4.9304,5.006,5.0248,5.0907,5.1235,5.061,5.1049,5.226,5.4477,5.4208,5.4285,5.5643,5.518,5.5016,5.5647,5.557,5.4942,5.3665,5.4759,5.5686,5.6167,5.8866,6.0534,6.0835,6.0823,6.0823,6.0823,6.0812,6.0835,6.0911,6.0965,6.1009,6.1002,6.107,6.1099,6.1099,6.1099,6.1099,6.1099,6.1099,6.1099,6.1099,6.1099,6.1099,6.1099,6.1099,6.1099,6.1002,6.0364,6.0557,6.0983,6.0344,6.0586,6.1108,6.1108,6.1199,6.1294,6.1299,6.1983,6.2516,6.1714,6.2171,6.2645,6.1886,6.2247,6.3028,6.4084,6.4299,6.4592,6.5624,6.6366,6.6795,6.6795,6.6795,6.6795,6.6795,6.6795,6.6795,6.6795,6.6795,6.6795,6.6795,6.6795,6.7073,6.7787,6.8004,6.834,6.8875,6.9073,6.9486,7.0173,6.8748,6.8652,7.0176,6.9512,6.959,7.0449,6.9765,6.9492,6.9668,7.0547,7.0957,0.0,0.0,0.0,4.5297,0.0,0.0,0.0,4.5351,4.6094,4.656,4.7342,4.8086,4.8524,4.8887,4.8986,4.8651,4.9274,5.0216,5.1397,5.2244,5.3209,5.442,5.4169,5.4198,5.4983,5.4278,5.3176,5.1809,5.3377,5.4776,5.5607,5.8123,5.9946,6.0762,6.08,6.08,6.08,6.08,6.0823,6.0846,6.0955,6.1008,6.1,6.1061,6.1099,6.1099,6.1099,6.1099,6.1099,6.1099,6.1099,6.1099,6.1099,6.1099,6.1099,6.1099,6.0847,6.0441,6.0035,6.0151,6.0441,6.0035,6.0479,6.1155,6.1182,6.1261,6.1396,6.1819,6.2298,6.2614,6.219,6.2474,6.2766,6.2392,6.2666,6.336,6.4667,6.4609,6.455,6.5429,6.5936,6.619,6.619,6.6522,6.6795,6.6795,6.6795,6.6795,6.6795,6.6795,6.6795,6.6795,6.7185,6.762,6.806,6.8902,6.9394,6.9402,6.9403,6.96,7.0033,6.8434,6.8358,7.0078,7.0078,7.0488,7.1347,7.0918,7.0469,7.0078,7.0937,7.1347,0.0,0.0,0.0,0.0,0.0,4.4802,0.0,0.0,0.0,4.4604,4.5133,4.5834,4.6539,4.6581,4.6547,4.6648,4.7217,4.7674,4.777,4.9505,5.1288,5.2685,5.268,5.2935,5.3849,5.2457,5.1267,5.0677,5.2313,5.3999,5.5527,5.7574,5.935,6.0762,6.08,6.08,6.08,6.08,6.0812,6.0823,6.0944,6.0997,6.0989,6.107,6.1099,6.1099,6.1099,6.1099,6.1099,6.1099,6.1099,6.1099,6.1099,6.1099,6.1079,6.0925,6.046,5.9841,5.9513,5.9609,5.9861,5.9706,6.0361,6.121,6.1289,6.131,6.1458,6.2156,6.24,6.2424,6.2452,6.2663,6.2882,6.2894,6.3201,6.3848,6.5077,6.4804,6.4514,6.5214,6.5351,6.5409,6.5565,6.6268,6.6795,6.6795,6.6795,6.6795,6.6795,6.6795,6.6854,6.7029,6.7673,6.8245,6.8568,6.9896,7.0466,6.9926,6.9731,6.9653,6.9656,6.8198,6.8123,6.9707,7.0371,7.1133,7.1992,7.1992,7.164,7.0976,7.168,7.1992,0.0,0.0,0.0,0.0,4.5568,0.0,4.4559,0.0,4.4539,4.3877,0.0,4.3913,4.4013,0.0,0.0,4.4036,4.4108,4.4403,4.5114,4.5457,4.7037,5.0804,5.0476,5.0557,5.2126,5.1184,5.0746,5.141,5.3139,5.458,5.5547,5.8723,6.0608,6.0781,6.08,6.08,6.08,6.08,6.0835,6.088,6.0965,6.0999,6.0992,6.107,6.1099,6.1099,6.1099,6.1099,6.1099,6.1099,6.1099,6.1099,6.1099,6.1099,6.1002,6.0306,5.9977,5.9687,5.8139,5.8604,5.9764,5.899,5.9858,6.121,6.1289,6.131,6.1322,6.1419,6.1438,6.1461,6.1519,6.2176,6.2825,6.2887,6.4138,6.5155,6.457,6.4377,6.4338,6.4436,6.4455,6.4687,6.5468,6.6268,6.6795,6.6795,6.6795,6.6795,6.6795,6.6795,6.7107,6.7869,6.8044,6.8733,7.0269,7.0592,7.0999,7.1655,7.0982,7.0553,7.0544,6.9622,6.9568,7.0545,7.0644,7.1133,7.1992,7.1992,7.1953,7.1855,7.1953,7.1992,0.0,0.0,0.0,0.0,0.0,0.0,4.4033,0.0,4.3037,0.0,0.0,0.0,0.0,0.0,0.0,0.0,4.3276,4.3539,4.3373,4.3775,4.5073,4.7726,4.7997,4.8398,4.9459,4.9589,4.9557,4.9412,5.0967,5.2778,5.4741,5.7124,5.9142,6.0742,6.08,6.08,6.08,6.08,6.0835,6.0911,6.0965,6.1009,6.1002,6.107,6.1099,6.1099,6.1099,6.0847,6.0402,6.0402,6.0402,6.0402,6.0402,6.0402,6.0364,6.0016,5.9261,5.8372,5.8139,5.8526,5.9251,5.9897,6.0592,6.121,6.1289,6.131,6.1419,6.1904,6.1725,6.1476,6.2016,6.2445,6.2886,6.3457,6.4595,6.5445,6.5114,6.5058,6.4902,6.4397,6.4707,6.5175,6.5546,6.6268,6.6795,6.6795,6.6795,6.6795,6.6795,6.6795,6.7127,6.8005,6.8552,6.9357,7.0581,7.1156,7.1605,7.1975,7.1186,7.0466,6.9971,7.0087,7.0325,7.0683,7.1191,7.1621,7.1992,7.1992,7.1992,7.1992,7.1992,7.1992,4.8356,0.0,0.0,0.0,0.0,0.0,0.0,0.0,0.0,0.0,0.0,0.0,0.0,0.0,0.0,0.0,0.0,4.2691,4.2068,4.2477,4.3439,4.5027,4.5791,4.6337,4.6713,4.7498,4.7831,4.7438,4.891,5.0885,5.336,5.531,5.7491,5.9941,6.0296,6.055,6.08,6.08,6.0835,6.0933,6.0976,6.1009,6.1022,6.108,6.1099,6.1099,6.1099,6.0634,5.9899,5.9899,5.9899,5.988,5.9629,5.9532,5.9532,5.9532,5.8739,5.7714,5.8101,5.8565,5.9193,6.0708,6.1201,6.1219,6.1278,6.1299,6.1438,6.2094,6.2019,6.1847,6.2235,6.2698,6.3233,6.3935,6.4629,6.5234,6.5541,6.5409,6.5136,6.4726,6.5175,6.5663,6.5897,6.6405,6.6795,6.6795,6.6795,6.6795,6.6795,6.701,6.7498,6.8357,6.924,7.0106,7.0975,7.1633,7.2006,7.1999,7.1173,7.0512,7.0132,7.0497,7.0812,7.1053,7.1678,7.1991,7.1992,7.1992,7.1992,7.1992,7.1992,7.1992,0.0,0.0,0.0,4.8116,0.0,0.0,0.0,0.0,4.3303,0.0,0.0,0.0,0.0,0.0,0.0,0.0,0.0,0.0,0.0,4.1038,4.1611,4.3282,4.3998,4.4304,4.4141,4.4789,4.5571,4.6389,4.7933,4.9581,5.1306,5.4033,5.6318,5.8042,5.9026,5.9954,6.0781,6.08,6.0858,6.1006,6.0987,6.103,6.1099,6.1099,6.1099,6.1099,6.1099,6.0634,5.9899,5.9899,5.9899,5.9822,5.8971,5.8651,5.8651,5.8651,5.8613,5.843,5.7617,5.8449,6.0005,6.0902,6.1201,6.1199,6.1271,6.1302,6.1329,6.1405,6.2034,6.2468,6.1645,6.2698,6.3973,6.4072,6.4162,6.4496,6.5404,6.4941,6.457,6.5409,6.5585,6.5858,6.6619,6.6776,6.6795,6.6795,6.6795,6.6795,6.6795,6.7537,6.8396,6.9274,7.0145,7.1015,7.1882,7.198,7.1999,7.1999,7.1173,7.1075,7.1883,7.1128,7.1108,7.1942,7.199,7.1992,7.2009,7.1992,7.1992,7.1992,7.1992,7.1992,0.0,0.0,5.1572,5.0698,0.0,0.0,0.0,0.0,0.0,0.0,0.0,0.0,0.0,0.0,0.0,0.0,0.0,0.0,0.0,4.0776,4.0848,4.1408,4.2137,4.2713,4.3037,4.3308,4.3767,4.4542,4.5034,4.6563,4.9493,5.0963,5.3162,5.6261,5.7747,5.8983,5.9935,5.9935,6.0011,6.0119,5.954,5.964,6.0306,6.0306,6.0306,6.0306,6.0306,5.9493,5.8178,5.8178,5.8178,5.8159,5.7849,5.7733,5.7811,5.8391,5.8236,5.7869,5.872,5.9764,6.076,6.1095,6.1164,6.1145,6.1263,6.1299,6.1318,6.1378,6.1606,6.1762,6.1471,6.2269,6.3165,6.3219,6.3702,6.424,6.4593,6.4927,6.5253,6.5546,6.6034,6.6483,6.6756,6.6795,6.6795,6.6795,6.6795,6.6795,6.6795,6.7556,6.8435,6.9313,7.0184,7.1055,7.1921,7.2004,7.2003,7.1993,7.1721,7.1688,7.1987,7.1711,7.1694,7.199,7.1991,7.1991,7.1992,7.1992,7.1992,7.1992,7.1992,7.1992,5.2596,5.2977,0.0,5.2109,5.1539,0.0,4.9235,0.0,4.7126,0.0,0.0,0.0,0.0,0.0,0.0,0.0,0.0,0.0,0.0,4.0595,4.0457,4.0366,4.0828,4.1284,4.166,4.1917,4.2227,4.2707,4.2875,4.4221,4.7117,4.8363,5.0659,5.4351,5.6223,5.7769,5.9069,5.9069,5.9114,5.9192,5.8672,5.8742,5.9398,5.9435,5.9435,5.9435,5.9435,5.8623,5.7299,5.7299,5.7299,5.726,5.6951,5.723,5.783,5.8391,5.843,5.843,5.9841,6.0673,6.1108,6.1173,6.1155,6.1117,6.1267,6.1302,6.1314,6.1356,6.1599,6.1781,6.1471,6.206,6.2723,6.2781,6.3228,6.3823,6.4513,6.5156,6.5682,6.5975,6.6444,6.6795,6.6795,6.6795,6.6795,6.6795,6.6795,6.6795,6.6795,6.783,6.8786,6.9333,7.0458,7.1386,7.1941,7.2004,7.2003,7.1993,7.1994,7.2001,7.2009,7.2006,7.2007,7.1992,7.1991,7.1991,7.1992,7.1992,7.1992,7.1992,7.1992,7.1992]}]]